[[{"header":{"parameterUnit":"m.s-1","parameterCategory":1,"la1":30.6,"la2":29.2853,"lo1":-89.7004,"lo2":-87.6739,"dx":0.0162,"dy":0.0183,"nx":112,"ny":82,"refTime":"2022-12-24T06:00:00:Z","depth":0,"parameterNumber":2,"parameterNumberName":"U-component_of_WINDS"},"data":[0.0,0.0,0.0,0.0,0.0,0.0,0.0,0.0,0.0,0.0,0.0,0.0,0.0,0.0,0.0,0.0,0.0,0.0,0.0,0.0,0.0,0.0,0.0,0.0,0.0,0.0,0.0,0.0,0.0,0.0,0.0,0.0,0.0,0.0,0.0,0.0,0.0,0.0,0.0,0.0,0.0,0.0,0.0,0.0,0.0,0.0,0.0,0.0,0.0,0.0,0.0,0.0,0.0,0.0,0.0,0.0,0.0,0.0,0.0,0.0,0.0,0.0,0.0,0.0,0.0,0.0,0.0,0.0,0.0,0.0,0.0,0.0,0.0,0.0,0.0,0.0,0.0,0.0,0.0,0.0,0.0,0.0,0.0,0.0,0.0,0.0,0.0,0.0,0.0,0.0,0.0,4.3547,4.7124,4.9433,4.9586,4.8439,4.6487,4.3604,0.0,0.0,0.0,0.0,0.0,0.0,0.0,0.0,0.0,0.0,0.0,0.0,0.0,0.0,0.0,0.0,0.0,0.0,0.0,0.0,0.0,0.0,0.0,0.0,0.0,0.0,0.0,0.0,0.0,0.0,0.0,0.0,0.0,0.0,0.0,0.0,0.0,0.0,0.0,0.0,0.0,0.0,0.0,0.0,0.0,0.0,0.0,0.0,0.0,0.0,0.0,0.0,0.0,0.0,0.0,0.0,0.0,0.0,0.0,0.0,0.0,0.0,0.0,0.0,0.0,0.0,0.0,0.0,0.0,0.0,0.0,0.0,0.0,0.0,0.0,0.0,0.0,0.0,0.0,0.0,0.0,0.0,0.0,0.0,0.0,0.0,0.0,0.0,0.0,0.0,0.0,0.0,0.0,0.0,0.0,0.0,0.0,0.0,0.0,0.0,0.0,0.0,0.0,0.0,4.2124,4.5932,4.8163,4.9702,5.0433,4.9379,4.722,4.3729,0.0,0.0,0.0,0.0,0.0,0.0,0.0,0.0,0.0,0.0,0.0,0.0,0.0,0.0,0.0,0.0,0.0,0.0,0.0,0.0,0.0,0.0,0.0,0.0,0.0,0.0,0.0,0.0,0.0,0.0,0.0,0.0,0.0,0.0,0.0,0.0,0.0,0.0,0.0,0.0,0.0,0.0,0.0,0.0,0.0,0.0,0.0,0.0,0.0,0.0,0.0,0.0,0.0,0.0,0.0,0.0,0.0,0.0,0.0,0.0,0.0,0.0,0.0,0.0,0.0,0.0,0.0,0.0,0.0,0.0,0.0,0.0,0.0,0.0,0.0,0.0,0.0,0.0,0.0,0.0,0.0,0.0,0.0,0.0,0.0,0.0,0.0,0.0,0.0,0.0,0.0,0.0,0.0,0.0,0.0,0.0,0.0,0.0,0.0,0.0,0.0,0.0,0.0,4.2508,4.4547,4.7894,4.9356,5.0279,5.0664,4.9991,4.8376,4.5609,4.309,0.0,0.0,0.0,0.0,0.0,0.0,0.0,0.0,0.0,0.0,0.0,0.0,0.0,0.0,0.0,0.0,0.0,0.0,0.0,0.0,0.0,0.0,0.0,0.0,0.0,0.0,0.0,0.0,0.0,0.0,0.0,0.0,0.0,0.0,0.0,0.0,0.0,0.0,0.0,0.0,0.0,0.0,0.0,0.0,0.0,0.0,0.0,0.0,0.0,0.0,0.0,0.0,0.0,0.0,0.0,0.0,0.0,0.0,0.0,0.0,0.0,0.0,0.0,0.0,0.0,0.0,0.0,0.0,0.0,0.0,0.0,0.0,0.0,0.0,0.0,0.0,0.0,0.0,0.0,0.0,0.0,0.0,0.0,0.0,0.0,0.0,0.0,0.0,0.0,0.0,0.0,0.0,0.0,0.0,0.0,0.0,0.0,0.0,0.0,0.0,0.0,0.0,4.5778,4.7548,4.951,5.0664,5.1279,5.1279,5.1015,4.973,4.7112,4.4681,0.0,0.0,0.0,0.0,0.0,0.0,0.0,0.0,0.0,0.0,0.0,0.0,0.0,0.0,0.0,0.0,0.0,0.0,0.0,0.0,0.0,0.0,0.0,0.0,0.0,0.0,0.0,0.0,0.0,0.0,0.0,0.0,0.0,0.0,0.0,0.0,0.0,0.0,0.0,0.0,0.0,0.0,0.0,0.0,0.0,0.0,0.0,0.0,0.0,0.0,0.0,0.0,0.0,0.0,0.0,0.0,0.0,0.0,0.0,0.0,0.0,0.0,0.0,0.0,0.0,0.0,0.0,0.0,0.0,0.0,0.0,0.0,0.0,0.0,0.0,0.0,0.0,0.0,0.0,0.0,0.0,0.0,0.0,0.0,0.0,0.0,0.0,0.0,0.0,0.0,0.0,0.0,0.0,0.0,0.0,0.0,0.0,0.0,0.0,0.0,0.0,0.0,4.7817,5.0394,5.0587,5.2049,5.301,5.301,5.299,5.1118,4.6806,4.5314,0.0,0.0,0.0,0.0,0.0,0.0,0.0,0.0,0.0,0.0,0.0,0.0,0.0,0.0,0.0,0.0,0.0,0.0,0.0,0.0,0.0,0.0,0.0,0.0,0.0,0.0,0.0,0.0,0.0,0.0,0.0,0.0,0.0,0.0,0.0,0.0,0.0,0.0,0.0,0.0,0.0,0.0,0.0,0.0,0.0,0.0,0.0,0.0,0.0,0.0,0.0,0.0,0.0,0.0,0.0,0.0,0.0,0.0,0.0,0.0,0.0,0.0,0.0,0.0,0.0,0.0,0.0,0.0,0.0,0.0,0.0,0.0,0.0,0.0,0.0,0.0,0.0,0.0,0.0,0.0,0.0,0.0,0.0,0.0,0.0,0.0,0.0,0.0,0.0,0.0,0.0,0.0,0.0,0.0,0.0,0.0,0.0,0.0,0.0,0.0,0.0,0.0,4.824,5.051,0.0,5.2818,5.3203,5.3203,5.3203,5.1715,4.8197,0.0,0.0,0.0,0.0,0.0,0.0,0.0,0.0,0.0,0.0,0.0,0.0,0.0,0.0,0.0,0.0,0.0,0.0,0.0,0.0,0.0,0.0,0.0,0.0,0.0,0.0,0.0,0.0,0.0,0.0,0.0,0.0,0.0,0.0,0.0,0.0,0.0,0.0,0.0,0.0,0.0,0.0,0.0,0.0,0.0,0.0,0.0,0.0,0.0,0.0,0.0,0.0,0.0,0.0,0.0,0.0,0.0,0.0,0.0,0.0,0.0,0.0,0.0,0.0,0.0,0.0,0.0,0.0,0.0,0.0,0.0,0.0,0.0,0.0,0.0,0.0,0.0,0.0,0.0,0.0,0.0,0.0,0.0,0.0,0.0,0.0,0.0,0.0,0.0,0.0,0.0,0.0,0.0,0.0,0.0,0.0,0.0,0.0,0.0,0.0,0.0,0.0,4.6432,4.9086,5.1395,0.0,5.3857,5.3972,5.3972,5.3972,5.2602,4.9264,0.0,0.0,0.0,0.0,0.0,0.0,0.0,0.0,0.0,0.0,0.0,0.0,0.0,0.0,0.0,0.0,0.0,0.0,0.0,0.0,0.0,0.0,0.0,0.0,0.0,0.0,0.0,0.0,0.0,0.0,0.0,0.0,0.0,0.0,0.0,0.0,0.0,0.0,0.0,0.0,0.0,0.0,0.0,0.0,0.0,0.0,0.0,0.0,0.0,0.0,0.0,0.0,0.0,0.0,0.0,0.0,0.0,0.0,0.0,0.0,0.0,0.0,0.0,0.0,0.0,0.0,0.0,0.0,0.0,0.0,0.0,0.0,0.0,0.0,0.0,0.0,0.0,0.0,0.0,0.0,0.0,0.0,0.0,0.0,0.0,0.0,0.0,0.0,0.0,0.0,0.0,0.0,0.0,0.0,0.0,0.0,0.0,0.0,0.0,0.0,0.0,0.0,4.6586,5.0587,5.3549,5.4434,5.5241,5.5703,5.5703,5.5703,5.3895,0.0,0.0,0.0,0.0,0.0,0.0,0.0,0.0,0.0,0.0,0.0,0.0,0.0,0.0,0.0,0.0,0.0,0.0,0.0,0.0,0.0,0.0,0.0,0.0,0.0,0.0,0.0,0.0,0.0,0.0,0.0,0.0,0.0,0.0,0.0,0.0,0.0,0.0,0.0,0.0,0.0,0.0,0.0,0.0,0.0,0.0,0.0,0.0,0.0,0.0,0.0,0.0,0.0,0.0,0.0,0.0,0.0,0.0,0.0,0.0,0.0,0.0,0.0,0.0,0.0,0.0,0.0,0.0,0.0,0.0,0.0,0.0,0.0,0.0,0.0,0.0,0.0,0.0,0.0,0.0,0.0,0.0,0.0,0.0,0.0,0.0,0.0,0.0,0.0,0.0,0.0,0.0,0.0,0.0,0.0,0.0,0.0,0.0,0.0,0.0,0.0,0.0,0.0,0.0,5.1471,5.4434,5.5241,5.5549,5.5703,5.5703,5.5703,5.3895,4.9663,0.0,0.0,0.0,0.0,0.0,0.0,0.0,0.0,0.0,0.0,0.0,0.0,0.0,0.0,0.0,0.0,0.0,0.0,0.0,0.0,0.0,0.0,0.0,0.0,0.0,0.0,0.0,0.0,0.0,0.0,0.0,0.0,0.0,0.0,0.0,0.0,0.0,0.0,0.0,0.0,0.0,0.0,0.0,0.0,0.0,0.0,0.0,0.0,0.0,0.0,0.0,0.0,0.0,0.0,0.0,0.0,0.0,0.0,0.0,0.0,0.0,0.0,0.0,0.0,0.0,0.0,0.0,0.0,0.0,0.0,0.0,0.0,0.0,0.0,0.0,0.0,0.0,0.0,0.0,0.0,0.0,0.0,0.0,0.0,0.0,0.0,0.0,0.0,0.0,0.0,0.0,0.0,0.0,0.0,0.0,0.0,0.0,0.0,0.0,0.0,0.0,0.0,4.7778,5.1856,5.4818,5.5588,5.5703,5.5703,5.5703,5.5703,5.4164,5.0625,0.0,0.0,0.0,0.0,0.0,0.0,0.0,0.0,0.0,0.0,0.0,0.0,0.0,0.0,0.0,0.0,0.0,0.0,0.0,0.0,0.0,0.0,0.0,0.0,0.0,0.0,0.0,0.0,0.0,0.0,0.0,0.0,0.0,0.0,0.0,0.0,0.0,0.0,0.0,0.0,0.0,0.0,0.0,0.0,0.0,0.0,0.0,0.0,0.0,0.0,0.0,0.0,0.0,0.0,0.0,0.0,0.0,0.0,0.0,0.0,0.0,0.0,0.0,0.0,0.0,0.0,0.0,0.0,0.0,0.0,0.0,0.0,0.0,0.0,0.0,0.0,0.0,0.0,0.0,0.0,0.0,0.0,0.0,0.0,0.0,0.0,0.0,0.0,0.0,0.0,0.0,0.0,0.0,0.0,0.0,0.0,0.0,0.0,0.0,0.0,0.0,0.0,4.7894,5.1972,5.4895,5.5626,5.5703,5.5703,5.5703,5.5703,5.4626,5.2049,0.0,0.0,0.0,0.0,0.0,0.0,0.0,0.0,0.0,0.0,0.0,0.0,0.0,0.0,0.0,0.0,0.0,0.0,0.0,0.0,0.0,0.0,0.0,0.0,0.0,0.0,0.0,0.0,0.0,0.0,0.0,0.0,0.0,0.0,0.0,0.0,0.0,0.0,0.0,0.0,0.0,0.0,0.0,0.0,0.0,0.0,0.0,0.0,0.0,0.0,0.0,0.0,0.0,0.0,0.0,0.0,0.0,0.0,0.0,0.0,3.8969,0.0,0.0,0.0,0.0,0.0,0.0,0.0,0.0,0.0,0.0,0.0,0.0,0.0,0.0,0.0,0.0,0.0,0.0,0.0,0.0,0.0,0.0,0.0,0.0,0.0,0.0,0.0,0.0,0.0,0.0,0.0,0.0,0.0,0.0,0.0,0.0,0.0,0.0,0.0,0.0,0.0,4.8894,5.2818,5.5511,5.5665,5.5703,5.5703,5.5703,5.5703,5.4626,5.2049,0.0,0.0,0.0,0.0,0.0,0.0,0.0,0.0,0.0,0.0,0.0,0.0,0.0,0.0,0.0,0.0,0.0,0.0,0.0,0.0,0.0,0.0,0.0,0.0,0.0,0.0,0.0,0.0,0.0,0.0,0.0,0.0,0.0,0.0,0.0,0.0,0.0,0.0,0.0,0.0,0.0,0.0,0.0,0.0,0.0,0.0,0.0,0.0,0.0,0.0,0.0,0.0,0.0,0.0,0.0,0.0,0.0,0.0,0.0,0.0,0.0,4.0315,0.0,0.0,0.0,0.0,0.0,0.0,0.0,0.0,0.0,0.0,0.0,0.0,0.0,0.0,0.0,0.0,0.0,0.0,0.0,0.0,0.0,0.0,0.0,0.0,0.0,0.0,0.0,0.0,0.0,0.0,0.0,0.0,0.0,0.0,0.0,0.0,0.0,0.0,0.0,0.0,4.9163,5.3087,5.5703,5.5703,5.5703,5.5703,5.5703,5.5703,5.5126,5.3818,5.2587,0.0,0.0,0.0,0.0,0.0,0.0,0.0,0.0,0.0,0.0,0.0,0.0,0.0,0.0,0.0,0.0,0.0,0.0,0.0,0.0,0.0,0.0,0.0,0.0,0.0,0.0,0.0,0.0,0.0,0.0,0.0,0.0,0.0,0.0,0.0,0.0,0.0,0.0,0.0,0.0,0.0,0.0,0.0,0.0,0.0,0.0,0.0,0.0,0.0,0.0,0.0,0.0,0.0,0.0,0.0,4.12,4.2816,4.3124,4.247,4.247,4.2701,4.3047,0.0,0.0,0.0,0.0,0.0,0.0,0.0,0.0,0.0,0.0,0.0,0.0,0.0,0.0,0.0,0.0,0.0,0.0,0.0,0.0,0.0,0.0,0.0,0.0,0.0,4.5009,4.524,0.0,0.0,0.0,0.0,0.0,0.0,0.0,0.0,0.0,0.0,0.0,0.0,4.9817,5.3356,5.5703,5.5703,5.5703,5.5703,5.5703,5.5703,5.5703,5.5703,5.3741,5.2087,0.0,0.0,0.0,0.0,0.0,0.0,0.0,0.0,0.0,0.0,0.0,0.0,0.0,0.0,0.0,0.0,0.0,0.0,0.0,0.0,0.0,0.0,0.0,0.0,0.0,0.0,0.0,0.0,0.0,0.0,0.0,0.0,0.0,3.6384,0.0,0.0,0.0,0.0,0.0,0.0,0.0,0.0,0.0,0.0,0.0,0.0,0.0,0.0,4.2739,4.2662,4.2662,4.2777,4.3585,4.3893,4.3816,4.4816,4.5201,4.5086,4.5086,0.0,4.3085,4.297,0.0,0.0,0.0,0.0,0.0,0.0,0.0,0.0,0.0,0.0,0.0,0.0,0.0,0.0,0.0,0.0,0.0,0.0,0.0,0.0,0.0,0.0,4.7432,4.7432,4.7625,4.7663,0.0,4.4893,4.2816,4.2508,0.0,0.0,0.0,0.0,0.0,0.0,0.0,0.0,5.2279,5.4472,5.5703,5.5703,5.5703,5.5703,5.5703,5.5703,5.5703,5.5703,5.5395,5.4164,5.1856,5.0741,0.0,0.0,0.0,0.0,0.0,0.0,0.0,0.0,0.0,0.0,0.0,0.0,0.0,0.0,0.0,0.0,0.0,0.0,0.0,0.0,0.0,0.0,0.0,0.0,0.0,0.0,0.0,0.0,0.0,3.4809,3.6496,3.6864,3.7115,3.7154,0.0,0.0,0.0,0.0,0.0,0.0,0.0,0.0,0.0,4.1931,4.197,4.2547,4.3778,4.3778,4.4008,4.4509,4.4855,4.5009,4.5047,4.5432,4.5855,4.6317,4.6317,4.6163,4.5817,4.4355,4.3547,4.3162,0.0,0.0,0.0,0.0,0.0,0.0,4.2931,0.0,0.0,0.0,0.0,0.0,0.0,0.0,0.0,0.0,0.0,0.0,0.0,0.0,0.0,4.9317,4.9548,4.9548,4.9548,4.8394,4.6778,0.0,4.5278,4.4778,4.1123,0.0,0.0,0.0,0.0,0.0,5.2933,5.4664,5.5703,5.5703,5.5703,5.5703,5.5703,5.5703,5.5703,5.5703,5.5703,5.5203,5.4087,5.2318,5.0317,0.0,0.0,0.0,0.0,0.0,0.0,0.0,0.0,0.0,0.0,0.0,0.0,0.0,0.0,0.0,0.0,0.0,0.0,0.0,0.0,0.0,0.0,0.0,0.0,0.0,0.0,0.0,0.0,3.6682,0.0,3.7779,3.8222,3.8363,0.0,0.0,0.0,0.0,0.0,0.0,0.0,4.1777,4.2508,4.3393,4.3393,4.3816,4.4624,4.4624,4.5086,4.5932,4.5932,4.6047,4.624,4.624,4.6586,4.7201,4.7201,4.7548,4.7971,4.6047,4.5163,4.4893,4.4316,4.3547,0.0,4.3739,4.4085,4.4278,4.574,4.6663,4.7086,4.6432,0.0,4.5355,4.4124,0.0,0.0,0.0,0.0,4.5663,4.7432,0.0,4.9086,5.0394,5.0856,5.101,5.101,5.1164,5.051,0.0,4.8202,4.7817,4.3778,0.0,0.0,0.0,0.0,5.2395,5.3664,5.4934,5.5703,5.5703,5.5895,5.6011,5.6011,5.6242,5.6357,5.6357,5.6165,5.6011,5.6011,5.401,5.2587,0.0,0.0,0.0,0.0,0.0,0.0,0.0,0.0,0.0,0.0,0.0,0.0,0.0,0.0,0.0,0.0,0.0,0.0,0.0,0.0,0.0,0.0,0.0,0.0,0.0,0.0,0.0,0.0,0.0,0.0,4.0438,3.9795,0.0,0.0,0.0,0.0,0.0,4.1931,4.2931,4.297,4.3008,4.3393,4.4201,4.4239,4.4662,4.5509,4.5509,4.597,4.6817,4.6817,4.724,4.7971,4.7971,4.8009,4.8048,4.8048,4.8048,4.8086,4.7971,4.7471,4.6778,4.674,4.6163,4.5509,4.6394,4.6701,4.6817,4.7702,4.8009,4.8048,4.8009,4.6894,4.5586,4.5509,4.4893,0.0,0.0,4.7278,4.8317,5.0048,5.0548,5.0587,5.0664,5.1279,5.1856,5.1856,5.251,5.2779,0.0,5.1664,5.1395,5.0356,0.0,0.0,5.1433,5.1741,5.2779,5.5241,5.5665,5.5703,5.5703,5.6434,5.6934,5.6934,5.7703,5.8165,5.8165,5.7396,5.6934,5.6934,5.6011,5.4357,5.1972,5.1779,0.0,0.0,0.0,0.0,0.0,0.0,0.0,0.0,0.0,0.0,0.0,0.0,0.0,0.0,0.0,0.0,0.0,0.0,0.0,0.0,0.0,0.0,0.0,0.0,0.0,0.0,0.0,0.0,4.0262,4.0482,0.0,0.0,4.1415,4.1931,4.2162,4.2739,4.3316,4.3855,4.3855,4.4239,4.5086,4.5663,4.6124,4.6432,4.6932,4.7355,4.7663,4.7663,4.7817,4.8086,4.8086,4.8394,4.8933,4.8933,4.924,4.9779,4.9779,4.8933,4.7663,4.7663,4.7471,4.724,4.7548,4.8048,4.8548,4.8856,4.9317,4.9779,4.9779,4.9356,4.8856,4.8856,4.8663,4.8548,4.9163,4.9548,4.9933,5.0548,5.1087,5.1471,5.1471,5.2125,5.2741,5.2741,5.2972,5.328,5.351,5.3126,5.2318,5.0933,5.2049,5.2856,5.2049,5.3318,5.4664,5.5588,5.5703,5.5895,5.6472,5.6819,5.7242,5.778,5.8127,5.8319,5.8319,5.8011,5.7588,5.7011,5.6703,5.5857,5.4357,5.4357,5.1895,0.0,0.0,0.0,0.0,0.0,0.0,0.0,0.0,0.0,0.0,0.0,0.0,0.0,0.0,0.0,0.0,0.0,0.0,0.0,0.0,0.0,0.0,0.0,0.0,0.0,0.0,4.0576,4.0739,4.1436,4.1933,4.2044,4.2756,4.3273,4.3492,4.3778,4.4162,4.4701,4.5009,4.5432,4.6009,4.6855,4.7317,4.7317,4.7817,4.824,4.8548,4.8548,4.8702,4.8971,4.8971,4.9279,4.9817,4.9817,5.0164,5.0702,5.0702,5.001,4.8971,4.8971,4.8971,4.8971,4.8971,4.9356,4.9817,4.9817,5.0202,5.0702,5.0702,5.0894,5.1087,5.1087,5.1318,5.1548,5.1548,5.1548,5.1548,5.1548,5.1933,5.2356,5.2356,5.301,5.3626,5.3626,5.3857,5.4203,5.478,5.4203,5.3356,5.251,5.378,5.4511,5.3356,5.4626,5.5703,5.5703,5.5972,5.6357,5.6934,5.7511,5.8088,5.8665,5.8704,5.8819,5.9127,5.8627,5.8165,5.7857,5.7011,5.6165,5.5318,5.5011,5.2664,4.8163,0.0,0.0,0.0,0.0,0.0,0.0,0.0,0.0,0.0,0.0,0.0,0.0,0.0,0.0,0.0,0.0,0.0,0.0,0.0,0.0,0.0,0.0,0.0,3.9656,4.0625,4.1525,4.2068,4.2717,4.3,4.2659,4.3693,4.4355,4.4355,4.5124,4.5586,4.5624,4.6432,4.6932,4.6932,4.774,4.8125,4.8125,4.8163,4.8625,4.9433,4.9471,4.9933,5.0741,5.0779,5.0779,5.0779,5.0779,5.0779,5.0779,5.0779,5.0779,5.0779,5.0702,5.0702,5.0702,5.0702,5.0702,5.0741,5.0779,5.0779,5.0779,5.0779,5.1318,5.1933,5.1933,5.2549,5.3203,5.3203,5.3203,5.3203,5.3203,5.3241,5.3241,5.3241,5.3895,5.4549,5.4549,5.5164,5.5703,5.5703,5.5049,5.478,5.5549,5.5703,5.5703,5.5703,5.5703,0.0,5.5742,5.6472,5.7011,5.7049,5.8473,5.9473,5.9511,5.9511,5.9858,6.0742,5.9281,5.8704,5.9473,5.7126,5.5434,5.4587,5.3626,5.2356,5.0741,0.0,0.0,0.0,0.0,0.0,0.0,0.0,0.0,0.0,0.0,0.0,0.0,0.0,0.0,0.0,0.0,0.0,0.0,0.0,0.0,0.0,0.0,4.0399,4.1109,4.1451,4.1967,4.2737,4.3517,4.3953,4.3844,4.4666,4.524,4.524,4.547,4.5893,4.6509,4.6778,4.7163,4.774,4.8586,4.9048,4.9048,4.9663,5.0087,5.0356,5.0933,5.1356,5.1587,5.2241,5.251,5.251,5.251,5.251,5.251,5.251,5.251,5.2395,5.1164,5.0702,5.0702,5.0702,5.1087,5.1664,5.2279,5.251,5.251,5.251,5.2664,5.2856,5.2856,5.301,5.3203,5.3203,5.3203,5.3203,5.3203,5.3664,5.4126,5.4126,5.478,5.5357,5.5357,5.5549,5.5703,5.5703,5.5511,5.5434,5.5665,5.5703,5.5703,5.5703,0.0,0.0,5.6549,5.6857,5.7242,5.7896,5.8357,5.8858,5.9435,5.9511,5.9858,0.0,6.0358,5.9935,5.9511,5.8819,5.778,5.6319,5.3626,5.2049,0.0,0.0,0.0,0.0,0.0,0.0,0.0,0.0,0.0,0.0,0.0,0.0,0.0,0.0,0.0,0.0,0.0,0.0,0.0,0.0,0.0,0.0,4.0508,4.147,4.2701,4.2854,4.3047,4.3547,4.4355,4.4855,4.4855,4.5278,4.574,4.6124,4.6124,4.6509,4.7355,4.774,4.8163,4.8625,4.9471,4.9933,4.9933,5.0779,5.1202,5.1202,5.2049,5.2433,5.2472,5.2972,5.3203,0.0,5.3203,5.3203,5.3203,5.3203,5.3203,0.0,0.0,0.0,0.0,0.0,5.2049,5.251,5.301,5.3203,5.3203,5.3203,5.3433,5.3741,5.3741,5.3972,5.4241,5.4241,5.4241,5.4241,5.4241,5.4626,5.5011,5.5011,5.5357,5.5703,5.5703,5.5703,5.5703,5.5703,0.0,0.0,5.578,5.5742,5.5703,5.578,5.6049,5.6434,0.0,5.7627,5.8242,5.8742,5.9127,5.9665,6.0512,5.9935,0.0,0.0,0.0,5.9896,5.905,0.0,0.0,0.0,0.0,0.0,0.0,0.0,0.0,0.0,5.1241,5.0933,0.0,0.0,0.0,0.0,0.0,0.0,0.0,0.0,0.0,0.0,0.0,0.0,0.0,0.0,0.0,0.0,4.1431,4.2585,4.4085,4.4393,4.4432,4.4432,4.5124,4.5624,4.574,4.574,4.6086,4.6971,4.7048,4.7394,0.0,0.0,0.0,0.0,0.0,5.0818,5.0818,5.1741,5.2202,5.2202,5.3164,5.3626,5.3626,5.3741,5.378,5.378,5.3664,5.3664,5.378,5.3664,5.3626,5.3587,5.3318,5.3203,5.3203,5.3318,5.3356,0.0,0.0,0.0,0.0,5.3472,5.401,5.4626,5.4626,5.5126,5.5703,5.5703,5.5703,5.5703,5.5703,5.5703,5.5703,5.5703,5.5703,5.5703,5.5703,5.5703,5.5703,5.5703,5.5703,5.578,5.6032,5.5857,5.578,5.6032,5.6613,0.0,5.7495,5.8704,5.9511,5.955,0.0,0.0,6.1897,6.0627,6.0473,6.2127,6.0704,5.9435,5.8627,5.7011,5.6165,5.628,5.5395,5.5742,5.7434,5.8819,5.955,5.9511,5.3395,5.2164,0.0,0.0,0.0,0.0,0.0,0.0,0.0,0.0,0.0,0.0,0.0,0.0,0.0,0.0,0.0,4.136,4.2816,4.3932,4.4239,4.4893,4.5355,4.5355,4.5509,4.5893,4.6586,4.6663,4.7009,4.7817,4.7855,4.824,4.9086,4.9317,0.0,5.0433,5.1241,5.1664,5.1664,5.3203,5.401,5.401,0.0,0.0,5.628,5.6973,5.7319,5.728,5.6549,5.6665,5.728,5.6549,5.628,5.6049,5.401,5.3203,5.328,5.3972,5.4241,5.4357,5.4972,5.5203,5.5203,5.5203,5.5318,5.5472,5.5472,5.5588,0.0,5.5703,5.5703,5.5703,5.5703,5.5703,5.5703,5.5703,5.5703,5.5703,5.5703,5.5703,5.5742,5.5818,5.5857,5.6148,5.6977,5.6417,5.6148,5.6977,5.724,5.7823,5.9254,5.9611,5.9742,5.9719,6.0396,6.0858,6.105,6.1396,6.2012,6.3012,6.2127,6.1204,6.0358,5.9319,5.9088,5.9781,5.8319,5.8396,6.005,5.9665,5.9858,6.0512,5.8473,5.7896,0.0,0.0,0.0,0.0,0.0,0.0,0.0,0.0,0.0,0.0,0.0,3.8712,0.0,0.0,4.1391,4.2838,4.3739,4.4432,4.4893,4.5701,4.624,4.624,4.624,4.6586,4.7432,4.7509,4.7855,4.8702,4.874,4.9125,5.001,5.0433,5.0856,5.1279,5.2125,5.2779,5.3203,5.4472,5.5318,5.578,5.711,5.7764,5.7764,5.8242,5.8473,5.8396,5.7934,5.7973,5.828,5.7918,5.7786,5.7709,5.6438,5.534,5.4511,5.4934,5.5088,5.5164,5.5549,5.5703,5.5703,5.5703,5.5703,5.5703,5.5703,5.5703,5.5703,5.5703,5.5703,5.5703,5.5703,5.5742,5.578,5.578,5.5857,5.5955,5.5955,5.5955,5.5994,5.6032,5.6405,5.6842,5.7464,5.7461,5.7576,5.8077,5.8444,5.9054,5.9977,6.0366,6.0712,6.1135,6.1497,6.2036,6.2882,6.3243,6.3435,6.332,6.2551,6.1897,6.1473,6.0589,6.0358,6.0781,6.0396,6.0396,6.0781,6.0781,6.0781,6.0781,6.0358,6.0165,0.0,0.0,0.0,0.0,0.0,0.0,0.0,0.0,3.815,3.815,3.9013,3.9969,4.0623,4.1585,4.2739,4.4085,4.4432,4.4855,4.574,4.6471,4.7009,4.7355,4.724,4.7471,4.8279,4.8355,4.8702,4.9586,4.9663,5.001,5.0894,5.1548,5.1972,5.2164,5.3164,5.401,5.4741,5.5895,5.6857,5.7572,5.8572,5.9023,5.905,5.9166,5.9145,5.9048,5.9056,5.8896,5.8649,5.8778,5.8877,5.8935,5.8781,5.7719,5.6252,5.6074,5.6032,5.6032,5.5994,5.6032,5.6032,5.6032,5.5895,5.578,5.578,5.578,5.578,5.578,5.578,5.5818,5.5994,5.6109,5.6207,5.6387,5.6464,5.6503,5.6657,5.6541,5.6502,5.669,5.7262,5.7814,5.8161,5.8753,5.9184,5.9181,5.9697,6.0197,6.0467,6.1158,6.1849,6.2547,6.2892,6.3681,6.518,6.5139,6.4603,6.3628,6.2935,6.2512,6.232,6.1666,6.1358,6.1512,6.205,6.205,6.155,6.205,6.1973,6.1281,6.1281,6.1089,3.9731,0.0,0.0,3.9128,3.9061,3.8984,0.0,0.0,4.0169,4.0169,4.0877,4.1546,4.1662,4.297,4.4085,4.4278,4.4932,4.574,4.6624,4.6855,4.7471,4.8933,4.8432,4.8317,4.9163,4.924,4.9625,5.0471,5.0548,5.0894,5.1741,5.1856,5.2241,5.3049,5.4587,5.5472,5.5549,5.8072,5.938,5.9496,6.0496,6.0983,6.1007,6.0994,6.0994,6.0981,6.0982,6.0535,5.9832,5.9856,5.9828,5.9789,5.8997,5.8569,5.8273,5.7352,5.7093,5.717,5.7054,5.7093,5.7208,5.7208,5.6746,5.6148,5.6148,5.6148,5.6148,5.6148,5.6148,5.6302,5.7016,5.7208,5.7409,5.8195,5.7792,5.748,5.8258,5.7792,5.7546,5.8412,5.868,5.903,5.9952,6.0184,6.024,6.0241,6.0307,6.0624,6.1445,6.2186,6.2662,6.2756,6.4014,6.5139,6.5929,6.5958,6.5513,6.4512,6.4359,6.3974,6.3205,6.3089,6.3397,6.4166,6.3512,6.3512,6.4166,6.3512,6.3128,6.3012,6.3012,6.2204,4.0583,0.0,0.0,0.0,3.9662,3.9546,4.0546,4.1393,4.2008,4.2008,4.2316,4.2701,4.3162,4.3816,4.447,0.0,4.5778,4.6471,4.6855,4.774,4.8625,4.9317,4.951,4.974,5.0125,5.0164,5.051,5.1356,5.1395,5.1779,5.2626,5.3203,5.3916,5.4821,5.6053,5.7187,5.8187,5.9364,6.0169,6.0677,6.119,6.1439,6.1426,6.15,6.1481,6.1398,6.1344,6.1138,6.0866,6.0848,6.0916,6.0968,6.0594,6.0155,5.9549,5.8478,5.8101,5.814,5.8092,5.7784,5.7474,5.7978,5.7591,5.6994,5.7513,5.7668,5.7668,5.7668,5.7668,5.7746,5.8056,5.8586,5.9125,5.9491,5.9727,6.0002,6.0354,5.9768,5.9285,5.9685,5.9785,5.9902,6.033,6.0837,6.1166,6.117,6.1172,6.1484,6.2344,6.2734,6.3318,6.4301,6.5468,6.6204,6.6369,6.6397,6.6153,6.5513,6.5013,6.4743,6.482,6.432,6.4474,6.532,6.5013,6.4743,6.4589,6.4243,6.382,6.332,6.332,6.2935,4.1705,0.0,0.0,4.0169,3.9738,3.9662,4.1123,4.2124,4.2816,4.3047,4.3278,4.3624,4.4201,4.4509,0.0,4.5817,4.6509,4.7048,4.7509,4.8625,4.9471,4.974,5.0529,5.1068,5.101,5.101,5.1356,5.2202,5.2279,5.2702,5.3549,5.457,5.5518,5.6346,5.7523,5.8722,5.9978,6.0299,6.0712,6.1376,6.1508,6.1552,6.1569,6.1671,6.164,6.1562,6.1459,6.1484,6.1552,6.1552,6.1617,6.1718,6.1705,6.13,6.0676,5.9818,5.9394,5.9157,5.9138,5.8732,5.8328,5.8952,5.8601,5.8016,5.864,5.8835,5.8874,5.9116,5.9155,5.9272,5.9779,6.0433,6.1035,6.1268,6.1697,6.2109,6.2383,6.1719,6.1172,6.1445,6.1484,6.1406,6.1172,6.2031,6.2617,6.2148,6.2461,6.2812,6.2969,6.3437,6.4297,6.5781,6.6523,6.6914,6.6953,6.6953,6.6922,6.6874,6.6227,6.6128,6.6628,6.6013,6.582,6.6205,6.6244,6.582,6.4974,6.4974,6.4628,6.4012,6.4012,6.4012,0.0,0.0,4.0315,3.9508,3.9315,3.9508,4.0354,4.12,4.2085,4.2931,4.3701,4.4278,4.4316,4.497,4.5855,4.674,4.6894,4.7471,4.9086,4.9356,4.9702,5.0548,5.1511,5.2011,0.0,5.1856,5.2241,5.3087,5.3261,5.3743,5.4608,5.5612,5.6536,5.7348,5.9004,5.9938,5.9977,6.0964,6.1458,6.1505,6.1612,6.1679,6.1679,6.1718,6.1719,6.168,6.1679,6.1679,6.1679,6.1679,6.1718,6.1719,6.1718,6.1679,6.1679,6.1601,6.1054,6.034,6.0195,6.0215,6.0312,6.0351,5.9804,5.914,5.9179,5.9179,5.9336,6.0117,6.0351,6.0742,6.2422,6.289,6.3124,6.3984,6.3554,6.3203,6.4023,6.3555,6.3164,6.4023,6.418,6.3906,6.3086,6.4336,6.4922,6.3203,6.4414,6.4883,6.3203,6.4492,6.5859,6.6758,6.6875,6.7148,6.7812,6.7851,6.8136,6.8786,6.8661,6.8578,6.8616,6.8398,6.7898,6.709,6.7051,6.6667,6.5859,6.5859,6.5859,6.582,6.582,6.582,0.0,0.0,4.1162,4.0315,4.0546,4.1162,4.2047,4.3316,4.4393,4.4701,4.5432,4.6201,4.674,4.7048,4.7548,4.8432,4.8548,4.8779,4.9317,5.0414,5.1318,5.1588,5.2493,0.0,0.0,0.0,0.0,5.401,5.4185,5.4608,5.5455,5.6554,5.7544,5.8372,5.9599,6.0526,6.1112,6.1452,6.1612,6.1612,6.1668,6.1719,6.1719,6.1719,6.1719,6.1719,6.1719,6.1719,6.1758,6.2305,6.2578,6.2617,6.3203,6.3437,6.3437,6.3437,6.3242,6.2812,6.1627,6.0831,6.0586,6.1758,6.1562,6.1055,6.2226,6.2578,6.2656,6.289,6.3008,6.3125,6.3711,6.4297,6.4805,6.5078,6.539,6.5664,6.5976,6.5351,6.4805,6.5117,6.5156,6.5078,6.4765,6.5703,6.6445,6.6445,6.5976,6.5586,6.5586,6.6601,6.7656,6.8515,6.8633,6.8711,6.8867,6.8945,6.8982,6.9078,6.9061,6.9148,6.9451,6.8936,6.8667,6.8821,6.7667,6.6974,6.6667,6.6167,6.5897,6.5897,6.5897,6.5897,0.0,4.2239,4.12,4.0623,4.0931,4.1662,4.2816,4.3932,4.4893,4.547,4.6278,4.7048,4.7586,4.7932,4.8509,4.9663,4.9856,5.0048,5.0664,5.1799,5.255,5.255,5.3475,0.0,0.0,0.0,0.0,5.5088,5.5224,5.5532,5.6071,5.7434,5.8453,5.8997,6.0232,6.1133,6.168,6.1719,6.1719,6.1719,6.2031,6.2148,6.2187,6.25,6.2617,6.2617,6.2617,6.2617,6.2656,6.3242,6.3476,6.3515,6.4062,6.4297,6.4297,6.4297,6.4297,6.414,6.3008,6.2265,6.1992,6.3086,6.3086,6.2851,6.3945,6.4297,6.4375,6.4687,6.4765,6.4844,6.5156,6.5625,6.6055,6.6055,6.6484,6.6992,6.7305,6.6914,6.6601,6.6914,6.6992,6.6875,6.6562,6.6992,6.7773,6.8906,6.7851,6.7187,6.7734,6.832,6.8984,6.9844,6.9922,7.0156,7.0742,7.0547,7.0469,7.0664,7.0312,7.0236,7.0532,6.9996,6.9744,6.9783,6.8667,6.7936,6.7552,6.7051,6.6782,6.6782,6.6782,6.6782,4.3047,4.1816,4.0546,4.0508,4.0508,4.1008,4.2701,4.3124,4.3624,4.5316,4.6355,4.7009,0.0,0.0,4.8779,5.0471,5.0779,5.1318,5.2933,5.3338,5.3474,0.0,0.0,0.0,0.0,0.0,0.0,5.6228,0.0,5.6379,5.6379,5.8172,5.9219,5.9219,6.082,6.1719,6.1719,6.1758,6.1758,6.1797,6.2656,6.3086,6.3086,6.3906,6.4297,6.4297,6.4297,6.4297,6.4297,6.4336,6.4375,6.4375,6.4414,6.4414,6.4414,6.4414,6.4414,6.4414,6.4414,6.4375,6.4297,6.4336,6.4375,6.4375,6.4414,6.4414,6.4609,6.543,6.5664,6.5859,6.668,6.6914,6.6953,6.6953,6.6992,6.7265,6.8086,6.8242,6.8476,6.9258,6.9492,6.9297,6.8515,6.8398,6.8945,7.0547,7.0117,6.9609,6.957,6.9609,6.9922,7.0742,7.0859,7.1562,7.3242,7.2617,7.2461,7.3242,7.2344,7.1758,7.1719,7.1581,7.1043,7.0002,6.9937,6.9448,6.8475,6.8436,6.8398,6.8398,6.8398,6.8398,4.2124,4.1816,4.1316,4.0662,4.0969,4.1777,4.2854,4.3547,4.447,4.6201,4.724,4.8202,0.0,0.0,0.0,5.1433,5.1684,0.0,5.2319,5.3706,0.0,0.0,0.0,5.6184,5.6163,5.6393,0.0,0.0,5.6443,5.6379,5.6379,5.8172,5.9219,5.9219,6.082,6.1719,6.1719,6.2344,6.2656,6.2695,6.3555,6.3984,6.3984,6.4219,6.4297,6.4297,6.4297,6.4297,6.4336,6.5,6.5273,6.5312,6.5976,6.625,6.625,6.625,6.625,6.625,6.625,6.539,6.4414,6.5078,6.5273,6.539,6.6055,6.625,6.6289,6.6523,6.6562,6.6601,6.6836,6.7383,6.7851,6.7851,6.8359,6.8867,6.9062,6.914,6.9219,6.9375,6.9922,7.0547,7.0976,7.1015,7.1172,7.1601,7.2031,7.1836,7.0547,7.0976,7.168,7.2539,7.3203,7.3789,7.4219,7.4062,7.375,7.332,7.3047,7.2539,7.1719,7.169,7.1487,7.1098,7.0459,6.991,6.9525,6.891,6.8552,6.8398,6.8398,6.8398,4.1816,4.1508,4.1123,4.0623,4.0854,4.1662,4.3278,4.397,4.4893,4.7009,4.8086,0.0,0.0,0.0,0.0,0.0,0.0,0.0,5.3762,5.4919,5.5671,0.0,5.6233,0.0,5.6614,5.6593,5.6597,0.0,5.6544,5.6496,5.6496,5.8207,5.9219,5.9219,6.082,6.1875,6.2265,6.3125,6.3555,6.3594,6.4453,6.4883,6.4883,6.5273,6.543,6.543,0.0,6.543,6.5469,6.5976,6.6172,6.6211,6.6719,6.6914,6.6914,6.6914,6.6914,6.6914,6.6914,6.625,6.5508,6.6015,6.6172,6.625,6.6758,6.6914,6.6992,6.7344,6.7461,6.7539,6.789,6.8359,6.8711,6.875,6.914,6.9609,6.9883,7.0,7.0117,7.0469,7.0937,7.1445,7.1914,7.2305,7.2578,7.2578,7.332,7.3515,7.2539,7.2851,7.3476,7.4336,7.4883,7.5312,7.5703,7.539,7.4961,7.4453,7.3711,7.3047,7.2422,7.2031,7.1749,7.1597,7.1135,7.077,7.0617,7.0067,6.9744,6.9629,6.9552,6.9513,4.1777,4.1239,4.07,4.0831,4.087,4.1524,4.4119,4.4603,4.524,4.7932,0.0,0.0,4.9702,0.0,5.1453,5.3128,0.0,5.4167,5.5838,5.6265,5.6425,5.6425,5.6535,5.6601,5.6601,5.6601,5.6601,5.6601,5.6601,5.6601,5.6601,5.8242,5.9336,5.9687,6.1211,6.2422,6.3164,6.4023,6.4453,6.4492,6.5351,6.5781,6.5781,6.6562,6.6914,6.6914,0.0,0.0,6.6914,6.6914,6.6914,6.6914,6.6914,6.6953,6.707,6.707,6.7148,6.7226,6.7226,6.7226,6.7226,6.6992,6.6992,6.707,6.707,6.7148,6.7383,6.8164,6.8359,6.8515,6.9219,6.9492,6.9609,6.9648,6.9765,7.0039,7.0703,7.0859,7.1094,7.1836,7.1992,7.2031,7.2148,7.2812,7.3359,7.3476,7.4219,7.4765,7.4765,7.4765,7.5078,7.582,7.6015,7.6367,7.7148,7.6523,7.6015,7.5898,7.4492,7.3594,7.3476,7.2656,7.2109,7.1914,7.1797,7.1655,7.1549,7.1339,7.1235,7.1206,7.1014,7.0937,4.1585,4.17,4.1739,4.2541,4.2733,4.3442,4.6159,4.6155,0.0,0.0,0.0,4.9817,5.1202,5.1684,0.0,5.3243,0.0,0.0,0.0,0.0,5.6575,0.0,0.0,0.0,0.0,0.0,0.0,0.0,0.0,0.0,0.0,5.8242,6.0156,6.2265,6.332,6.3906,6.4062,6.4922,6.5351,6.539,6.625,6.668,6.668,6.6836,6.6914,6.6914,0.0,0.0,6.6914,6.6914,6.6914,6.6914,6.6914,6.7344,6.7969,6.7969,6.8437,6.9023,6.8984,6.8984,6.8828,6.7383,6.7383,6.7969,6.7969,6.8476,6.9062,6.9219,6.9219,6.9258,6.9414,6.9961,7.0469,7.0508,7.1055,7.1601,7.1758,7.1758,7.1836,7.1953,7.1992,7.2226,7.2969,7.3203,7.3555,7.4258,7.5117,7.5664,7.5664,7.5664,7.5742,7.5898,7.6523,7.7031,7.7187,7.707,7.668,7.5937,7.5625,7.5117,7.4414,7.3555,7.3047,7.3008,7.2305,7.1835,7.1671,7.1616,7.1563,7.1464,7.1245,7.1129,4.2294,4.2524,4.264,4.3179,4.367,4.456,4.6729,0.0,0.0,0.0,0.0,5.1029,5.1876,0.0,0.0,0.0,0.0,0.0,0.0,0.0,0.0,0.0,0.0,0.0,0.0,0.0,0.0,0.0,0.0,0.0,0.0,5.9336,6.1484,6.3594,6.4531,6.4961,6.4961,6.5859,6.6289,6.6289,6.6719,6.6914,6.6914,6.6914,6.6914,6.6914,0.0,0.0,0.0,6.8086,6.8242,6.8242,6.8203,6.8476,6.8828,6.8867,6.914,6.9492,6.9414,6.9414,6.9297,6.8476,6.8476,6.8828,6.8867,6.914,6.9531,7.0,7.0117,7.0195,7.0664,7.1094,7.1367,7.1367,7.1719,7.1992,7.1992,7.1992,7.2148,7.2578,7.2695,7.2969,7.3828,7.4336,7.4805,7.5195,7.6015,7.6562,7.6562,7.6562,7.6562,7.6562,7.6953,7.7187,7.7187,7.7187,7.7031,7.6601,7.6133,7.5703,7.5273,7.4453,7.3984,7.3984,7.3125,7.2617,7.2539,7.1953,7.169,7.1576,7.1434,7.134,4.3272,4.3543,4.3573,4.3888,4.4628,4.5784,4.7671,4.8382,0.0,0.0,5.1857,5.205,5.2584,0.0,5.4013,0.0,0.0,0.0,0.0,0.0,0.0,0.0,0.0,0.0,0.0,0.0,0.0,0.0,0.0,0.0,0.0,6.0781,6.2773,6.4531,6.543,6.5898,6.5898,6.6562,6.6914,6.6914,6.7109,6.7187,6.7187,6.7383,6.7461,6.7461,0.0,0.0,0.0,6.9219,6.9492,6.9453,6.9453,6.9531,6.9687,6.9726,6.9883,7.0039,6.9961,6.9961,6.9961,6.9961,6.9844,6.9687,6.9726,6.9844,7.0117,7.0781,7.0976,7.1133,7.1836,7.1992,7.1992,7.1992,7.2148,7.2265,7.2265,7.2422,7.2773,7.3437,7.3594,7.3867,7.4726,7.5469,7.5976,7.6133,7.6758,7.7187,7.7187,7.7187,7.7187,7.7187,7.7187,7.7187,7.7187,7.7187,7.7187,7.7187,7.6562,7.6172,7.6172,7.5351,7.4883,7.4883,7.4023,7.3594,7.3594,7.2734,7.2305,7.2304,7.1987,7.1824,4.4289,4.455,4.4764,4.5626,4.6502,4.7829,5.0409,0.0,0.0,5.4061,5.2859,5.191,5.423,5.4181,5.4323,0.0,5.6368,5.6481,0.0,0.0,0.0,0.0,0.0,0.0,0.0,0.0,0.0,0.0,0.0,0.0,0.0,6.2305,6.3672,6.543,6.6328,6.6797,6.6797,6.6875,6.6914,6.6914,6.7695,6.8086,6.8125,6.8906,6.9219,6.918,0.0,0.0,0.0,6.9414,6.9414,6.9414,6.9453,6.9922,7.0586,7.0586,7.1094,7.1758,7.1758,7.1758,7.1758,7.1758,7.1211,7.0586,7.0586,7.1133,7.1797,7.1875,7.1875,7.1914,7.1992,7.1992,7.1992,7.1992,7.2617,7.3164,7.3164,7.3789,7.4375,7.4453,7.4492,7.4765,7.5625,7.5859,7.6172,7.6953,7.7148,7.7187,7.7187,7.7187,7.7187,7.7187,7.7187,7.7187,7.7187,7.7187,7.7187,7.7187,7.7109,7.707,7.707,7.625,7.5781,7.5781,7.4922,7.4492,7.4492,7.4375,7.4336,7.4297,7.3319,7.2873,4.5587,4.5542,4.566,4.6099,4.7664,4.9346,5.0428,0.0,5.2652,5.4053,5.3882,5.3821,5.4823,5.5264,5.5701,5.6394,5.6575,5.6601,5.6601,0.0,0.0,0.0,0.0,0.0,0.0,0.0,0.0,0.0,0.0,0.0,0.0,0.0,6.457,6.6328,6.6719,6.6914,6.6914,6.7422,6.7695,6.7695,6.8555,6.8945,6.8945,6.9297,6.9453,0.0,0.0,0.0,0.0,7.0742,7.0976,7.0976,7.0976,7.1211,7.1484,7.1484,7.1719,7.1992,7.1992,7.1992,7.1992,7.1992,7.1758,7.1484,7.1484,7.1719,7.1992,7.1992,7.1992,7.1992,7.1992,7.2383,7.289,7.3437,7.3828,7.4062,7.4062,7.4375,7.4765,7.5273,7.539,7.5664,7.6523,7.668,7.6797,7.7148,7.7187,7.7187,7.7187,7.7187,7.7187,7.7187,7.7187,7.7187,7.7187,7.7187,7.7187,7.7187,7.7187,7.7187,7.7187,7.6875,7.668,7.668,7.582,7.539,7.539,7.4844,7.4609,7.4609,7.414,7.3978,4.7066,4.6538,4.6162,4.628,4.8281,5.0273,5.0508,5.2266,5.4023,5.4531,5.4702,5.4918,5.5461,5.5906,5.6289,5.6562,5.6601,5.668,5.6953,5.75,0.0,0.0,0.0,0.0,0.0,0.0,0.0,0.0,0.0,0.0,0.0,0.0,6.5469,6.7226,6.7265,6.7383,6.7656,6.8242,6.8555,6.8594,6.9453,6.9844,6.9805,7.0039,7.0195,0.0,0.0,0.0,0.0,7.1758,7.1992,7.1992,7.1992,7.1992,7.1992,7.1992,7.1992,7.1992,7.1992,7.1992,7.1992,7.1992,7.1992,7.2031,7.2305,7.2187,7.2031,7.2305,7.2578,7.2773,7.2773,7.3203,7.3828,7.4453,7.4805,7.4961,7.4961,7.5195,7.5547,7.6172,7.6289,7.6484,7.7109,7.7187,7.7187,7.7187,7.7187,7.7187,7.7187,7.7187,7.7187,7.7187,7.7187,7.7187,7.7187,7.7187,7.7187,7.7187,7.7187,7.7187,7.7187,7.7187,7.7187,7.7187,7.6601,7.6289,7.6289,7.5664,7.5351,7.5351,7.5117,7.4961,4.8844,4.7617,4.6289,4.6289,4.8281,5.0391,5.1211,5.2734,5.4492,5.6211,5.5195,5.4531,5.6289,5.5898,5.5586,5.6445,5.6601,5.6914,5.7773,5.789,0.0,0.0,0.0,0.0,0.0,0.0,0.0,0.0,0.0,0.0,0.0,0.0,6.6406,6.8125,6.8203,6.8555,6.9375,6.9375,6.9414,6.9492,7.0312,7.0703,7.0703,7.1562,0.0,0.0,0.0,0.0,0.0,7.1992,7.1992,7.1992,7.1992,7.1992,7.1992,7.1992,7.1992,7.1992,7.1992,7.1992,7.1992,7.1992,7.1992,7.2148,7.3008,7.2695,7.2187,7.3047,7.3906,7.457,7.457,7.457,7.4609,7.4609,7.5273,7.5898,7.5898,7.6562,7.7187,7.7187,7.7187,7.7187,7.7187,7.7187,7.7187,7.7187,7.7187,7.7187,7.7187,7.7187,7.7187,7.7187,7.7187,7.7187,7.7187,7.7187,7.7187,7.7187,7.7187,7.7187,7.7187,7.7187,7.7187,7.7187,7.7187,7.7187,7.7187,7.7187,7.7187,7.7148,7.6289,7.5898,5.0779,5.0195,4.9805,4.9805,5.1289,5.2851,5.3125,5.4531,5.5937,5.6484,5.6172,5.5937,5.6484,5.6367,5.668,5.8125,5.8398,5.8672,0.0,0.0,0.0,0.0,0.0,0.0,0.0,0.0,0.0,0.0,0.0,0.0,0.0,0.0,0.0,6.8164,6.8711,6.914,6.9453,7.0,7.0312,7.0312,7.1172,7.1601,7.1601,0.0,0.0,0.0,0.0,0.0,0.0,7.1992,7.1992,7.1992,7.1992,7.1992,7.1992,7.1992,7.1992,7.2109,7.2695,7.289,7.3008,7.3594,7.3789,7.3828,7.4101,7.3594,7.3086,7.3945,7.4375,7.4726,7.5312,7.5508,7.5625,7.625,7.6601,7.6797,7.6797,7.6992,7.7187,7.7187,7.7187,7.7187,7.7187,7.7187,7.7187,7.7187,7.7187,7.7187,7.7187,7.7187,7.7187,7.7187,7.7187,7.7187,7.7187,7.7187,7.7187,7.7187,7.7187,7.7187,7.7187,7.7187,7.7187,7.7187,7.7187,7.7187,7.7187,7.7187,7.7187,7.7187,7.6914,7.6797,5.1875,5.1641,5.1406,5.1406,5.2695,5.3984,5.3984,5.5351,5.6601,5.6601,5.6601,5.6601,5.6601,5.6601,5.6953,5.8047,5.8476,5.8867,0.0,0.0,0.0,0.0,0.0,0.0,0.0,0.0,0.0,0.0,0.0,0.0,0.0,0.0,0.0,6.8633,6.9453,7.0078,7.043,7.0937,7.1172,7.1211,7.1758,7.1992,7.1992,0.0,0.0,0.0,0.0,0.0,0.0,7.1992,7.2187,7.25,7.25,7.2695,7.2969,7.2969,7.2969,7.3047,7.3594,7.3789,7.3867,7.4414,7.4805,7.5078,7.5078,7.4726,7.4375,7.4922,7.5312,7.5703,7.625,7.6406,7.6523,7.707,7.7187,7.7187,7.7187,7.7187,7.7187,7.7187,7.7187,7.7187,7.7187,7.7187,7.7187,7.7187,7.7187,7.7187,7.7187,7.7187,7.7187,7.7187,7.7187,7.7187,7.7187,7.7187,7.7187,7.7187,7.7187,7.7187,7.7187,7.7187,7.7187,7.7187,7.7187,7.7187,7.7187,7.7187,7.7187,7.7187,7.7187,7.7187,0.0,5.2148,5.1601,5.1758,5.3008,5.418,5.418,5.543,0.0,5.6601,5.6601,5.6601,5.6601,5.6601,5.664,5.6758,5.75,5.8086,5.8164,5.9492,0.0,0.0,0.0,0.0,0.0,0.0,0.0,0.0,0.0,0.0,0.0,0.0,0.0,0.0,7.0232,7.1091,7.1992,7.1992,7.1992,7.1992,7.1992,7.1992,7.1992,0.0,0.0,0.0,0.0,0.0,0.0,7.2187,7.2656,7.3398,7.3398,7.3906,7.4609,7.4609,7.4609,7.4609,7.4687,7.4687,7.4687,7.4765,7.5312,7.5976,7.5976,7.5976,7.5976,7.5976,7.6562,7.7187,7.7187,7.7187,7.7187,7.7187,7.7187,7.7187,7.7187,7.7187,7.7187,7.7187,7.7187,7.7187,7.7187,7.7187,7.7187,7.7187,7.7187,7.7187,7.7187,7.7187,7.7187,7.7187,7.7187,7.7187,7.7187,7.7187,7.7187,7.7187,7.7187,7.7187,7.7187,7.7187,7.7187,7.7187,7.7187,7.7187,7.7187,7.7187,7.7187,7.7187,7.7187,7.7187,5.207,0.0,5.3711,5.5039,5.5703,5.5976,0.0,5.6328,5.6601,5.6601,5.6601,5.6601,5.6601,5.6601,5.7031,5.8359,5.9297,6.0039,6.0703,0.0,0.0,0.0,0.0,0.0,0.0,0.0,0.0,0.0,0.0,0.0,0.0,0.0,0.0,0.0,7.0148,7.099,7.1992,7.1992,7.1992,7.1992,7.1992,7.1992,0.0,0.0,0.0,0.0,0.0,0.0,0.0,7.3984,7.4101,7.4297,7.4297,7.4414,7.4609,7.4609,7.4609,7.4687,7.5351,7.5586,7.5703,7.6367,7.6719,7.6875,7.6875,7.6875,7.6875,7.6875,7.7031,7.7187,7.7187,7.7187,7.7187,7.7187,7.7187,7.7187,7.7187,7.7187,7.7187,7.7187,7.7187,7.7187,7.7187,7.7187,7.7187,7.7187,7.7187,7.7187,7.7187,7.7187,7.7187,7.7187,7.7187,7.7187,7.7187,7.7187,7.7187,7.7187,7.7187,7.7187,7.7187,7.7187,7.7187,7.7187,7.7187,7.7187,7.7187,7.7187,7.7187,7.7187,7.7187,7.7187,5.1289,5.3047,5.4414,5.6172,5.6601,5.6601,5.6601,5.6601,5.6601,5.6601,5.6601,5.6601,5.6601,5.6601,5.7031,5.8398,5.9297,6.0547,6.2617,0.0,0.0,0.0,0.0,0.0,0.0,0.0,0.0,0.0,0.0,0.0,0.0,0.0,0.0,0.0,0.0,7.0834,7.1835,7.1807,7.2006,7.2461,7.2354,7.2578,0.0,0.0,0.0,0.0,0.0,0.0,7.4311,7.4311,7.4627,7.5078,7.5078,7.5351,7.5781,7.5781,7.5781,7.5859,7.6328,7.6484,7.6562,7.7031,7.7187,7.7187,7.7187,7.7187,7.7187,7.7187,7.7187,7.7187,7.7187,7.7187,7.7187,7.7187,7.7187,7.7187,7.7187,7.7187,7.7187,7.7187,7.7187,7.7187,7.7187,7.7187,7.7187,7.7187,7.7187,7.7187,7.7187,7.7187,7.7187,7.7187,7.7187,7.7187,7.7187,7.7187,7.7187,7.7187,7.7187,7.7187,7.7187,7.7187,7.7187,7.7187,7.7187,7.7187,7.7187,7.7187,7.7187,7.7187,7.7187,7.7187,5.0469,5.2461,5.4101,5.6094,5.6601,5.6601,5.6601,5.6601,5.6601,5.6601,5.6601,5.6601,5.6601,5.6836,5.7226,5.7969,5.8945,6.0586,6.3515,6.3906,0.0,0.0,0.0,0.0,0.0,0.0,0.0,0.0,0.0,0.0,0.0,0.0,0.0,0.0,0.0,0.0,7.2041,7.1804,7.2172,7.3134,7.2974,7.3394,7.4255,0.0,0.0,0.0,0.0,0.0,7.4489,7.4489,7.5039,7.5833,7.5858,7.6406,7.7187,7.7187,7.7187,7.7187,7.7187,7.7187,7.7187,7.7187,7.7187,7.7187,7.7187,7.7187,7.7187,7.7187,7.7187,7.7187,7.7187,7.7187,7.7187,7.7187,7.7187,7.7187,7.7187,7.7187,7.7187,7.7187,7.7187,7.7187,7.7187,7.7187,7.7187,7.7187,7.7187,7.7187,7.7187,7.7187,7.7187,7.7187,7.7187,7.7187,7.7187,7.7187,7.7187,7.7187,7.7187,7.7187,7.7187,7.7187,7.7187,7.7187,7.7187,7.7187,7.7187,7.7187,7.7187,7.7187,7.7187,7.7187,5.0469,5.1601,5.2578,5.5781,5.6601,5.6601,5.6601,5.6601,5.6601,5.6601,5.6601,5.6601,5.6601,5.7812,5.8828,5.8984,6.0312,6.1484,0.0,0.0,0.0,0.0,0.0,0.0,0.0,0.0,0.0,0.0,0.0,0.0,0.0,0.0,0.0,0.0,0.0,0.0,0.0,7.2866,7.2932,7.3828,7.3816,7.3898,7.4072,7.4791,0.0,0.0,0.0,0.0,7.6712,7.6712,7.6804,7.6924,7.6933,7.707,7.7187,7.7187,7.7187,7.7187,7.7187,7.7187,7.7187,7.7187,7.7187,7.7187,7.7187,7.7187,7.7187,7.7187,7.7187,7.7187,7.7187,7.7187,7.7187,7.7187,7.7187,7.7187,7.7187,7.7187,7.7187,7.7187,7.7187,7.7187,7.7187,7.7187,7.7187,7.7187,7.7187,7.7187,7.7187,7.7187,7.7187,7.7187,7.7187,7.7187,7.7187,7.7187,7.7187,7.7187,7.7187,7.7187,7.7187,7.7187,7.7187,7.7187,7.7187,7.7187,7.7187,7.7187,7.7187,7.7187,7.7187,7.7187,5.0469,5.1406,5.2226,5.5742,5.6601,5.6484,5.6015,5.625,5.6601,5.6601,5.6601,5.6601,5.6601,5.7656,5.8775,5.9577,0.0,0.0,0.0,0.0,0.0,0.0,0.0,0.0,0.0,0.0,0.0,0.0,0.0,0.0,0.0,0.0,0.0,0.0,0.0,0.0,0.0,7.386,7.4235,7.4868,7.4625,7.4885,7.5592,7.5861,7.6053,0.0,0.0,7.6803,7.688,7.688,7.693,7.7025,7.704,7.7112,7.7187,7.7187,7.7187,7.7187,7.7187,7.7187,7.7183,7.7053,7.7042,7.701,7.6907,7.6864,7.6864,7.6864,7.7048,7.7187,7.7187,7.7187,7.7187,7.7187,7.7187,7.7187,7.7187,7.7187,7.7187,7.7187,7.7187,7.7187,7.7187,7.7187,7.7187,7.7187,7.7187,7.7187,7.7187,7.7187,7.7187,7.7187,7.7187,7.7187,7.7187,7.7187,7.7187,7.7187,7.7187,7.7187,7.7187,7.7187,7.7187,7.7187,7.7187,7.7187,7.7187,7.7187,7.7187,7.7187,7.7187,7.7187,5.0234,5.125,5.2148,5.5234,5.6289,5.6445,5.5742,5.6133,5.6599,5.6606,5.6592,5.6592,5.6782,5.7879,0.0,6.0864,0.0,0.0,0.0,0.0,0.0,0.0,0.0,0.0,0.0,0.0,0.0,0.0,0.0,0.0,0.0,0.0,0.0,0.0,0.0,0.0,0.0,7.4745,7.5418,7.5782,7.5451,7.5825,7.675,7.6534,7.6514,7.6585,7.6591,7.6638,7.6747,7.6708,7.6776,7.6919,7.6854,7.6932,7.7055,7.7055,7.7055,7.7055,7.7055,7.7055,7.7023,7.6863,7.6839,7.6812,7.6671,7.6591,7.6591,7.6591,7.6819,7.7056,7.7048,7.7055,7.7055,7.7055,7.7055,7.7055,7.7055,7.7106,7.7148,7.7148,7.7187,7.7187,7.7187,7.7187,7.7187,7.7187,7.7187,7.7187,7.7187,7.7187,7.7187,7.7187,7.7187,7.7187,7.7187,7.7187,7.7187,7.7187,7.7187,7.7187,7.7187,7.7187,7.7187,7.7187,7.7187,7.7187,7.7187,7.7187,7.7187,7.7187,7.7187,7.7187,4.957,5.082,5.1836,5.3711,5.539,5.6562,5.6523,5.6562,5.6614,5.6609,5.6502,5.6636,0.0,5.9562,6.1793,6.3552,0.0,0.0,0.0,0.0,0.0,0.0,0.0,0.0,0.0,0.0,0.0,0.0,0.0,0.0,0.0,0.0,0.0,0.0,0.0,0.0,0.0,0.0,7.6015,7.6236,7.6227,7.6245,7.6341,7.6121,7.6273,7.6615,7.6606,7.6807,7.713,7.6976,7.691,7.6871,7.6691,7.6621,7.6624,7.6624,7.6624,7.6624,7.6624,7.6624,7.665,7.663,7.6626,7.6621,7.6601,7.6601,7.6601,7.6601,7.6619,7.6649,7.6638,7.6624,7.6624,7.6624,7.6624,7.6624,7.6624,7.6777,7.6914,7.6914,7.707,7.7187,7.7187,7.7187,7.7187,7.7187,7.7187,7.7187,7.7187,7.7187,7.7187,7.7187,7.7187,7.7187,7.7187,7.7187,7.7187,7.7187,7.7187,7.7187,7.7187,7.7187,7.7187,7.7187,7.7187,7.7187,7.7187,7.7187,7.7187,7.7187,7.7187,7.7187,4.8591,5.0256,5.1797,5.3476,5.5234,5.6473,5.5936,5.6149,5.6606,5.7131,5.712,0.0,0.0,0.0,6.114,0.0,0.0,0.0,0.0,0.0,0.0,0.0,0.0,0.0,0.0,0.0,0.0,0.0,0.0,0.0,0.0,0.0,0.0,0.0,0.0,0.0,0.0,0.0,7.5707,7.6313,7.6289,7.6355,7.6482,7.6409,7.6453,7.6591,7.6588,7.6682,7.6826,7.6749,7.6683,7.6727,7.6649,7.6606,7.6606,7.6606,7.6606,7.6606,7.6606,7.6606,7.6567,7.6451,7.6391,7.6361,7.6245,7.6207,7.6207,7.6207,7.6207,7.6293,7.6557,7.6606,7.6606,7.6606,7.6606,7.6606,7.6606,7.6746,7.6894,7.6907,7.707,7.7187,7.7187,7.7187,7.7187,7.7187,7.7187,7.7187,7.7187,7.7187,7.7187,7.7187,7.7187,7.7187,7.7187,7.7187,7.7187,7.7187,7.7187,7.7187,7.7187,7.7187,7.7187,7.7187,7.7187,7.7187,7.7187,7.7187,7.7187,7.7187,7.7187,7.7187,4.8544,5.0509,5.2498,5.3865,5.556,5.6777,5.6233,5.6263,5.6626,5.7367,5.8105,5.9177,6.0988,0.0,0.0,0.0,0.0,0.0,0.0,0.0,0.0,0.0,0.0,0.0,0.0,0.0,0.0,0.0,0.0,0.0,0.0,0.0,0.0,0.0,0.0,0.0,0.0,0.0,7.563,7.6207,7.6185,7.6301,7.6506,7.6438,7.6438,7.6534,7.6527,7.6517,7.6594,7.6517,7.6459,7.6399,7.6399,7.6399,7.6399,7.6399,7.6399,7.6399,7.6399,7.6399,7.6361,7.6245,7.6207,7.6169,7.6053,7.6015,7.6015,7.6015,7.6015,7.6053,7.6322,7.6399,7.6399,7.6399,7.6399,7.6399,7.6399,7.6621,7.6814,7.6794,7.7024,7.7187,7.7187,7.7187,7.7187,7.7187,7.7187,7.7187,7.7187,7.7187,7.7187,7.7187,7.7187,7.7187,7.7187,7.7187,7.7187,7.7187,7.7187,7.7187,7.7187,7.7187,7.7187,7.7187,7.7187,7.7187,7.7187,7.7187,7.7187,7.7187,7.7187,7.7187,4.9562,5.1746,5.3994,5.4864,5.6341,5.7636,5.7863,5.7131,5.6648,5.7297,5.9511,6.1228,6.1058,0.0,0.0,0.0,0.0,0.0,0.0,0.0,0.0,0.0,0.0,0.0,0.0,0.0,0.0,0.0,0.0,0.0,0.0,0.0,0.0,0.0,0.0,0.0,0.0,0.0,7.5976,7.6015,7.6015,7.6092,7.6284,7.6092,7.6092,7.6284,7.6284,7.6399,7.6583,7.6361,7.6169,7.6015,7.6015,7.6015,7.6015,7.6015,7.6015,7.6015,7.6015,7.6015,7.6015,7.6015,7.6015,7.6015,7.6015,7.6015,7.6015,7.6015,7.6015,7.6015,7.6015,7.6015,7.6015,7.6015,7.6015,7.6015,7.6015,7.6284,7.6584,7.6621,7.6933,7.7187,7.7187,7.7187,7.7187,7.7187,7.7187,7.7187,7.7187,7.7187,7.7187,7.7226,7.7226,7.7226,7.7226,7.7226,7.7226,7.7226,7.7226,7.7226,7.7187,7.7187,7.7187,7.7187,7.7226,7.7226,7.7226,7.7226,7.7226,7.7226,7.7226,7.7226,4.8523,5.0275,5.2377,5.4467,5.6233,5.7589,5.8175,5.8649,5.9172,0.0,6.065,6.1304,6.1982,0.0,0.0,0.0,0.0,0.0,0.0,0.0,0.0,0.0,0.0,0.0,0.0,0.0,0.0,0.0,0.0,0.0,0.0,0.0,0.0,0.0,0.0,0.0,0.0,0.0,0.0,7.6015,7.6015,7.6015,7.6092,7.6015,7.6015,7.6092,7.6092,7.613,7.6169,7.6092,7.6053,7.6015,7.6015,7.6015,7.6015,7.6015,7.6015,7.6015,7.6015,7.6015,7.6015,7.6015,7.6015,7.6015,7.6015,7.6015,7.6015,7.6015,7.6015,7.6015,7.6015,7.6015,7.6015,7.6015,7.6015,7.6015,7.6015,7.6207,7.643,7.6582,7.6816,7.7031,7.7187,7.7187,7.7187,7.7187,7.7187,7.7187,7.7187,7.7187,7.7422,7.8047,7.8125,7.8359,7.8906,7.8945,7.8945,7.8945,7.8945,7.8437,7.7265,7.7187,7.7187,7.7187,7.7812,7.8125,7.8125,7.8672,7.8945,7.8945,7.8945,7.8945,4.9912,5.1837,5.3899,5.5437,5.683,5.8136,5.9271,0.0,0.0,0.0,0.0,0.0,0.0,0.0,0.0,0.0,0.0,0.0,0.0,0.0,0.0,0.0,0.0,0.0,0.0,0.0,0.0,0.0,0.0,0.0,0.0,0.0,0.0,0.0,0.0,0.0,0.0,0.0,0.0,0.0,7.6015,7.6015,7.6015,7.6015,7.6015,7.6015,7.6015,7.6015,7.6015,7.6015,7.6015,7.6015,7.6015,7.6015,7.6015,7.6015,7.6015,7.6015,7.6015,7.6015,7.6015,7.6015,7.6015,7.6015,7.6015,7.6015,7.6015,7.6015,7.6015,7.6015,7.6015,7.6015,7.6015,7.6015,7.6015,7.6015,7.6015,7.6169,7.6349,7.6471,7.6624,7.6848,7.703,7.7383,7.7617,7.7695,7.8008,7.8203,7.8203,7.8203,7.8398,7.8906,7.8984,7.918,7.9648,7.9687,7.9687,7.9687,7.9687,7.9258,7.8242,7.8203,7.8203,7.8203,7.8711,7.8984,7.8984,7.9453,7.9687,7.9687,7.9687,7.9687,5.2741,5.5053,5.7047,5.7366,5.8088,5.9127,6.0704,6.0319,5.9665,5.9742,0.0,0.0,0.0,0.0,0.0,0.0,0.0,0.0,0.0,0.0,0.0,0.0,0.0,0.0,0.0,0.0,0.0,0.0,0.0,0.0,0.0,0.0,0.0,0.0,0.0,0.0,0.0,0.0,0.0,0.0,0.0,7.6015,7.6015,7.6015,7.6015,7.6015,7.6015,7.6015,7.6015,7.6015,7.6015,7.6015,7.6015,7.6015,7.6015,7.6015,7.6015,7.6015,7.6015,7.6015,7.6015,7.6015,7.6015,7.6015,7.6015,7.6053,7.613,7.613,7.6169,7.6245,7.6245,7.6245,7.6245,7.6245,7.6169,7.613,7.6207,7.6361,7.6515,7.6515,7.6682,7.6871,7.7087,7.7764,7.835,7.8512,7.9176,7.9645,7.9645,7.9645,7.9684,7.9762,7.9765,7.9805,7.9883,7.9922,7.9922,7.9922,7.9922,7.9922,7.9922,7.9765,7.9687,7.9687,7.9765,7.9805,7.9805,7.9883,7.9922,7.9922,7.9922,7.9922,5.2702,5.4226,5.573,5.8473,5.9742,6.0396,6.0781,6.0704,6.0781,6.1751,0.0,0.0,0.0,0.0,0.0,0.0,0.0,0.0,0.0,0.0,0.0,0.0,0.0,0.0,0.0,0.0,0.0,0.0,0.0,0.0,0.0,0.0,0.0,0.0,0.0,0.0,0.0,0.0,0.0,0.0,7.6015,7.6015,7.6015,7.6015,7.6015,7.6015,7.6015,7.6015,7.6015,7.6015,7.6015,7.6015,7.6015,7.6015,7.6015,7.6015,7.6015,7.6015,7.6015,7.6015,7.6015,7.6015,7.6015,7.6015,7.6015,7.6476,7.7015,7.7015,7.7476,7.7938,7.7938,7.7938,7.7938,7.7938,7.7476,7.7169,7.7823,7.7977,7.8054,7.8237,7.842,7.8644,7.8805,7.9013,7.9111,7.8974,7.9104,7.922,7.922,7.922,7.9493,8.0195,8.0397,8.0742,8.1445,8.164,8.1758,8.1758,8.1758,8.1758,8.1758,8.0429,7.9687,7.9687,8.0351,8.0703,8.0703,8.1406,8.1758,8.1758,8.1758,8.1758,5.3087,5.478,5.6319,5.895,5.9896,6.0165,6.0165,6.0512,6.1089,0.0,0.0,0.0,0.0,0.0,0.0,0.0,0.0,0.0,0.0,0.0,0.0,0.0,0.0,0.0,0.0,0.0,0.0,0.0,0.0,0.0,0.0,0.0,0.0,0.0,0.0,0.0,7.5322,7.5784,7.6015,7.6015,7.6015,7.6015,7.6015,7.6015,7.6015,7.6015,7.6015,7.6015,7.6015,7.6015,7.6015,7.6015,7.6015,7.6015,7.6015,7.6015,7.6015,7.6015,7.6015,7.6015,7.6015,7.6015,7.6015,7.6092,7.6515,7.6938,7.7361,7.7746,7.8169,7.8477,7.8477,7.8477,7.8592,7.9015,7.8477,7.7977,7.84,7.8477,7.8554,7.8776,7.8815,7.8921,7.9191,7.9592,7.9981,8.0314,8.0322,8.0322,8.0322,8.0322,8.0516,8.0965,8.1134,8.141,8.1952,8.2109,8.2187,8.2304,8.2304,8.2304,8.2304,8.1445,8.0937,8.0937,8.1406,8.1601,8.1601,8.207,8.2304,8.2304,8.2304,8.2304,5.3395,5.5818,5.778,5.9358,5.9858,0.0,5.9935,6.0627,6.1473,0.0,0.0,0.0,0.0,0.0,0.0,0.0,0.0,0.0,0.0,0.0,0.0,0.0,0.0,0.0,0.0,0.0,0.0,0.0,0.0,0.0,0.0,0.0,0.0,0.0,0.0,0.0,7.5976,7.6015,7.6015,7.6015,7.6015,7.6015,7.6015,7.6015,7.6015,7.6015,7.6015,7.6015,7.6015,7.6015,7.6015,7.6015,7.6015,7.6015,7.6015,7.6015,7.6015,7.6015,7.6015,7.6092,7.6207,7.6207,7.6322,7.6553,7.7284,7.7592,7.7861,7.8554,7.8823,7.8938,7.8938,7.8938,7.9131,7.9862,7.9477,7.8938,7.8938,7.8938,7.8977,7.9161,7.9122,7.9092,7.9469,8.0092,8.0823,8.1477,8.1593,8.1593,8.1593,8.1593,8.1593,8.1593,8.1662,8.1708,8.189,8.1948,8.207,8.2226,8.2265,8.2304,8.2304,8.2304,8.2304,8.2304,8.2304,8.2304,8.2304,8.2304,8.2304,8.2304,8.2304,8.2304,5.2664,5.6203,5.9396,6.0358,6.1166,6.1743,0.0,0.0,0.0,0.0,0.0,0.0,0.0,0.0,0.0,0.0,0.0,0.0,0.0,0.0,0.0,0.0,0.0,0.0,0.0,0.0,0.0,0.0,0.0,0.0,0.0,0.0,0.0,0.0,0.0,0.0,7.5976,7.6015,7.6015,7.6015,7.6015,7.6015,7.6015,7.6015,7.6015,7.6015,7.6015,7.6015,7.6015,7.6015,7.6015,7.6015,7.6015,7.6015,7.6015,7.6015,7.6015,7.6015,7.6015,7.6476,7.713,7.713,7.7592,7.8169,7.8284,7.8861,7.9477,7.9592,8.0169,8.0746,8.0746,8.0746,8.0785,8.09,8.0823,8.0746,8.0746,8.0746,8.0746,8.0785,8.09,8.1016,8.1054,8.117,8.1246,8.117,8.117,8.117,8.117,8.117,8.117,8.117,8.1323,8.1454,8.1462,8.1811,8.1992,8.2031,8.2187,8.2304,8.2304,8.2304,8.2304,8.2304,8.2304,8.2304,8.2304,8.2304,8.2304,8.2304,8.2304,8.2304,5.351,5.7011,5.9819,6.1166,6.1435,6.1627,6.2551,0.0,0.0,0.0,0.0,0.0,0.0,0.0,0.0,0.0,0.0,0.0,0.0,0.0,0.0,0.0,0.0,0.0,0.0,0.0,0.0,0.0,0.0,0.0,0.0,7.2668,7.3476,7.4668,7.5168,0.0,7.6015,7.6015,7.6015,7.6015,7.6015,7.6015,7.6015,7.6015,7.6015,7.6015,7.6015,7.6015,7.6015,7.6015,7.6015,7.6015,7.6015,7.6015,7.6053,7.6553,7.6746,7.6784,7.7246,7.763,7.7977,7.7977,7.8207,7.8592,7.9092,7.9515,7.99,8.04,8.0785,8.1093,8.1093,8.1093,8.1093,8.1093,8.1093,8.1093,8.1093,8.1093,8.1093,8.1093,8.1246,8.1362,8.1246,8.1208,8.1208,8.1093,8.1093,8.1093,8.1093,8.1093,8.1093,8.1093,8.117,8.1285,8.1362,8.1685,8.187,8.1991,8.2187,8.2304,8.2304,8.2304,8.2304,8.2304,8.2304,8.2304,8.2304,8.2304,8.2304,8.2304,8.2304,8.2304,5.4203,5.7088,5.9319,6.1281,6.1589,6.1743,0.0,0.0,0.0,0.0,0.0,0.0,0.0,0.0,0.0,0.0,0.0,0.0,0.0,0.0,0.0,0.0,0.0,0.0,0.0,0.0,0.0,0.0,0.0,0.0,0.0,7.336,7.4168,7.5014,7.5668,7.6015,7.6015,7.6015,7.6015,7.6015,7.6015,7.6015,7.6015,7.6015,7.6015,7.6015,7.6015,7.6015,7.6015,7.6015,7.6015,7.6015,7.6245,7.6322,7.6438,7.7284,7.7592,7.7669,7.8284,7.8631,7.8823,7.8823,7.8977,7.9285,7.9939,8.0131,8.0285,8.0939,8.1093,8.1093,8.1093,8.1093,8.1093,8.1093,8.1093,8.1093,8.1093,8.1093,8.1093,8.1093,8.1208,8.1285,8.1131,8.1093,8.1093,8.1093,8.1093,8.1093,8.1093,8.1093,8.1093,8.1093,8.1093,8.117,8.1285,8.1516,8.1717,8.192,8.2106,8.2265,8.2304,8.2304,8.2304,8.2304,8.2304,8.2304,8.2304,8.2304,8.2304,8.2304,8.2304,8.2304,5.3818,5.5818,5.7742,6.0242,6.2012,6.3205,0.0,0.0,0.0,0.0,0.0,0.0,0.0,0.0,0.0,0.0,0.0,0.0,0.0,0.0,0.0,0.0,0.0,0.0,0.0,0.0,0.0,0.0,0.0,0.0,7.3399,7.4207,7.5053,7.5899,7.5976,7.6015,7.6015,7.6015,7.6015,7.6015,7.6015,7.6015,7.6015,7.6015,7.6015,7.6015,7.6015,7.6015,7.6015,7.6015,7.6015,7.6092,7.6899,7.7207,7.7323,7.813,7.8438,7.8438,7.8477,7.9054,7.9746,7.9746,8.0285,8.0977,8.1016,8.1016,8.1054,8.1093,8.1093,8.1093,8.1093,8.1093,8.1093,8.1093,8.1093,8.1093,8.1093,8.1093,8.1093,8.1093,8.1093,8.1093,8.1093,8.1093,8.1093,8.1093,8.1093,8.1093,8.1093,8.1093,8.1093,8.1093,8.1093,8.1093,8.1093,8.1285,8.1478,8.1695,8.1915,8.2109,8.2304,8.2304,8.2304,8.2304,8.2304,8.2304,8.2304,8.2304,8.2304,8.2304,8.2304,8.2304,5.3933,5.5703,5.7473,5.9473,6.1243,6.2666,6.3166,0.0,0.0,0.0,0.0,0.0,0.0,0.0,0.0,0.0,0.0,0.0,0.0,0.0,0.0,0.0,0.0,0.0,0.0,0.0,0.0,0.0,0.0,0.0,7.4207,7.4553,7.5091,7.5976,7.6015,7.6015,7.6015,7.6015,7.6015,7.6015,7.6553,7.6823,7.6861,7.7361,7.7592,7.7592,7.7592,7.7323,7.6861,7.74,7.7592,7.763,7.7938,7.8054,7.8169,7.9015,7.9323,7.94,7.9977,8.0362,8.0631,8.0631,8.0862,8.1093,8.1093,8.1093,8.1093,8.1093,8.1093,8.1093,8.1093,8.1093,8.1093,8.1093,8.1093,8.1093,8.1093,8.1093,8.1093,8.1093,8.1093,8.1093,8.1093,8.1093,8.1093,8.1093,8.1093,8.1093,8.1093,8.1093,8.1093,8.1093,8.1093,8.1093,8.1093,8.14,8.1629,8.1685,8.1997,8.2226,8.2304,8.2304,8.2304,8.2304,8.2304,8.2304,8.2304,8.2304,8.2304,8.2304,8.2304,8.2304,5.3664,0.0,0.0,0.0,6.0589,6.1666,6.3358,0.0,0.0,0.0,0.0,0.0,0.0,0.0,0.0,0.0,0.0,0.0,0.0,0.0,0.0,0.0,0.0,0.0,0.0,0.0,0.0,0.0,0.0,0.0,7.463,7.4976,7.5399,7.5976,7.6015,7.6015,7.6015,7.6284,7.6438,7.6438,7.7284,7.7707,7.7707,7.8246,7.8477,7.8515,7.8823,7.8477,7.7746,7.8284,7.8477,7.8515,7.8823,7.8938,7.9054,7.99,8.0246,8.0323,8.09,8.1093,8.1093,8.1093,8.1093,8.1093,8.1093,8.1093,8.1093,8.1093,8.1093,8.1093,8.1093,8.1093,8.1093,8.1093,8.1093,8.1093,8.1093,8.1093,8.1093,8.1093,8.1093,8.1093,8.1093,8.1093,8.1093,8.1093,8.1093,8.1093,8.1093,8.1093,8.1093,8.1093,8.1093,8.1131,8.117,8.1439,8.1662,8.1816,8.2046,8.2234,8.2304,8.2304,8.2304,8.2304,8.2304,8.2304,8.2304,8.2304,8.2304,8.2304,8.2304,8.2461,0.0,0.0,0.0,0.0,0.0,0.0,0.0,0.0,0.0,0.0,0.0,0.0,0.0,0.0,0.0,0.0,0.0,0.0,0.0,0.0,0.0,0.0,0.0,0.0,0.0,0.0,0.0,0.0,0.0,0.0,7.4707,7.5553,7.6015,7.6015,7.6015,7.6015,7.6053,7.6861,7.7323,7.7361,7.813,7.8515,7.8515,7.8554,7.8554,7.8631,7.9477,7.9361,7.8554,7.8554,7.8554,7.8669,7.9515,7.9862,7.9939,8.0785,8.1093,8.1093,8.1093,8.1093,8.1093,8.1093,8.1093,8.1093,8.1093,8.1093,8.1093,8.1093,8.1093,8.1093,8.1093,8.1093,8.1093,8.1093,8.1093,8.1093,8.1093,8.1093,8.1093,8.1093,8.1093,8.1093,8.1093,8.1093,8.1093,8.1093,8.1093,8.1093,8.1093,8.1093,8.1093,8.1093,8.1093,8.117,8.1362,8.1393,8.1578,8.1963,8.1993,8.2122,8.2343,8.2344,8.2344,8.2383,8.2383,8.2383,8.2383,8.2344,8.2304,8.2304,8.2344,8.2773,5.3126,0.0,0.0,0.0,0.0,0.0,0.0,0.0,0.0,0.0,0.0,0.0,0.0,0.0,0.0,0.0,0.0,0.0,0.0,0.0,0.0,0.0,0.0,0.0,0.0,0.0,0.0,0.0,0.0,7.4745,7.5592,7.5861,7.6015,7.6015,7.6015,7.6284,7.6938,7.7169,7.7592,7.8169,7.9015,7.9438,7.9477,8.0092,8.0362,8.04,8.0631,8.0592,8.0362,8.0362,8.0362,8.04,8.0631,8.0746,8.0785,8.1016,8.1093,8.1093,8.1093,8.1093,8.1093,8.1093,8.1093,8.1093,8.1093,8.1093,8.1093,8.1093,8.1093,8.1093,8.1093,8.1093,8.1093,8.1093,8.1093,8.1093,8.1093,8.1093,8.1093,8.1093,8.1093,8.1093,8.1093,8.1093,8.1093,8.1093,8.1093,8.1093,8.1093,8.1093,8.1093,8.1093,8.1093,8.1131,8.117,8.1437,8.164,8.1757,8.2052,8.2534,8.3203,8.3242,8.3554,8.4179,8.4179,8.4179,8.4179,8.289,8.2304,8.2304,8.2969,8.3359,0.0,0.0,0.0,0.0,0.0,0.0,0.0,0.0,0.0,0.0,0.0,0.0,0.0,0.0,0.0,0.0,0.0,0.0,0.0,0.0,0.0,0.0,0.0,0.0,0.0,0.0,0.0,0.0,7.4437,7.5091,7.5938,7.6015,7.6015,7.6015,7.6361,7.6784,7.7284,7.7977,7.8592,7.9054,7.9939,8.0323,8.0362,8.0862,8.1093,8.1093,8.1093,8.1093,8.1093,8.1093,8.1093,8.1093,8.1093,8.1093,8.1093,8.1093,8.1093,8.1093,8.1093,8.1093,8.1093,8.1093,8.1093,8.1093,8.1093,8.1093,8.1093,8.1093,8.1093,8.1093,8.1093,8.1093,8.1093,8.1093,8.1093,8.1093,8.1093,8.1093,8.1093,8.1093,8.1093,8.1093,8.1093,8.1093,8.1093,8.1093,8.1093,8.1093,8.1093,8.1093,8.1093,8.1093,8.1093,8.1285,8.1708,8.2058,8.2416,8.2894,8.3229,8.3594,8.4101,8.414,8.4375,8.4883,8.4883,8.4883,8.4883,8.3867,8.3398,8.3398,8.3906,8.4336,0.0,0.0,0.0,0.0,0.0,0.0,0.0,0.0,0.0,0.0,0.0,0.0,0.0,0.0,0.0,0.0,0.0,0.0,0.0,0.0,0.0,0.0,0.0,0.0,0.0,0.0,0.0,7.4591,7.4784,7.5168,7.5976,7.6015,7.6053,7.613,7.6899,7.74,7.7592,7.9054,7.9862,7.9939,8.0746,8.1093,8.1093,8.1093,8.1093,8.1093,8.1093,8.1093,8.1093,8.1093,8.1093,8.1093,8.1093,8.1093,8.1093,8.1093,8.1093,8.1093,8.1093,8.1093,8.1093,8.1093,8.1093,8.1093,8.1093,8.1093,8.1093,8.1093,8.1093,8.1093,8.1093,8.1093,8.1093,8.1093,8.1093,8.1093,8.1093,8.1093,8.1093,8.1093,8.1093,8.1093,8.1093,8.1093,8.1093,8.1093,8.1093,8.1093,8.1093,8.1246,8.1323,8.1246,8.1323,8.1747,8.2631,8.2971,8.3529,8.4482,8.4765,8.4922,8.5039,8.5039,8.5078,8.5195,8.5195,8.5195,8.5195,8.5,8.4883,8.4883,8.5,8.5469,0.0,0.0,0.0,0.0,0.0,0.0,0.0,0.0,0.0,0.0,0.0,0.0,0.0,0.0,0.0,0.0,0.0,0.0,0.0,0.0,0.0,0.0,0.0,0.0,0.0,0.0,0.0,7.463,7.5361,7.5822,7.5976,7.6015,7.6322,7.7015,7.7207,7.7938,7.9285,7.9631,8.0169,8.0862,8.1016,8.1093,8.1093,8.1093,8.1093,8.1093,8.1093,8.1093,8.1093,8.1093,8.1093,8.1093,8.1093,8.1093,8.1093,8.1093,8.1093,8.1093,8.1093,8.1093,8.1093,8.1093,8.1093,8.1093,8.1093,8.1093,8.1093,8.1093,8.1093,8.1093,8.1093,8.1093,8.1093,8.1093,8.1093,8.1093,8.1093,8.1093,8.1093,8.1093,8.1093,8.1093,8.1093,8.1093,8.1093,8.1093,8.1093,8.1093,8.1093,8.2285,8.2824,8.2131,8.267,8.317,8.3401,8.3593,8.3888,8.4234,8.4507,8.5039,8.5898,8.5937,8.6289,8.6992,8.6992,8.6992,8.6992,8.5586,8.4883,8.4922,8.5625,8.6054,0.0,0.0,0.0,5.5703,0.0,0.0,0.0,0.0,0.0,0.0,0.0,0.0,0.0,0.0,0.0,0.0,0.0,0.0,0.0,0.0,0.0,0.0,0.0,0.0,0.0,0.0,7.4437,7.5284,7.5745,7.6015,7.6015,7.6399,7.6861,7.7284,7.8092,7.8938,7.9785,8.0246,8.0669,8.1093,8.1093,8.1093,8.1093,8.1093,8.1093,8.1093,8.1093,8.1093,8.1093,8.1093,8.1093,8.1093,8.1093,8.1093,8.1093,8.1093,8.1093,8.1093,8.1093,8.1093,8.1093,8.1093,8.1093,8.1093,8.1093,8.1093,8.117,8.1593,8.1708,8.1708,8.1708,8.2016,8.2362,8.2362,8.2362,8.2362,8.2362,8.2362,8.2362,8.2362,8.2362,8.2093,8.1246,8.1093,8.1093,8.1093,8.1093,8.1285,8.1823,8.2901,8.3439,8.2978,8.3324,8.3785,8.4209,8.4439,8.4781,8.5318,8.5643,8.6094,8.664,8.6797,8.7031,8.75,8.75,8.75,8.75,8.6601,8.6211,8.6211,8.664,8.6836,0.0,0.0,0.0,0.0,0.0,5.6472,0.0,0.0,0.0,0.0,0.0,0.0,0.0,0.0,0.0,0.0,0.0,0.0,0.0,0.0,0.0,0.0,0.0,0.0,0.0,0.0,0.0,7.5938,7.5707,7.5668,7.5976,7.6823,7.7361,7.7515,7.9015,7.99,8.0054,8.0746,8.1093,8.1093,8.1093,8.1093,8.1093,8.1093,8.1093,8.1093,8.1093,8.1093,8.1093,8.1093,8.1093,8.1093,8.1093,8.1093,8.1093,8.1093,8.1093,8.1093,8.1093,8.1093,8.1093,8.1093,8.1208,8.1362,8.1516,8.1593,8.1708,8.2362,8.2554,8.2554,8.2554,8.3054,8.3593,8.3593,8.3593,8.3593,8.3593,8.3593,8.3593,8.3593,8.3593,8.317,8.1823,8.1593,8.1554,8.1439,8.1246,8.1516,8.2708,8.3593,8.3978,8.3785,8.3939,8.4362,8.5055,8.5286,8.567,8.644,8.6794,8.7006,8.7109,8.7344,8.75,8.75,8.75,8.75,8.75,8.75,8.75,8.75,8.75,8.75,0.0,0.0,0.0,0.0,5.7434,0.0,0.0,0.0,0.0,0.0,0.0,0.0,0.0,0.0,0.0,0.0,0.0,0.0,0.0,0.0,0.0,0.0,0.0,0.0,0.0,0.0,0.0,0.0,7.463,7.4437,7.5938,7.6823,7.763,7.8323,7.9285,8.0169,8.0939,8.1054,8.1093,8.1093,8.1093,8.1093,8.1093,8.1093,8.1093,8.1093,8.1093,8.1093,8.1093,8.1093,8.1093,8.1093,8.1093,8.1093,8.1093,8.1093,8.1093,8.1093,8.1093,8.1093,8.1093,8.1093,8.1593,8.2324,8.3093,8.3324,8.3324,8.3439,8.3439,8.3439,8.3439,8.3516,8.3593,8.3593,8.3593,8.3593,8.3593,8.3593,8.3593,8.3593,8.3593,8.3516,8.3362,8.3324,8.3131,8.2593,8.1708,8.167,8.3285,8.4863,8.544,8.4439,8.5209,8.5863,8.5978,8.5978,8.6132,8.6478,8.6555,8.6708,8.7108,8.7344,8.75,8.75,8.75,8.75,8.75,8.75,8.75,8.75,8.75,8.75,0.0,0.0,0.0,0.0,0.0,0.0,0.0,0.0,5.628,0.0,0.0,0.0,0.0,0.0,0.0,0.0,0.0,0.0,0.0,0.0,0.0,0.0,0.0,0.0,0.0,0.0,0.0,0.0,0.0,7.4437,7.663,7.7553,7.8361,7.9246,8.0092,8.0746,8.1093,8.1093,8.1093,8.1093,8.1093,8.1093,8.1093,8.1093,8.1093,8.1093,8.1093,8.1093,8.1093,8.1093,8.1362,8.1785,8.1785,8.1516,8.1093,8.1093,8.1093,8.117,8.1631,8.1785,8.1862,8.2401,8.2785,8.3208,8.4093,8.3978,8.3708,8.4209,8.4362,8.4362,8.4362,8.4709,8.5055,8.5055,8.5055,8.5055,8.5055,8.5055,8.5055,8.5055,8.5055,8.5055,8.5055,8.4247,8.3516,8.3247,8.3093,8.3324,8.4247,8.5363,8.594,8.544,8.5824,8.6094,8.6094,8.6094,8.617,8.6247,8.6517,8.6809,8.7108,8.7344,8.75,8.75,8.75,8.75,8.75,8.75,8.75,8.75,8.75,8.75,5.8973,0.0,0.0,0.0,0.0,0.0,0.0,0.0,0.0,0.0,0.0,0.0,0.0,0.0,0.0,0.0,0.0,0.0,0.0,0.0,0.0,0.0,0.0,0.0,0.0,0.0,0.0,0.0,0.0,0.0,7.713,7.8054,7.89,7.9785,8.0669,8.1093,8.1093,8.1093,8.1093,8.1093,8.1093,8.1093,8.1093,8.1093,8.1093,8.1093,8.1323,8.1439,8.1439,8.1439,8.19,8.2631,8.2401,8.2093,8.1785,8.1785,8.1785,8.1862,8.2439,8.267,8.2785,8.367,8.3939,8.4132,8.4978,8.4786,8.4401,8.5055,8.5247,8.5247,8.5247,8.567,8.6094,8.6094,8.6094,8.6094,8.6094,8.6094,8.6094,8.6094,8.6094,8.6094,8.6094,8.5093,8.4286,8.4286,8.4632,8.4939,8.5209,8.5747,8.6094,8.6094,8.6094,8.6094,8.6094,8.6094,8.6094,8.6094,8.6478,8.6815,8.6996,8.7262,8.7422,8.75,8.75,8.75,8.75,8.75,8.75,8.75,8.75,8.75,0.0,0.0,0.0,5.9088,0.0,0.0,0.0,0.0,5.7973,0.0,0.0,0.0,0.0,0.0,0.0,0.0,0.0,0.0,0.0,0.0,0.0,0.0,0.0,0.0,0.0,0.0,0.0,0.0,0.0,0.0,7.7053,7.8054,7.89,7.9785,8.0669,8.1093,8.1093,8.1093,8.1093,8.1093,8.1093,8.1093,8.1093,8.1093,8.1093,8.1131,8.19,8.2247,8.2247,8.2247,8.2747,8.3478,8.2631,8.2785,8.3516,8.3516,8.3516,8.3516,8.3555,8.3555,8.3708,8.4555,8.4863,8.5016,8.5824,8.6055,8.6017,8.6055,8.6055,8.6055,8.6055,8.6094,8.6094,8.6094,8.6094,8.6094,8.6094,8.6094,8.6094,8.6094,8.6094,8.6094,8.6094,8.6055,8.6017,8.6017,8.6017,8.6055,8.6055,8.6094,8.6094,8.6094,8.6094,8.6094,8.6094,8.6094,8.6094,8.6094,8.6363,8.6605,8.6817,8.699,8.7226,8.75,8.75,8.75,8.75,8.75,8.75,8.75,8.75,8.75,0.0,0.0,6.5743,6.1781,0.0,0.0,0.0,0.0,0.0,0.0,0.0,0.0,0.0,0.0,0.0,0.0,0.0,0.0,0.0,0.0,0.0,0.0,0.0,0.0,0.0,0.0,0.0,0.0,0.0,0.0,0.0,7.8361,7.9169,8.0592,8.0939,8.1093,8.1093,8.1093,8.1093,8.1093,8.1093,8.0785,8.0246,8.0823,8.0785,8.0285,8.1131,8.1516,8.1516,8.1516,8.1977,8.2747,8.3054,8.367,8.4401,8.3824,8.3593,8.367,8.4247,8.4824,8.5286,8.5593,8.5709,8.567,8.5401,8.5324,8.5324,8.5324,8.5324,8.544,8.5978,8.6094,8.6094,8.6094,8.6094,8.6094,8.6094,8.6094,8.6094,8.6094,8.6094,8.6094,8.6094,8.6094,8.6094,8.6094,8.6094,8.6094,8.6094,8.6094,8.6094,8.6094,8.6094,8.6094,8.6094,8.6094,8.6094,8.6094,8.6363,8.6531,8.6605,8.6912,8.7148,8.7226,8.7422,8.75,8.75,8.75,8.75,8.75,8.75,8.75,6.6128,6.7167,0.0,0.0,6.3397,0.0,5.9165,0.0,0.0,0.0,0.0,0.0,0.0,0.0,0.0,0.0,0.0,0.0,0.0,6.155,0.0,0.0,0.0,0.0,0.0,0.0,0.0,0.0,0.0,0.0,0.0,0.0,7.9285,8.1054,8.1093,8.1093,8.1093,8.1093,8.1093,8.1093,8.14,8.1093,8.0285,8.1131,8.1054,8.0323,8.117,8.1516,8.1516,8.1516,8.2016,8.2785,8.3016,8.3862,8.4863,8.4593,8.4478,8.4555,8.5132,8.567,8.6055,8.5786,8.567,8.5517,8.4709,8.4439,8.4439,8.4439,8.467,8.5016,8.5555,8.5901,8.6094,8.6094,8.6094,8.6094,8.6094,8.6094,8.6094,8.6094,8.6094,8.6094,8.6094,8.6094,8.6094,8.6094,8.6094,8.6094,8.6094,8.6094,8.6094,8.6094,8.6094,8.6094,8.6094,8.6094,8.6094,8.6094,8.6247,8.6401,8.6478,8.6807,8.687,8.664,8.7226,8.7344,8.7031,8.7344,8.75,8.75,8.75,8.75]},{"header":{"parameterUnit":"m.s-1","parameterCategory":1,"la1":30.6,"la2":29.2853,"lo1":-89.7004,"lo2":-87.6739,"dx":0.0162,"dy":0.0183,"nx":112,"ny":82,"refTime":"2022-12-24T06:00:00:Z","depth":0,"parameterNumber":3,"parameterNumberName":"V-component_of_WINDS"},"data":[0.0,0.0,0.0,0.0,0.0,0.0,0.0,0.0,0.0,0.0,0.0,0.0,0.0,0.0,0.0,0.0,0.0,0.0,0.0,0.0,0.0,0.0,0.0,0.0,0.0,0.0,0.0,0.0,0.0,0.0,0.0,0.0,0.0,0.0,0.0,0.0,0.0,0.0,0.0,0.0,0.0,0.0,0.0,0.0,0.0,0.0,0.0,0.0,0.0,0.0,0.0,0.0,0.0,0.0,0.0,0.0,0.0,0.0,0.0,0.0,0.0,0.0,0.0,0.0,0.0,0.0,0.0,0.0,0.0,0.0,0.0,0.0,0.0,0.0,0.0,0.0,0.0,0.0,0.0,0.0,0.0,0.0,0.0,0.0,0.0,0.0,0.0,0.0,0.0,0.0,0.0,-0.7678,-0.8309,-0.8716,-0.8743,-0.9965,-1.0839,-1.1277,0.0,0.0,0.0,0.0,0.0,0.0,0.0,0.0,0.0,0.0,0.0,0.0,0.0,0.0,0.0,0.0,0.0,0.0,0.0,0.0,0.0,0.0,0.0,0.0,0.0,0.0,0.0,0.0,0.0,0.0,0.0,0.0,0.0,0.0,0.0,0.0,0.0,0.0,0.0,0.0,0.0,0.0,0.0,0.0,0.0,0.0,0.0,0.0,0.0,0.0,0.0,0.0,0.0,0.0,0.0,0.0,0.0,0.0,0.0,0.0,0.0,0.0,0.0,0.0,0.0,0.0,0.0,0.0,0.0,0.0,0.0,0.0,0.0,0.0,0.0,0.0,0.0,0.0,0.0,0.0,0.0,0.0,0.0,0.0,0.0,0.0,0.0,0.0,0.0,0.0,0.0,0.0,0.0,0.0,0.0,0.0,0.0,0.0,0.0,0.0,0.0,0.0,0.0,0.0,-0.7428,-0.8099,-0.8492,-0.8764,-0.8893,-1.0046,-1.0793,-1.1106,0.0,0.0,0.0,0.0,0.0,0.0,0.0,0.0,0.0,0.0,0.0,0.0,0.0,0.0,0.0,0.0,0.0,0.0,0.0,0.0,0.0,0.0,0.0,0.0,0.0,0.0,0.0,0.0,0.0,0.0,0.0,0.0,0.0,0.0,0.0,0.0,0.0,0.0,0.0,0.0,0.0,0.0,0.0,0.0,0.0,0.0,0.0,0.0,0.0,0.0,0.0,0.0,0.0,0.0,0.0,0.0,0.0,0.0,0.0,0.0,0.0,0.0,0.0,0.0,0.0,0.0,0.0,0.0,0.0,0.0,0.0,0.0,0.0,0.0,0.0,0.0,0.0,0.0,0.0,0.0,0.0,0.0,0.0,0.0,0.0,0.0,0.0,0.0,0.0,0.0,0.0,0.0,0.0,0.0,0.0,0.0,0.0,0.0,0.0,0.0,0.0,0.0,0.0,-0.7495,-0.7855,-0.8445,-0.8703,-0.8866,-0.8933,-1.0171,-1.1168,-1.1795,-1.2559,0.0,0.0,0.0,0.0,0.0,0.0,0.0,0.0,0.0,0.0,0.0,0.0,0.0,0.0,0.0,0.0,0.0,0.0,0.0,0.0,0.0,0.0,0.0,0.0,0.0,0.0,0.0,0.0,0.0,0.0,0.0,0.0,0.0,0.0,0.0,0.0,0.0,0.0,0.0,0.0,0.0,0.0,0.0,0.0,0.0,0.0,0.0,0.0,0.0,0.0,0.0,0.0,0.0,0.0,0.0,0.0,0.0,0.0,0.0,0.0,0.0,0.0,0.0,0.0,0.0,0.0,0.0,0.0,0.0,0.0,0.0,0.0,0.0,0.0,0.0,0.0,0.0,0.0,0.0,0.0,0.0,0.0,0.0,0.0,0.0,0.0,0.0,0.0,0.0,0.0,0.0,0.0,0.0,0.0,0.0,0.0,0.0,0.0,0.0,0.0,0.0,0.0,-0.8072,-0.8384,-0.873,-0.8933,-0.9042,-0.9042,-1.0032,-1.1025,-1.1746,-1.2391,0.0,0.0,0.0,0.0,0.0,0.0,0.0,0.0,0.0,0.0,0.0,0.0,0.0,0.0,0.0,0.0,0.0,0.0,0.0,0.0,0.0,0.0,0.0,0.0,0.0,0.0,0.0,0.0,0.0,0.0,0.0,0.0,0.0,0.0,0.0,0.0,0.0,0.0,0.0,0.0,0.0,0.0,0.0,0.0,0.0,0.0,0.0,0.0,0.0,0.0,0.0,0.0,0.0,0.0,0.0,0.0,0.0,0.0,0.0,0.0,0.0,0.0,0.0,0.0,0.0,0.0,0.0,0.0,0.0,0.0,0.0,0.0,0.0,0.0,0.0,0.0,0.0,0.0,0.0,0.0,0.0,0.0,0.0,0.0,0.0,0.0,0.0,0.0,0.0,0.0,0.0,0.0,0.0,0.0,0.0,0.0,0.0,0.0,0.0,0.0,0.0,0.0,-0.8431,-0.8886,-0.892,-0.9178,-0.9347,-0.9347,-0.9463,-0.9705,-0.9949,-1.0879,0.0,0.0,0.0,0.0,0.0,0.0,0.0,0.0,0.0,0.0,0.0,0.0,0.0,0.0,0.0,0.0,0.0,0.0,0.0,0.0,0.0,0.0,0.0,0.0,0.0,0.0,0.0,0.0,0.0,0.0,0.0,0.0,0.0,0.0,0.0,0.0,0.0,0.0,0.0,0.0,0.0,0.0,0.0,0.0,0.0,0.0,0.0,0.0,0.0,0.0,0.0,0.0,0.0,0.0,0.0,0.0,0.0,0.0,0.0,0.0,0.0,0.0,0.0,0.0,0.0,0.0,0.0,0.0,0.0,0.0,0.0,0.0,0.0,0.0,0.0,0.0,0.0,0.0,0.0,0.0,0.0,0.0,0.0,0.0,0.0,0.0,0.0,0.0,0.0,0.0,0.0,0.0,0.0,0.0,0.0,0.0,0.0,0.0,0.0,0.0,0.0,0.0,-0.8506,-0.8906,0.0,-0.9313,-0.9381,-0.9381,-0.9381,-0.9702,-1.0355,0.0,0.0,0.0,0.0,0.0,0.0,0.0,0.0,0.0,0.0,0.0,0.0,0.0,0.0,0.0,0.0,0.0,0.0,0.0,0.0,0.0,0.0,0.0,0.0,0.0,0.0,0.0,0.0,0.0,0.0,0.0,0.0,0.0,0.0,0.0,0.0,0.0,0.0,0.0,0.0,0.0,0.0,0.0,0.0,0.0,0.0,0.0,0.0,0.0,0.0,0.0,0.0,0.0,0.0,0.0,0.0,0.0,0.0,0.0,0.0,0.0,0.0,0.0,0.0,0.0,0.0,0.0,0.0,0.0,0.0,0.0,0.0,0.0,0.0,0.0,0.0,0.0,0.0,0.0,0.0,0.0,0.0,0.0,0.0,0.0,0.0,0.0,0.0,0.0,0.0,0.0,0.0,0.0,0.0,0.0,0.0,0.0,0.0,0.0,0.0,0.0,0.0,-0.8187,-0.8655,-0.9062,0.0,-0.9496,-0.9517,-0.9517,-0.9517,-0.9631,-1.0023,0.0,0.0,0.0,0.0,0.0,0.0,0.0,0.0,0.0,0.0,0.0,0.0,0.0,0.0,0.0,0.0,0.0,0.0,0.0,0.0,0.0,0.0,0.0,0.0,0.0,0.0,0.0,0.0,0.0,0.0,0.0,0.0,0.0,0.0,0.0,0.0,0.0,0.0,0.0,0.0,0.0,0.0,0.0,0.0,0.0,0.0,0.0,0.0,0.0,0.0,0.0,0.0,0.0,0.0,0.0,0.0,0.0,0.0,0.0,0.0,0.0,0.0,0.0,0.0,0.0,0.0,0.0,0.0,0.0,0.0,0.0,0.0,0.0,0.0,0.0,0.0,0.0,0.0,0.0,0.0,0.0,0.0,0.0,0.0,0.0,0.0,0.0,0.0,0.0,0.0,0.0,0.0,0.0,0.0,0.0,0.0,0.0,0.0,0.0,0.0,0.0,0.0,-0.8214,-0.892,-0.9442,-0.9598,-0.9741,-0.9822,-0.9822,-0.9822,-0.9503,0.0,0.0,0.0,0.0,0.0,0.0,0.0,0.0,0.0,0.0,0.0,0.0,0.0,0.0,0.0,0.0,0.0,0.0,0.0,0.0,0.0,0.0,0.0,0.0,0.0,0.0,0.0,0.0,0.0,0.0,0.0,0.0,0.0,0.0,0.0,0.0,0.0,0.0,0.0,0.0,0.0,0.0,0.0,0.0,0.0,0.0,0.0,0.0,0.0,0.0,0.0,0.0,0.0,0.0,0.0,0.0,0.0,0.0,0.0,0.0,0.0,0.0,0.0,0.0,0.0,0.0,0.0,0.0,0.0,0.0,0.0,0.0,0.0,0.0,0.0,0.0,0.0,0.0,0.0,0.0,0.0,0.0,0.0,0.0,0.0,0.0,0.0,0.0,0.0,0.0,0.0,0.0,0.0,0.0,0.0,0.0,0.0,0.0,0.0,0.0,0.0,0.0,0.0,0.0,-0.9076,-0.9598,-0.9741,-0.9795,-0.9822,-0.9822,-0.9822,-0.9503,-0.8757,0.0,0.0,0.0,0.0,0.0,0.0,0.0,0.0,0.0,0.0,0.0,0.0,0.0,0.0,0.0,0.0,0.0,0.0,0.0,0.0,0.0,0.0,0.0,0.0,0.0,0.0,0.0,0.0,0.0,0.0,0.0,0.0,0.0,0.0,0.0,0.0,0.0,0.0,0.0,0.0,0.0,0.0,0.0,0.0,0.0,0.0,0.0,0.0,0.0,0.0,0.0,0.0,0.0,0.0,0.0,0.0,0.0,0.0,0.0,0.0,0.0,0.0,0.0,0.0,0.0,0.0,0.0,0.0,0.0,0.0,0.0,0.0,0.0,0.0,0.0,0.0,0.0,0.0,0.0,0.0,0.0,0.0,0.0,0.0,0.0,0.0,0.0,0.0,0.0,0.0,0.0,0.0,0.0,0.0,0.0,0.0,0.0,0.0,0.0,0.0,0.0,0.0,-0.8425,-0.9144,-0.9666,-0.9802,-0.9822,-0.9822,-0.9822,-0.9822,-0.9551,-0.8927,0.0,0.0,0.0,0.0,0.0,0.0,0.0,0.0,0.0,0.0,0.0,0.0,0.0,0.0,0.0,0.0,0.0,0.0,0.0,0.0,0.0,0.0,0.0,0.0,0.0,0.0,0.0,0.0,0.0,0.0,0.0,0.0,0.0,0.0,0.0,0.0,0.0,0.0,0.0,0.0,0.0,0.0,0.0,0.0,0.0,0.0,0.0,0.0,0.0,0.0,0.0,0.0,0.0,0.0,0.0,0.0,0.0,0.0,0.0,0.0,0.0,0.0,0.0,0.0,0.0,0.0,0.0,0.0,0.0,0.0,0.0,0.0,0.0,0.0,0.0,0.0,0.0,0.0,0.0,0.0,0.0,0.0,0.0,0.0,0.0,0.0,0.0,0.0,0.0,0.0,0.0,0.0,0.0,0.0,0.0,0.0,0.0,0.0,0.0,0.0,0.0,0.0,-0.8445,-0.9164,-0.968,-0.9808,-0.9822,-0.9822,-0.9822,-0.9822,-0.9632,-0.9178,0.0,0.0,0.0,0.0,0.0,0.0,0.0,0.0,0.0,0.0,0.0,0.0,0.0,0.0,0.0,0.0,0.0,0.0,0.0,0.0,0.0,0.0,0.0,0.0,0.0,0.0,0.0,0.0,0.0,0.0,0.0,0.0,0.0,0.0,0.0,0.0,0.0,0.0,0.0,0.0,0.0,0.0,0.0,0.0,0.0,0.0,0.0,0.0,0.0,0.0,0.0,0.0,0.0,0.0,0.0,0.0,0.0,0.0,0.0,0.0,-0.6871,0.0,0.0,0.0,0.0,0.0,0.0,0.0,0.0,0.0,0.0,0.0,0.0,0.0,0.0,0.0,0.0,0.0,0.0,0.0,0.0,0.0,0.0,0.0,0.0,0.0,0.0,0.0,0.0,0.0,0.0,0.0,0.0,0.0,0.0,0.0,0.0,0.0,0.0,0.0,0.0,0.0,-0.8621,-0.9313,-0.9788,-0.9815,-0.9822,-0.9822,-0.9822,-0.9822,-0.9632,-0.9178,0.0,0.0,0.0,0.0,0.0,0.0,0.0,0.0,0.0,0.0,0.0,0.0,0.0,0.0,0.0,0.0,0.0,0.0,0.0,0.0,0.0,0.0,0.0,0.0,0.0,0.0,0.0,0.0,0.0,0.0,0.0,0.0,0.0,0.0,0.0,0.0,0.0,0.0,0.0,0.0,0.0,0.0,0.0,0.0,0.0,0.0,0.0,0.0,0.0,0.0,0.0,0.0,0.0,0.0,0.0,0.0,0.0,0.0,0.0,0.0,0.0,-0.7109,0.0,0.0,0.0,0.0,0.0,0.0,0.0,0.0,0.0,0.0,0.0,0.0,0.0,0.0,0.0,0.0,0.0,0.0,0.0,0.0,0.0,0.0,0.0,0.0,0.0,0.0,0.0,0.0,0.0,0.0,0.0,0.0,0.0,0.0,0.0,0.0,0.0,0.0,0.0,0.0,-0.8669,-0.9361,-0.9822,-0.9822,-0.9822,-0.9822,-0.9822,-0.9822,-0.972,-0.949,-0.9273,0.0,0.0,0.0,0.0,0.0,0.0,0.0,0.0,0.0,0.0,0.0,0.0,0.0,0.0,0.0,0.0,0.0,0.0,0.0,0.0,0.0,0.0,0.0,0.0,0.0,0.0,0.0,0.0,0.0,0.0,0.0,0.0,0.0,0.0,0.0,0.0,0.0,0.0,0.0,0.0,0.0,0.0,0.0,0.0,0.0,0.0,0.0,0.0,0.0,0.0,0.0,0.0,0.0,0.0,0.0,-0.7265,-0.755,-0.7604,-0.7489,-0.7489,-0.7529,-0.759,0.0,0.0,0.0,0.0,0.0,0.0,0.0,0.0,0.0,0.0,0.0,0.0,0.0,0.0,0.0,0.0,0.0,0.0,0.0,0.0,0.0,0.0,0.0,0.0,0.0,-0.7936,-0.7977,0.0,0.0,0.0,0.0,0.0,0.0,0.0,0.0,0.0,0.0,0.0,0.0,-0.8784,-0.9408,-0.9822,-0.9822,-0.9822,-0.9822,-0.9822,-0.9822,-0.9822,-0.9822,-0.9476,-0.9184,0.0,0.0,0.0,0.0,0.0,0.0,0.0,0.0,0.0,0.0,0.0,0.0,0.0,0.0,0.0,0.0,0.0,0.0,0.0,0.0,0.0,0.0,0.0,0.0,0.0,0.0,0.0,0.0,0.0,0.0,0.0,0.0,0.0,-1.0005,0.0,0.0,0.0,0.0,0.0,0.0,0.0,0.0,0.0,0.0,0.0,0.0,0.0,0.0,-0.7536,-0.7522,-0.7522,-0.7543,-0.7685,-0.774,-0.7726,-0.7902,-0.797,-0.795,-0.795,0.0,-0.7597,-0.7577,0.0,0.0,0.0,0.0,0.0,0.0,0.0,0.0,0.0,0.0,0.0,0.0,0.0,0.0,0.0,0.0,0.0,0.0,0.0,0.0,0.0,0.0,-0.8364,-0.8364,-0.8397,-0.8404,0.0,-0.7916,-0.755,-0.7495,0.0,0.0,0.0,0.0,0.0,0.0,0.0,0.0,-0.9218,-0.9605,-0.9822,-0.9822,-0.9822,-0.9822,-0.9822,-0.9822,-0.9822,-0.9822,-0.9768,-0.9551,-0.9144,-0.8947,0.0,0.0,0.0,0.0,0.0,0.0,0.0,0.0,0.0,0.0,0.0,0.0,0.0,0.0,0.0,0.0,0.0,0.0,0.0,0.0,0.0,0.0,0.0,0.0,0.0,0.0,0.0,0.0,0.0,-1.1563,-1.1158,-1.0745,-1.0293,-0.9695,0.0,0.0,0.0,0.0,0.0,0.0,0.0,0.0,0.0,-0.7394,-0.74,-0.7502,-0.7719,-0.7719,-0.776,-0.7848,-0.7909,-0.7936,-0.7943,-0.8011,-0.8085,-0.8167,-0.8167,-0.814,-0.8079,-0.7821,-0.7678,-0.7611,0.0,0.0,0.0,0.0,0.0,0.0,-0.757,0.0,0.0,0.0,0.0,0.0,0.0,0.0,0.0,0.0,0.0,0.0,0.0,0.0,0.0,-0.8696,-0.8737,-0.8737,-0.8737,-0.8533,-0.8248,0.0,-0.7984,-0.7896,-0.7251,0.0,0.0,0.0,0.0,0.0,-0.9334,-0.9639,-0.9822,-0.9822,-0.9822,-0.9822,-0.9822,-0.9822,-0.9822,-0.9822,-0.9822,-0.9734,-0.9537,-0.9225,-0.8872,0.0,0.0,0.0,0.0,0.0,0.0,0.0,0.0,0.0,0.0,0.0,0.0,0.0,0.0,0.0,0.0,0.0,0.0,0.0,0.0,0.0,0.0,0.0,0.0,0.0,0.0,0.0,0.0,-1.1742,0.0,-1.137,-1.0242,-0.921,0.0,0.0,0.0,0.0,0.0,0.0,0.0,-0.7366,-0.7495,-0.7651,-0.7651,-0.7726,-0.7868,-0.7868,-0.795,-0.8099,-0.8099,-0.8119,-0.8153,-0.8153,-0.8214,-0.8323,-0.8323,-0.8384,-0.8459,-0.8119,-0.7963,-0.7916,-0.7814,-0.7678,0.0,-0.7712,-0.7773,-0.7807,-0.8065,-0.8228,-0.8303,-0.8187,0.0,-0.7997,-0.778,0.0,0.0,0.0,0.0,-0.8052,-0.8364,0.0,-0.8655,-0.8886,-0.8967,-0.8994,-0.8994,-0.9022,-0.8906,0.0,-0.8499,-0.8431,-0.7719,0.0,0.0,0.0,0.0,-0.9239,-0.9462,-0.9686,-0.9822,-0.9822,-0.9856,-0.9876,-0.9876,-0.9917,-0.9937,-0.9937,-0.9903,-0.9876,-0.9876,-0.9523,-0.9273,0.0,0.0,0.0,0.0,0.0,0.0,0.0,0.0,0.0,0.0,0.0,0.0,0.0,0.0,0.0,0.0,0.0,0.0,0.0,0.0,0.0,0.0,0.0,0.0,0.0,0.0,0.0,0.0,0.0,0.0,-1.1025,-0.8731,0.0,0.0,0.0,0.0,0.0,-0.7394,-0.757,-0.7577,-0.7584,-0.7651,-0.7794,-0.7801,-0.7875,-0.8024,-0.8024,-0.8106,-0.8255,-0.8255,-0.833,-0.8459,-0.8459,-0.8465,-0.8472,-0.8472,-0.8472,-0.8479,-0.8459,-0.837,-0.8248,-0.8241,-0.814,-0.8024,-0.818,-0.8235,-0.8255,-0.8411,-0.8465,-0.8472,-0.8465,-0.8269,-0.8038,-0.8024,-0.7916,0.0,0.0,-0.8336,-0.852,-0.8825,-0.8913,-0.892,-0.8933,-0.9042,-0.9144,-0.9144,-0.9259,-0.9306,0.0,-0.911,-0.9062,-0.8879,0.0,0.0,-0.9069,-0.9123,-0.9306,-0.9741,-0.9815,-0.9822,-0.9822,-0.9951,-1.0039,-1.0039,-1.0175,-1.0256,-1.0256,-1.012,-1.0039,-1.0039,-0.9876,-0.9585,-0.9164,-0.913,0.0,0.0,0.0,0.0,0.0,0.0,0.0,0.0,0.0,0.0,0.0,0.0,0.0,0.0,0.0,0.0,0.0,0.0,0.0,0.0,0.0,0.0,0.0,0.0,0.0,0.0,0.0,0.0,-0.9666,-0.8882,0.0,0.0,-0.8238,-0.8246,-0.7434,-0.7536,-0.7638,-0.7733,-0.7733,-0.7801,-0.795,-0.8052,-0.8133,-0.8187,-0.8275,-0.835,-0.8404,-0.8404,-0.8431,-0.8479,-0.8479,-0.8533,-0.8628,-0.8628,-0.8682,-0.8777,-0.8777,-0.8628,-0.8404,-0.8404,-0.837,-0.833,-0.8384,-0.8472,-0.856,-0.8615,-0.8696,-0.8777,-0.8777,-0.8703,-0.8615,-0.8615,-0.8581,-0.856,-0.8669,-0.8737,-0.8804,-0.8913,-0.9008,-0.9076,-0.9076,-0.9191,-0.93,-0.93,-0.934,-0.9395,-0.9435,-0.9367,-0.9225,-0.8981,-0.9178,-0.932,-0.9178,-0.9401,-0.9639,-0.9802,-0.9822,-0.9856,-0.9958,-1.0019,-1.0093,-1.0188,-1.0249,-1.0283,-1.0283,-1.0229,-1.0154,-1.0053,-0.9998,-0.9849,-0.9585,-0.9585,-0.915,0.0,0.0,0.0,0.0,0.0,0.0,0.0,0.0,0.0,0.0,0.0,0.0,0.0,0.0,0.0,0.0,0.0,0.0,0.0,0.0,0.0,0.0,0.0,0.0,0.0,0.0,-0.9181,-0.9687,-0.9091,-0.8436,-0.8077,-0.8505,-0.8509,-0.7767,-0.7719,-0.7787,-0.7882,-0.7936,-0.8011,-0.8113,-0.8262,-0.8343,-0.8343,-0.8431,-0.8506,-0.856,-0.856,-0.8587,-0.8635,-0.8635,-0.8689,-0.8784,-0.8784,-0.8845,-0.894,-0.894,-0.8818,-0.8635,-0.8635,-0.8635,-0.8635,-0.8635,-0.8703,-0.8784,-0.8784,-0.8852,-0.894,-0.894,-0.8974,-0.9008,-0.9008,-0.9049,-0.9089,-0.9089,-0.9089,-0.9089,-0.9089,-0.9157,-0.9232,-0.9232,-0.9347,-0.9456,-0.9456,-0.9496,-0.9557,-0.9659,-0.9557,-0.9408,-0.9259,-0.9483,-0.9612,-0.9408,-0.9632,-0.9822,-0.9822,-0.9869,-0.9937,-1.0039,-1.0141,-1.0243,-1.0344,-1.0351,-1.0371,-1.0426,-1.0337,-1.0256,-1.0202,-1.0053,-0.9903,-0.9754,-0.97,-0.9286,-0.8492,0.0,0.0,0.0,0.0,0.0,0.0,0.0,0.0,0.0,0.0,0.0,0.0,0.0,0.0,0.0,0.0,0.0,0.0,0.0,0.0,0.0,0.0,0.0,-1.0163,-0.966,-0.9587,-1.0977,-0.908,-0.8067,-0.9165,-0.8394,-0.7821,-0.7821,-0.7957,-0.8038,-0.8045,-0.8187,-0.8275,-0.8275,-0.8418,-0.8486,-0.8486,-0.8492,-0.8574,-0.8716,-0.8723,-0.8804,-0.8947,-0.8954,-0.8954,-0.8954,-0.8954,-0.8954,-0.8954,-0.8954,-0.8954,-0.8954,-0.894,-0.894,-0.894,-0.894,-0.894,-0.8947,-0.8954,-0.8954,-0.8954,-0.8954,-0.9049,-0.9157,-0.9157,-0.9266,-0.9381,-0.9381,-0.9381,-0.9381,-0.9381,-0.9388,-0.9388,-0.9388,-0.9503,-0.9618,-0.9618,-0.9727,-0.9822,-0.9822,-0.9707,-0.9659,-0.9795,-0.9822,-0.9822,-0.9822,-0.9822,0.0,-0.9829,-0.9958,-1.0053,-1.0059,-1.031,-1.0487,-1.0493,-1.0493,-1.0555,-1.0711,-1.0453,-1.0351,-1.0487,-1.0073,-0.9774,-0.9625,-0.9456,-0.9232,-0.8947,0.0,0.0,0.0,0.0,0.0,0.0,0.0,0.0,0.0,0.0,0.0,0.0,0.0,0.0,0.0,0.0,0.0,0.0,0.0,0.0,0.0,0.0,-0.7305,-0.8177,-0.8057,-0.8063,-0.8598,-0.8065,-0.7849,-0.8225,-0.8077,-0.7977,-0.7977,-0.8018,-0.8092,-0.8201,-0.8248,-0.8316,-0.8418,-0.8567,-0.8648,-0.8648,-0.8757,-0.8832,-0.8879,-0.8981,-0.9055,-0.9096,-0.9211,-0.9259,-0.9259,-0.9259,-0.9259,-0.9259,-0.9259,-0.9259,-0.9239,-0.9022,-0.894,-0.894,-0.894,-0.9008,-0.911,-0.9218,-0.9259,-0.9259,-0.9259,-0.9286,-0.932,-0.932,-0.9347,-0.9381,-0.9381,-0.9381,-0.9381,-0.9381,-0.9462,-0.9544,-0.9544,-0.9659,-0.9761,-0.9761,-0.9795,-0.9822,-0.9822,-0.9788,-0.9774,-0.9815,-0.9822,-0.9822,-0.9822,0.0,0.0,-0.9971,-1.0025,-1.0093,-1.0209,-1.029,-1.0378,-1.048,-1.0493,-1.0555,0.0,-1.0643,-1.0568,-1.0493,-1.0371,-1.0188,-0.993,-0.9456,-0.9178,0.0,0.0,0.0,0.0,0.0,0.0,0.0,0.0,0.0,0.0,0.0,0.0,0.0,0.0,0.0,0.0,0.0,0.0,0.0,0.0,0.0,0.0,-0.7143,-0.7312,-0.7529,-0.7556,-0.759,-0.7678,-0.7821,-0.7909,-0.7909,-0.7984,-0.8065,-0.8133,-0.8133,-0.8201,-0.835,-0.8418,-0.8492,-0.8574,-0.8723,-0.8804,-0.8804,-0.8954,-0.9028,-0.9028,-0.9178,-0.9245,-0.9252,-0.934,-0.9381,0.0,-0.9381,-0.9381,-0.9381,-0.9381,-0.9381,0.0,0.0,0.0,0.0,0.0,-0.9178,-0.9259,-0.9347,-0.9381,-0.9381,-0.9381,-0.9422,-0.9476,-0.9476,-0.9517,-0.9564,-0.9564,-0.9564,-0.9564,-0.9564,-0.9632,-0.97,-0.97,-0.9761,-0.9822,-0.9822,-0.9822,-0.9822,-0.9822,0.0,0.0,-0.9836,-0.9829,-0.9822,-0.9836,-0.9883,-0.9951,0.0,-1.0161,-1.027,-1.0358,-1.0426,-1.0521,-1.067,-1.0568,0.0,0.0,0.0,-1.0561,-1.0412,0.0,0.0,0.0,0.0,0.0,0.0,0.0,0.0,0.0,-0.9035,-0.8981,0.0,0.0,0.0,0.0,0.0,0.0,0.0,0.0,0.0,0.0,0.0,0.0,0.0,0.0,0.0,0.0,-0.7305,-0.7509,-0.7773,-0.7828,-0.7834,-0.7834,-0.7957,-0.8045,-0.8065,-0.8065,-0.8126,-0.8282,-0.8296,-0.8357,0.0,0.0,0.0,0.0,0.0,-0.896,-0.896,-0.9123,-0.9205,-0.9205,-0.9374,-0.9456,-0.9456,-0.9476,-0.9483,-0.9483,-0.9462,-0.9462,-0.9483,-0.9462,-0.9456,-0.9449,-0.9401,-0.9381,-0.9381,-0.9401,-0.9408,0.0,0.0,0.0,0.0,-0.9429,-0.9523,-0.9632,-0.9632,-0.972,-0.9822,-0.9822,-0.9822,-0.9822,-0.9822,-0.9822,-0.9822,-0.9822,-0.9822,-0.9822,-0.9822,-0.9822,-0.9822,-0.9822,-0.9822,-0.9836,-0.9754,-0.9849,-0.9836,-0.9754,-0.9601,0.0,-1.0009,-1.0351,-1.0493,-1.05,0.0,0.0,-1.0914,-1.069,-1.0663,-1.0955,-1.0704,-1.048,-1.0337,-1.0053,-0.9903,-0.9924,-0.9768,-0.9829,-1.0127,-1.0371,-1.05,-1.0493,-0.9415,-0.9198,0.0,0.0,0.0,0.0,0.0,0.0,0.0,0.0,0.0,0.0,0.0,0.0,0.0,0.0,0.0,-0.7479,-0.755,-0.7746,-0.7801,-0.7916,-0.7997,-0.7997,-0.8024,-0.8092,-0.8214,-0.8228,-0.8289,-0.8431,-0.8438,-0.8506,-0.8655,-0.8696,0.0,-0.8893,-0.9035,-0.911,-0.911,-0.9381,-0.9523,-0.9523,0.0,0.0,-0.9924,-1.0046,-1.0107,-1.01,-0.9971,-0.9992,-1.01,-0.9971,-0.9924,-0.9883,-0.9523,-0.9381,-0.9395,-0.9517,-0.9564,-0.9585,-0.9693,-0.9734,-0.9734,-0.9734,-0.9754,-0.9781,-0.9781,-0.9802,0.0,-0.9822,-0.9822,-0.9822,-0.9822,-0.9822,-0.9822,-0.9822,-0.9822,-0.9822,-0.9822,-0.9822,-0.9829,-0.9842,-0.9849,-0.9774,-0.979,-0.9821,-0.9774,-0.979,-0.7536,-0.6972,-0.9916,-1.0377,-1.0534,-1.0664,-1.0649,-1.0731,-1.0765,-1.0826,-1.0934,-1.1111,-1.0955,-1.0792,-1.0643,-1.046,-1.0419,-1.0541,-1.0283,-1.0297,-1.0588,-1.0521,-1.0555,-1.067,-1.031,-1.0209,0.0,0.0,0.0,0.0,0.0,0.0,0.0,0.0,0.0,0.0,0.0,-0.7612,0.0,0.0,-0.7952,-0.765,-0.7712,-0.7834,-0.7916,-0.8058,-0.8153,-0.8153,-0.8153,-0.8214,-0.8364,-0.8377,-0.8438,-0.8587,-0.8594,-0.8662,-0.8818,-0.8893,-0.8967,-0.9042,-0.9191,-0.9306,-0.9381,-0.9605,-0.9754,-0.9836,-0.9942,-1.0055,-1.0055,-1.027,-1.031,-1.0297,-1.0215,-1.0222,-1.0276,-1.0082,-0.9929,-0.9916,-0.9698,-0.9633,-0.9612,-0.9686,-0.9713,-0.9727,-0.9795,-0.9822,-0.9822,-0.9822,-0.9822,-0.9822,-0.9822,-0.9822,-0.9822,-0.9822,-0.9822,-0.9822,-0.9822,-0.9829,-0.9836,-0.9836,-0.9849,-0.9741,-0.9741,-0.9741,-0.9747,-0.9754,-0.843,-0.7862,-0.9487,-0.9745,-0.9764,-0.9849,-0.7047,-0.4907,-0.5116,-0.6745,-0.8668,-1.0505,-1.0705,-1.0799,-1.0946,-1.1151,-1.1185,-1.1165,-1.1029,-1.0914,-1.0839,-1.0683,-1.0643,-1.0717,-1.0649,-1.0649,-1.0717,-1.0717,-1.0717,-1.0717,-1.0643,-1.0609,0.0,0.0,0.0,0.0,0.0,0.0,0.0,0.0,-0.8022,-0.8022,-0.7495,-0.7048,-0.7163,-0.7333,-0.7536,-0.7773,-0.7834,-0.7909,-0.8065,-0.8194,-0.8289,-0.835,-0.833,-0.837,-0.8513,-0.8526,-0.8587,-0.8743,-0.8757,-0.8818,-0.8974,-0.9089,-0.9164,-0.9198,-0.9374,-0.9523,-0.9652,-0.9856,-1.0025,-1.0022,-1.0196,-0.9877,-0.9221,-0.9239,-0.9368,-0.9484,-1.0148,-1.0385,-1.021,-0.9441,-0.9062,-0.8939,-0.8916,-0.8884,-0.8909,-0.9509,-0.9754,-0.9754,-0.9747,-0.9754,-0.9754,-0.9754,-0.9856,-0.9836,-0.9836,-0.9836,-0.9836,-0.9836,-0.9836,-0.9842,-0.9747,-0.9767,-0.9658,-0.9057,-0.8817,-0.8823,-0.8847,-0.8829,-0.9075,-0.9614,-0.7666,-0.6715,-0.9342,-0.9832,-0.9374,-0.8054,-0.5617,-0.3023,-0.0396,-0.2537,-0.5683,-0.9348,-0.968,-0.9944,-1.0469,-1.1193,-1.1537,-1.1219,-1.1097,-1.1023,-1.0989,-1.0873,-1.0819,-1.0846,-1.0941,-1.0941,-1.0853,-1.0941,-1.0928,-1.0806,-1.0806,-1.0772,-1.0646,0.0,0.0,-0.7517,-0.724,-0.7225,0.0,0.0,-0.7264,-0.7264,-0.73,-0.7326,-0.7346,-0.7577,-0.7773,-0.7807,-0.7923,-0.8065,-0.8221,-0.8262,-0.837,-0.8628,-0.854,-0.852,-0.8669,-0.8682,-0.875,-0.8899,-0.8913,-0.8974,-0.9123,-0.9144,-0.9211,-0.9354,-0.9625,-0.9781,-0.9795,-1.0109,-1.0337,-1.0357,-1.0531,-0.8978,-0.5874,-0.6007,-0.6007,-0.614,-0.925,-1.0538,-1.0012,-0.7084,-0.5893,-0.5889,-0.5551,-0.5511,-0.5739,-0.8699,-0.981,-0.9824,-0.9804,-0.981,-0.983,-0.983,-0.9751,-0.9774,-0.9774,-0.9774,-0.9774,-0.9774,-0.9774,-0.9801,-0.9797,-0.983,-0.9093,-0.6117,-0.5437,-0.5408,-0.5481,-0.5437,-0.6302,-0.9252,-0.9557,-0.9349,-0.9764,-0.9802,-0.7797,-0.1972,-0.0789,-0.0397,-0.0,-0.0407,-0.2051,-0.5628,-0.6023,-0.6559,-0.7949,-1.0299,-1.1552,-1.1375,-1.1348,-1.128,-1.1145,-1.1124,-1.1179,-1.1314,-1.1199,-1.1199,-1.1314,-1.1199,-1.1131,-1.1111,-1.1111,-1.0968,-0.9837,0.0,0.0,0.0,-0.6993,-0.6973,-0.7149,-0.7299,-0.7407,-0.7407,-0.7461,-0.7529,-0.7611,-0.7726,-0.7841,0.0,-0.8072,-0.8194,-0.8262,-0.8418,-0.8574,-0.8696,-0.873,-0.8771,-0.8838,-0.8845,-0.8906,-0.9055,-0.9062,-0.913,-0.9279,-0.9381,-0.9386,-0.942,-0.9632,-0.9955,-1.0129,-1.0201,-0.9395,-0.745,-0.9692,-0.9868,-0.836,-0.4166,-0.2281,-0.2412,-0.6042,-0.8728,-1.0459,-0.9094,-0.6,-0.2395,-0.4237,-0.4866,-0.5079,-0.6404,-0.8166,-0.9469,-0.7648,-0.6967,-0.693,-0.699,-0.6944,-0.6998,-0.6934,-0.6953,-0.6953,-0.6953,-0.6953,-0.6962,-0.7,-0.8364,-0.9497,-0.8096,-0.4832,-0.2095,-0.2108,-0.2087,-0.2459,-0.3781,-0.405,-0.4057,-0.4086,-0.4121,-0.3206,-0.04,0.0,0.0,0.0,0.0,-0.0553,-0.2105,-0.2286,-0.2457,-0.3188,-0.83,-1.1516,-1.1552,-1.1463,-1.1416,-1.143,-1.1341,-1.1369,-1.1518,-1.1463,-1.1416,-1.1389,-1.1328,-1.1253,-1.1165,-1.1165,-1.1097,-0.896,0.0,0.0,-0.7264,-0.7007,-0.6993,-0.7251,-0.7428,-0.755,-0.759,-0.7631,-0.7692,-0.7794,-0.7848,0.0,-0.8079,-0.8201,-0.8296,-0.8377,-0.8574,-0.8723,-0.8771,-0.8796,-0.889,-0.8994,-0.8994,-0.9055,-0.9205,-0.9218,-0.9293,-0.9442,-0.9499,-0.9042,-0.8295,-0.834,-0.8514,-0.883,-0.982,-0.9209,-0.6857,-0.7416,-0.7694,-0.756,-0.2423,0.0,-0.0134,-0.2818,-0.5379,-0.7694,-0.7694,-0.4714,-0.0269,-0.2559,-0.3615,-0.3578,-0.3528,-0.5066,-0.7002,-0.6477,-0.5009,-0.3568,-0.3606,-0.3584,-0.3548,-0.3587,-0.3599,-0.3601,-0.3486,-0.3489,-0.3495,-0.3525,-0.5287,-0.7089,-0.7116,-0.3503,0.0,0.0,0.0,0.0,0.0,0.0,0.0,0.0,0.0,0.0,0.0,0.0,0.0,0.0,0.0,0.0,0.0,0.0,0.0,0.0,-0.5122,-0.881,-0.9994,-1.1083,-1.166,-1.1748,-1.164,-1.1606,-1.1674,-1.1681,-1.1606,-1.1457,-1.1457,-1.1396,-1.1287,-1.1287,-1.1287,0.0,0.0,-0.7109,-0.6966,-0.6932,-0.6966,-0.7115,-0.7265,-0.7421,-0.757,-0.7706,-0.7807,-0.7814,-0.7929,-0.8085,-0.8241,-0.8269,-0.837,-0.8655,-0.8703,-0.8764,-0.8913,-0.8851,-0.8937,0.0,-0.9144,-0.9211,-0.9361,-0.9272,-0.9235,-0.9506,-0.9431,-0.8071,-0.5143,-0.5033,-0.5112,-0.5116,-0.8839,-1.0699,-1.043,-0.3633,-0.0269,-0.0269,-0.0135,0.0,-0.0,-0.0135,-0.0269,-0.0269,-0.0269,-0.0135,-0.0,-0.0135,-0.0135,-0.0135,-0.0134,-0.0266,-0.1185,-0.7524,-0.5533,-0.0132,-0.0132,-0.013,-0.0129,-0.0129,-0.0129,-0.0129,-0.0131,-0.0132,-0.0133,-0.0136,-0.0274,-0.0275,-0.0279,-0.0139,0.0,0.0,0.0,0.0,0.0,0.0,0.0,0.0,0.0,0.0,0.0,0.0,0.0,0.0,0.0,0.0,0.0,0.0,0.0,0.0,-0.0148,-0.1933,-0.5716,-0.965,-1.1938,-1.1945,-1.206,-1.1972,-1.183,-1.1823,-1.1755,-1.1613,-1.1613,-1.1613,-1.1606,-1.1606,-1.1606,0.0,0.0,-0.7258,-0.7109,-0.7149,-0.7258,-0.7414,-0.7638,-0.7828,-0.7882,-0.8011,-0.8147,-0.8241,-0.8296,-0.8384,-0.854,-0.856,-0.8601,-0.8696,-0.8776,-0.8818,-0.8864,-0.8902,0.0,0.0,0.0,0.0,-0.9523,-0.9432,-0.9506,-0.9654,-0.9718,-0.9243,-0.8204,-0.3906,-0.1585,-0.16,-0.2952,-0.3633,-0.3633,-0.1211,0.0,0.0,0.0,0.0,0.0,0.0,0.0,0.0,0.0,0.0,0.0,0.0,0.0,0.0,0.0,0.0,-0.0274,-0.2556,-0.1859,0.0,0.0,0.0,0.0,0.0,0.0,0.0,0.0,0.0,0.0,0.0,0.0,0.0,0.0,0.0,0.0,0.0,0.0,0.0,0.0,0.0,0.0,0.0,0.0,0.0,0.0,0.0,0.0,0.0,0.0,0.0,0.0,0.0,0.0,0.0,0.0,-0.0602,-0.1809,-0.3317,-0.6506,-1.1934,-1.2155,-1.2108,-1.2135,-1.1932,-1.1809,-1.1755,-1.1667,-1.1619,-1.1619,-1.1619,-1.1619,0.0,-0.7448,-0.7265,-0.7163,-0.7217,-0.7346,-0.755,-0.7746,-0.7916,-0.8018,-0.816,-0.8296,-0.8391,-0.8452,-0.8554,-0.8757,-0.8791,-0.8825,-0.8933,-0.9017,-0.903,-0.903,-0.8949,0.0,0.0,0.0,0.0,-0.9713,-0.9613,-0.9667,-0.9761,-0.7561,-0.6273,-0.6331,-0.2235,0.0,0.0,0.0,0.0,0.0,0.0,0.0,0.0,0.0,0.0,0.0,0.0,0.0,0.0,0.0,0.0,0.0,0.0,0.0,0.0,0.0,0.0,0.0,0.0,0.0,0.0,0.0,0.0,0.0,0.0,0.0,0.0,0.0,0.0,0.0,0.0,0.0,0.0,0.0,0.0,0.0,0.0,0.0,0.0,0.0,0.0,0.0,0.0,0.0,0.0,0.0,0.0,0.0,0.0,0.0,0.0,0.0,0.0,0.0,0.0,0.0,0.0,0.0,0.0,-0.2299,-0.7569,-1.0773,-1.2298,-1.2305,-1.2108,-1.1979,-1.1911,-1.1823,-1.1775,-1.1775,-1.1775,-1.1775,-0.759,-0.7373,-0.7149,-0.7143,-0.7143,-0.7231,-0.7529,-0.7604,-0.7692,-0.7991,-0.8174,-0.8289,0.0,0.0,-0.8601,-0.8899,-0.8954,-0.9049,-0.9334,-0.9285,-0.9189,0.0,0.0,0.0,0.0,0.0,0.0,-0.9536,0.0,-0.9814,-0.9814,-0.3558,0.0,0.0,0.0,0.0,0.0,0.0,0.0,0.0,0.0,0.0,0.0,0.0,0.0,0.0,0.0,0.0,0.0,0.0,0.0,0.0,0.0,0.0,0.0,0.0,0.0,0.0,0.0,0.0,0.0,0.0,0.0,0.0,0.0,0.0,0.0,0.0,0.0,0.0,0.0,0.0,0.0,0.0,0.0,0.0,0.0,0.0,0.0,0.0,0.0,0.0,0.0,0.0,0.0,0.0,0.0,0.0,0.0,0.0,0.0,0.0,0.0,0.0,0.0,0.0,0.0,0.0,0.0,0.0,0.0,-0.7681,-1.1889,-1.2186,-1.2332,-1.2402,-1.2074,-1.2067,-1.206,-1.206,-1.206,-1.206,-0.7428,-0.7373,-0.7285,-0.717,-0.7224,-0.7366,-0.7556,-0.7678,-0.7841,-0.8147,-0.833,-0.8499,0.0,0.0,0.0,-0.9069,-0.8997,0.0,-0.899,-0.8987,0.0,0.0,0.0,-0.7771,-0.479,-0.3202,0.0,0.0,-0.8436,-0.9814,-0.9814,-0.3558,0.0,0.0,0.0,0.0,0.0,0.0,0.0,0.0,0.0,0.0,0.0,0.0,0.0,0.0,0.0,0.0,0.0,0.0,0.0,0.0,0.0,0.0,0.0,0.0,0.0,0.0,0.0,0.0,0.0,0.0,0.0,0.0,0.0,0.0,0.0,0.0,0.0,0.0,0.0,0.0,0.0,0.0,0.0,0.0,0.0,0.0,0.0,0.0,0.0,0.0,0.0,0.0,0.0,0.0,0.0,0.0,0.0,0.0,0.0,0.0,0.0,0.0,0.0,0.0,0.0,0.0,0.0,0.0,0.0,-0.2034,-0.4686,-0.7787,-1.0845,-1.2484,-1.2416,-1.2306,-1.2088,-1.206,-1.206,-1.206,-0.7373,-0.7319,-0.7251,-0.7163,-0.7204,-0.7346,-0.7631,-0.7753,-0.7916,-0.8289,-0.8479,0.0,0.0,0.0,0.0,0.0,0.0,0.0,-0.7317,-0.833,-0.9316,0.0,-0.678,0.0,-0.2719,-0.0988,-0.0741,0.0,-0.445,-0.544,-0.544,-0.2033,0.0,0.0,0.0,0.0,0.0,0.0,0.0,0.0,0.0,0.0,0.0,0.0,0.0,0.0,0.0,0.0,0.0,0.0,0.0,0.0,0.0,0.0,0.0,0.0,0.0,0.0,0.0,0.0,0.0,0.0,0.0,0.0,0.0,0.0,0.0,0.0,0.0,0.0,0.0,0.0,0.0,0.0,0.0,0.0,0.0,0.0,0.0,0.0,0.0,0.0,0.0,0.0,0.0,0.0,0.0,0.0,0.0,0.0,0.0,0.0,0.0,0.0,0.0,0.0,0.0,0.0,0.0,0.0,0.0,0.0,-0.1096,-0.3439,-0.5755,-0.7907,-0.9767,-1.1568,-1.2298,-1.2277,-1.2264,-1.2257,-0.7366,-0.7272,-0.7177,-0.7108,-0.7115,-0.7228,-0.7581,-0.7764,-0.7977,-0.8452,0.0,0.0,-0.8764,0.0,-0.8957,-0.9129,0.0,-0.8337,-0.5746,-0.7158,-0.8559,-0.8559,-0.3458,0.0,0.0,0.0,0.0,0.0,0.0,0.0,0.0,0.0,0.0,0.0,0.0,0.0,0.0,0.0,0.0,0.0,0.0,0.0,0.0,0.0,0.0,0.0,0.0,0.0,0.0,0.0,0.0,0.0,0.0,0.0,0.0,0.0,0.0,0.0,0.0,0.0,0.0,0.0,0.0,0.0,0.0,0.0,0.0,0.0,0.0,0.0,0.0,0.0,0.0,0.0,0.0,0.0,0.0,0.0,0.0,0.0,0.0,0.0,0.0,0.0,0.0,0.0,0.0,0.0,0.0,0.0,0.0,0.0,0.0,0.0,0.0,0.0,0.0,0.0,0.0,0.0,0.0,0.0,0.0,0.0,0.0,-0.1876,-0.5474,-0.9075,-1.1442,-1.2556,-1.2522,-1.2508,-0.7333,-0.7353,-0.736,-0.731,-0.7343,-0.7367,-0.7208,-0.7724,0.0,0.0,0.0,-0.8784,-0.9028,-0.8997,0.0,-0.9149,0.0,0.0,0.0,0.0,-0.1729,0.0,0.0,0.0,0.0,0.0,0.0,0.0,0.0,0.0,0.0,0.0,0.0,0.0,0.0,0.0,0.0,0.0,0.0,0.0,0.0,0.0,0.0,0.0,0.0,0.0,0.0,0.0,0.0,0.0,0.0,0.0,0.0,0.0,0.0,0.0,0.0,0.0,0.0,0.0,0.0,0.0,0.0,0.0,0.0,0.0,0.0,0.0,0.0,0.0,0.0,0.0,0.0,0.0,0.0,0.0,0.0,0.0,0.0,0.0,0.0,0.0,0.0,0.0,0.0,0.0,0.0,0.0,0.0,0.0,0.0,0.0,0.0,0.0,0.0,0.0,0.0,0.0,0.0,0.0,0.0,0.0,0.0,0.0,0.0,-0.0313,-0.1095,-0.1875,-0.5789,-1.244,-1.2562,-1.2542,-0.7362,-0.7403,-0.7423,-0.7516,-0.6429,-0.5373,-0.5324,0.0,0.0,0.0,0.0,-0.8883,-0.903,0.0,0.0,0.0,0.0,0.0,0.0,0.0,0.0,0.0,0.0,0.0,0.0,0.0,0.0,0.0,0.0,0.0,0.0,0.0,0.0,0.0,0.0,0.0,0.0,0.0,0.0,0.0,0.0,0.0,0.0,0.0,0.0,0.0,0.0,0.0,0.0,0.0,0.0,0.0,0.0,0.0,0.0,0.0,0.0,0.0,0.0,0.0,0.0,0.0,0.0,0.0,0.0,0.0,0.0,0.0,0.0,0.0,0.0,0.0,0.0,0.0,0.0,0.0,0.0,0.0,0.0,0.0,0.0,0.0,0.0,0.0,0.0,0.0,0.0,0.0,0.0,0.0,0.0,0.0,0.0,0.0,0.0,0.0,0.0,0.0,0.0,0.0,0.0,0.0,0.0,0.0,0.0,0.0,0.0,0.0,-0.2034,-0.6105,-0.8297,-1.0503,-0.7435,-0.6994,-0.6804,-0.7541,-0.6074,-0.4207,-0.3125,-0.3595,0.0,0.0,-0.8911,-0.871,-0.8093,0.0,-0.9281,0.0,0.0,0.0,0.0,0.0,0.0,0.0,0.0,0.0,0.0,0.0,0.0,0.0,0.0,0.0,0.0,0.0,0.0,0.0,0.0,0.0,0.0,0.0,0.0,0.0,0.0,0.0,0.0,0.0,0.0,0.0,0.0,0.0,0.0,0.0,0.0,0.0,0.0,0.0,0.0,0.0,0.0,0.0,0.0,0.0,0.0,0.0,0.0,0.0,0.0,0.0,0.0,0.0,0.0,0.0,0.0,0.0,0.0,0.0,0.0,0.0,0.0,0.0,0.0,0.0,0.0,0.0,0.0,0.0,0.0,0.0,0.0,0.0,0.0,0.0,0.0,0.0,0.0,0.0,0.0,0.0,0.0,0.0,0.0,0.0,0.0,0.0,0.0,0.0,0.0,0.0,0.0,0.0,0.0,-0.0158,-0.3458,-0.7232,-0.7511,-0.5766,-0.4606,-0.7329,-0.7782,-0.6297,-0.143,0.0,0.0,-0.7718,-0.8845,-0.8106,-0.5341,-0.7133,-0.909,0.0,-0.4684,-0.0616,0.0,0.0,0.0,0.0,0.0,0.0,0.0,0.0,0.0,0.0,0.0,0.0,0.0,0.0,0.0,0.0,0.0,0.0,0.0,0.0,0.0,0.0,0.0,0.0,0.0,0.0,0.0,0.0,0.0,0.0,0.0,0.0,0.0,0.0,0.0,0.0,0.0,0.0,0.0,0.0,0.0,0.0,0.0,0.0,0.0,0.0,0.0,0.0,0.0,0.0,0.0,0.0,0.0,0.0,0.0,0.0,0.0,0.0,0.0,0.0,0.0,0.0,0.0,0.0,0.0,0.0,0.0,0.0,0.0,0.0,0.0,0.0,0.0,0.0,0.0,0.0,0.0,0.0,0.0,0.0,0.0,0.0,0.0,0.0,0.0,0.0,0.0,0.0,0.0,0.0,0.0,-0.0,-0.032,-0.2863,-0.7322,-0.7111,-0.5708,-0.3729,-0.3229,-0.2586,-0.044,0.0,-0.0689,-0.3069,-0.6377,-0.8524,-0.7339,-0.52,-0.3651,-0.382,-0.1729,0.0,0.0,0.0,0.0,0.0,0.0,0.0,0.0,0.0,0.0,0.0,0.0,0.0,0.0,0.0,0.0,0.0,0.0,0.0,0.0,0.0,0.0,0.0,0.0,0.0,0.0,0.0,0.0,0.0,0.0,0.0,0.0,0.0,0.0,0.0,0.0,0.0,0.0,0.0,0.0,0.0,0.0,0.0,0.0,0.0,0.0,0.0,0.0,0.0,0.0,0.0,0.0,0.0,0.0,0.0,0.0,0.0,0.0,0.0,0.0,0.0,0.0,0.0,0.0,0.0,0.0,0.0,0.0,0.0,0.0,0.0,0.0,0.0,0.0,0.0,0.0,0.0,0.0,0.0,0.0,0.0,0.0,0.0,0.0,0.0,0.0,0.0,0.0,0.0,0.0,0.0,0.0,0.0,0.0,-0.0968,-0.5467,-0.5611,-0.475,-0.0909,0.0,0.0,0.0,0.0,0.0,0.0,-0.3346,-0.6257,-0.6319,-0.2808,0.0,0.0,0.0,0.0,0.0,0.0,0.0,0.0,0.0,0.0,0.0,0.0,0.0,0.0,0.0,0.0,0.0,0.0,0.0,0.0,0.0,0.0,0.0,0.0,0.0,0.0,0.0,0.0,0.0,0.0,0.0,0.0,0.0,0.0,0.0,0.0,0.0,0.0,0.0,0.0,0.0,0.0,0.0,0.0,0.0,0.0,0.0,0.0,0.0,0.0,0.0,0.0,0.0,0.0,0.0,0.0,0.0,0.0,0.0,0.0,0.0,0.0,0.0,0.0,0.0,0.0,0.0,0.0,0.0,0.0,0.0,0.0,0.0,0.0,0.0,0.0,0.0,0.0,0.0,0.0,0.0,0.0,0.0,0.0,0.0,0.0,0.0,0.0,0.0,0.0,0.0,0.0,0.0,0.0,0.0,0.0,0.0,0.0,-0.1492,-0.0104,-0.0101,-0.0,0.0,0.0,0.0,0.0,0.0,0.0,-0.0,-0.0119,-0.0123,-0.0,0.0,0.0,0.0,0.0,0.0,0.0,0.0,0.0,0.0,0.0,0.0,0.0,0.0,0.0,0.0,0.0,0.0,0.0,0.0,0.0,0.0,0.0,0.0,0.0,0.0,0.0,0.0,0.0,0.0,0.0,0.0,0.0,0.0,0.0,0.0,0.0,0.0,0.0,0.0,0.0,0.0,0.0,0.0,0.0,0.0,0.0,0.0,0.0,0.0,0.0,0.0,0.0,0.0,0.0,0.0,0.0,0.0,0.0,0.0,0.0,0.0,0.0,0.0,0.0,0.0,0.0,0.0,0.0,0.0,0.0,0.0,0.0,0.0,0.0,0.0,0.0,0.0,0.0,0.0,0.0,0.0,0.0,0.0,0.0,0.0,0.0,0.0,0.0,0.0,0.0,0.0,0.0,0.0,0.0,0.0,0.0,0.0,0.0,-0.0443,0.0,0.0,0.0,0.0,0.0,0.0,0.0,0.0,0.0,0.0,0.0,0.0,0.0,0.0,0.0,0.0,0.0,0.0,0.0,0.0,0.0,0.0,0.0,0.0,0.0,0.0,0.0,0.0,0.0,0.0,0.0,0.0,0.0,0.0,0.0,0.0,0.0,0.0,0.0,0.0,0.0,0.0,0.0,0.0,0.0,0.0,0.0,0.0,0.0,0.0,0.0,0.0,0.0,0.0,0.0,0.0,0.0,0.0,0.0,0.0,0.0,0.0,0.0,0.0,0.0,0.0,0.0,0.0,0.0,0.0,0.0,0.0,0.0,0.0,0.0,0.0,0.0,0.0,0.0,0.0,0.0,0.0,0.0,0.0,0.0,0.0,0.0,0.0,0.0,0.0,0.0,0.0,0.0,0.0,0.0,0.0,0.0,0.0,0.0,0.0,0.0,0.0,0.0,0.0,0.0,0.0,0.0,0.0,0.0,0.0,0.0,0.0,0.0,0.0,0.0,0.0,0.0,0.0,0.0,0.0,0.0,0.0,0.0,0.0,0.0,0.0,0.0,0.0,0.0,0.0,0.0,0.0,0.0,0.0,0.0,0.0,0.0,0.0,0.0,0.0,0.0,0.0,0.0,0.0,0.0,0.0,0.0,0.0,0.0,0.0,0.0,0.0,0.0,0.0,0.0,0.0,0.0,0.0,0.0,0.0,0.0,0.0,0.0,0.0,0.0,0.0,0.0,0.0,0.0,0.0,0.0,0.0,0.0,0.0,0.0,0.0,0.0,0.0,0.0,0.0,0.0,0.0,0.0,0.0,0.0,0.0,0.0,0.0,0.0,0.0,0.0,0.0,0.0,0.0,0.0,0.0,0.0,0.0,0.0,0.0,0.0,0.0,0.0,0.0,0.0,0.0,0.0,0.0,0.0,0.0,0.0,0.0,0.0,0.0,0.0,0.0,0.0,0.0,0.0,0.0,0.0,0.0,0.0,0.0,0.0,0.0,0.0,0.0,0.0,0.0,0.0,0.0,0.0,0.0,0.0,0.0,0.0,0.0,0.0,0.0,0.0,0.0,0.0,0.0,0.0,0.0,0.0,0.0,0.0,0.0,0.0,0.0,0.0,0.0,0.0,0.0,0.0,0.0613,0.062,0.0,0.0,0.0,0.0,0.0,0.0,0.0,0.0,0.0,0.0,0.0,0.0,0.0,0.0,0.0,0.0,0.0,0.0,0.0,0.0,0.0,0.0,0.0,0.0,0.0,0.0,0.0,0.0,0.0,0.0,0.0,0.0,0.0,0.0,0.0,0.0,0.0,0.0,0.0,0.0,0.0,0.0,0.0,0.0,0.0,0.0,0.0,0.0,0.0,0.0,0.0,0.0,0.0,0.0,0.0,0.0,0.0,0.0,0.0,0.0,0.0,0.0,0.0,0.0,0.0,0.0,0.0,0.0,0.0,0.0,0.0,0.0,0.0,0.0,0.0,0.0,0.0,0.0,0.0,0.0,0.0,0.0,0.0,0.0,0.0,0.0,0.0,0.0,0.0,0.0,0.0,0.0,0.0,0.0,0.0,0.0,0.0,0.0,0.0,0.0,0.0,0.0,0.0,0.0,0.0,0.0,0.0,0.0,0.0,0.0,0.6291,0.6523,0.0,0.0,0.0,0.0,0.0,0.0,0.0,0.0,0.0,0.0,0.0,0.0,0.0,0.0,0.0,0.0,0.0,0.0,0.0,0.0,0.0,0.0,0.0,0.0,0.0,0.0,0.0,0.0,0.0,0.0,0.0,0.0,0.0,0.0,0.0,0.0,0.0,0.0,0.0,0.0,0.0,0.0,0.0,0.0,0.0,0.0,0.0,0.0,0.0,0.0,0.0,0.0,0.0,0.0,0.0,0.0,0.0,0.0,0.0,0.0,0.0,0.0,0.0,0.0,0.0,0.0,0.0,0.0,0.0,0.0,0.0,0.0,0.0,0.0,0.0,0.0,0.0,0.0,0.0,0.0,0.0,0.0,0.0,0.0,0.0,0.0,0.0,0.0,0.0,0.0,0.0,0.0,0.0,0.0,0.0,0.0,0.0,0.0,0.0,0.0,0.0,0.0,0.0,0.0,0.0,0.0,0.0,0.0,0.0,0.0,0.0,0.8384,0.5811,0.392,0.1886,0.0,0.2053,0.4121,0.0,0.0,0.0,0.0,0.0,0.0,0.3082,0.3082,0.1791,0.0,0.0,0.0,0.0,0.0,0.0,0.0,0.0,0.0,0.0,0.0,0.0,0.0,0.0,0.0,0.0,0.0,0.0,0.0,0.0,0.0,0.0,0.0,0.0,0.0,0.0,0.0,0.0,0.0,0.0,0.0,0.0,0.0,0.0,0.0,0.0,0.0,0.0,0.0,0.0,0.0,0.0,0.0,0.0,0.0,0.0,0.0,0.0,0.0,0.0,0.0,0.0,0.0,0.0,0.0,0.0,0.0,0.0,0.0,0.0,0.0,0.0,0.0,0.0,0.0,0.0,0.0,0.0,0.0,0.0,0.0,0.0,0.0,0.0,0.0,0.0,0.0,0.0,0.0,0.0,0.0,0.0,0.0,0.0,0.0,0.0,0.0,0.0,0.0,0.0,0.0,0.0,0.0,0.0,0.0,0.0,0.0,1.2541,0.9135,0.5522,0.2075,0.5263,0.9012,1.326,0.0,0.0,0.0,0.0,0.0,0.7665,0.7665,0.5412,0.1986,0.0496,0.0,0.0,0.0,0.0,0.0,0.0,0.0,0.0,0.0,0.0,0.0,0.0,0.0,0.0,0.0,0.0,0.0,0.0,0.0,0.0,0.0,0.0,0.0,0.0,0.0,0.0,0.0,0.0,0.0,0.0,0.0,0.0,0.0,0.0,0.0,0.0,0.0,0.0,0.0,0.0,0.0,0.0,0.0,0.0,0.0,0.0,0.0,0.0,0.0,0.0,0.0,0.0,0.0,0.0,0.0,0.0,0.0,0.0,0.0,0.0,0.0,0.0,0.0,0.0,0.0,0.0,0.0,0.0,0.0,0.0,0.0,0.0,0.0,0.0,0.0,0.0,0.0,0.0,0.0,0.0,0.0,0.0,0.0,0.0,0.0,0.0,0.0,0.0,0.0,0.0,0.0,0.0,0.0,0.0,0.0,0.0,1.2357,1.1714,1.1034,0.8084,0.9074,1.3394,1.2684,0.0,0.0,0.0,0.0,1.2322,1.2322,1.1993,1.064,0.3023,0.0,0.0,0.0,0.0,0.0,0.0,0.0,0.0,0.0,0.0,0.0,0.0,0.0,0.0,0.0,0.0,0.0,0.0,0.0,0.0,0.0,0.0,0.0,0.0,0.0,0.0,0.0,0.0,0.0,0.0,0.0,0.0,0.0,0.0,0.0,0.0,0.0,0.0,0.0,0.0,0.0,0.0,0.0,0.0,0.0,0.0,0.0,0.0,0.0,0.0,0.0,0.0,0.0,0.0,0.0,0.0,0.0,0.0,0.0,0.0,0.0,0.0,0.0,0.0,0.0,0.0,0.0,0.0,0.0,0.0,0.0,0.0,0.0,0.1282,0.5212,0.0,0.0,0.0,0.0,0.0,0.0,0.0,0.0,0.0,0.0,0.0,0.0,0.0,0.0,0.0,0.0,0.0,0.0,0.0,0.0,0.0,1.3024,1.2923,1.2697,1.0986,1.1359,1.3329,1.3376,1.341,0.0,0.0,0.9771,0.978,0.978,1.1154,1.3062,0.8778,0.421,0.0,0.0,0.0,0.0,0.0,0.0,0.0842,0.5726,0.7249,0.6738,0.4367,0.3692,0.3692,0.3692,0.1849,0.0,0.0,0.0,0.0,0.0,0.0,0.0,0.0,0.0,0.0,0.0,0.0,0.0,0.0,0.0,0.0,0.0,0.0,0.0,0.0,0.0,0.0,0.0,0.0,0.0,0.0,0.0,0.0,0.0,0.0,0.0,0.0,0.0,0.0,0.0,0.0,0.0,0.0,0.0,0.0,0.0,0.0,0.0,0.0,0.0,0.0,0.0,0.0,0.0,0.0,0.0,0.0494,0.1977,0.2347,0.2347,0.2479,0.1137,0.0,0.9504,0.0,0.0,0.0,0.0,0.0,0.0,0.0,0.0,0.0,0.0,0.0,0.0,0.0,0.0,0.0,0.0,0.0,0.0,0.0,0.0,0.0,1.318,1.2959,1.2682,1.2288,1.2179,1.2328,1.3151,1.2804,1.1617,0.8219,0.7379,0.8236,0.8232,1.0278,1.3217,1.2173,0.7577,0.1513,0.1513,0.1513,0.1513,0.1513,0.1513,0.269,0.9608,1.2514,1.2682,0.9244,0.8219,0.8219,0.8219,0.5709,0.2859,0.1849,0.1513,0.1513,0.1513,0.1513,0.1513,0.1513,0.0673,0.0,0.0,0.0,0.0,0.0,0.0,0.0,0.0,0.0,0.0,0.0,0.0,0.0,0.0,0.0,0.0,0.0,0.0,0.0,0.0,0.0,0.0,0.0,0.0,0.0,0.0,0.0,0.0,0.0,0.0,0.0,0.0,0.0,0.0,0.0,0.0,0.0,0.0,0.0,0.0,0.0,0.0,0.173,0.783,0.9075,0.9224,0.0,0.4426,0.2293,0.9498,0.0,0.0,0.0,0.0,0.0,0.0,0.0,0.0,0.0,0.0,0.0,0.0,0.0,0.0,0.0,0.0,0.0,0.0,0.0,0.0,0.0,0.0,1.3403,1.3271,1.0544,0.9193,0.9373,1.2056,1.1059,0.7208,0.6871,0.9091,1.2907,1.2881,1.3043,1.3036,0.8738,0.6703,0.6199,0.6199,0.6199,0.6199,0.6199,0.6199,0.6369,0.7041,0.9918,1.3338,1.2991,1.2991,1.2991,1.2991,1.265,1.1455,0.7379,0.6199,0.6199,0.6199,0.6199,0.6199,0.6199,0.3017,0.0,0.0,0.0,0.0,0.0,0.0,0.0,0.0,0.0,0.0,0.0,0.0,0.0,0.0,0.0,0.0,0.0,0.0,0.0,0.0,0.0,0.0,0.0,0.0,0.0,0.0,0.0,0.0,0.0,0.0,0.0,0.0,0.0,0.0,0.2015,0.1316,0.0,0.0,0.0,0.1109,0.514,0.6149,0.695,0.9817,0.8664,0.0,0.0,0.0,0.4275,0.0,0.0,0.0,0.0,0.0,0.0,0.0,0.0,0.0,0.0,0.0,0.0,0.0,0.0,0.0,0.0,0.0,0.0,0.0,0.0,0.0,0.0,0.0,1.3349,1.3284,1.0382,0.9883,1.1772,1.2958,1.2451,1.0764,0.7881,0.7722,0.9263,0.9254,1.0948,1.3184,1.1455,1.0937,1.0937,1.0937,1.0937,1.0937,1.0937,1.0937,1.0931,1.0915,1.2099,1.3464,1.3444,1.3437,1.3437,1.3437,1.3437,1.2938,1.1271,1.0937,1.0937,1.0937,1.0937,1.0937,1.0937,0.9593,0.6727,0.1007,0.0,0.0,0.0,0.0,0.0,0.0,0.0,0.0,0.0,0.0,0.0,0.0,0.0,0.0,0.0,0.0,0.0,0.0,0.0,0.0,0.0,0.0,0.0,0.0,0.0,0.0,0.0,0.0,0.0,0.0,0.0,0.0,0.4034,0.3421,0.2063,0.047,0.1698,0.4468,0.8781,0.9794,0.9985,1.0503,0.8684,0.7791,1.0206,0.0,0.0,0.0,0.0,0.0,0.0,0.0,0.0,0.0,0.0,0.0,0.0,0.0,0.0,0.0,0.0,0.0,0.0,0.0,0.0,0.0,0.0,0.0,0.0,0.0,1.3336,1.3437,1.1386,1.1403,1.3318,1.3478,1.3478,1.3151,1.0075,0.8887,0.8896,0.8887,1.0576,1.3471,1.3471,1.3471,1.3471,1.3471,1.3471,1.3471,1.3471,1.3471,1.3464,1.3444,1.3437,1.3431,1.341,1.3403,1.3403,1.3403,1.3403,1.341,1.3458,1.3471,1.3471,1.3471,1.3471,1.3471,1.3471,1.3338,1.1137,0.3521,0.1008,0.0,0.0,0.0,0.0,0.0,0.0,0.0,0.0,0.0,0.0,0.0,0.0,0.0,0.0,0.0,0.0,0.0,0.0,0.0,0.0,0.0,0.0,0.0,0.0,0.0,0.0,0.0,0.0,0.0,0.0,0.0,0.5647,0.6468,0.6749,0.1437,0.5425,1.0552,0.9943,0.9817,0.9861,1.0232,1.0493,1.0658,1.0492,0.0,0.0,0.0,0.0,0.0,0.0,0.0,0.0,0.0,0.0,0.0,0.0,0.0,0.0,0.0,0.0,0.0,0.0,0.0,0.0,0.0,0.0,0.0,0.0,0.0,1.3397,1.3403,1.3403,1.3417,1.3451,1.3417,1.3417,1.3451,1.3451,1.3471,1.3331,1.3464,1.3431,1.3403,1.3403,1.3403,1.3403,1.3403,1.3403,1.3403,1.3403,1.3403,1.3403,1.3403,1.3403,1.3403,1.3403,1.3403,1.3403,1.3403,1.3403,1.3403,1.3403,1.3403,1.3403,1.3403,1.3403,1.3403,1.3403,1.3451,1.213,0.7547,0.3023,0.0,0.0,0.0,0.0,0.0,0.0,0.0,0.0,0.0,0.0,0.0,0.0,0.0,0.0,0.0,0.0,0.0,0.0,0.0,0.0,0.0,0.0,0.0,0.0,0.0,0.0,0.0,0.0,0.0,0.0,0.0,0.7252,0.8188,0.8882,0.705,0.678,0.7582,0.9735,1.021,1.0168,0.0,1.0558,1.0672,1.065,0.0,0.0,0.0,0.0,0.0,0.0,0.0,0.0,0.0,0.0,0.0,0.0,0.0,0.0,0.0,0.0,0.0,0.0,0.0,0.0,0.0,0.0,0.0,0.0,0.0,0.0,1.3403,1.3403,1.3403,1.3417,1.3403,1.3403,1.3417,1.3417,1.3424,1.3431,1.3417,1.341,1.3403,1.3403,1.3403,1.3403,1.3403,1.3403,1.3403,1.3403,1.3403,1.3403,1.3403,1.3403,1.3403,1.3403,1.3403,1.3403,1.3403,1.3403,1.3403,1.3403,1.3403,1.3403,1.3403,1.3403,1.3403,1.3403,1.3437,1.2105,0.7543,0.3018,0.0,0.0,0.0,0.0,0.0,0.0,0.0,0.0,0.0,0.0,0.0,0.0,0.0,0.0,0.0,0.0,0.0,0.0,0.0,0.0,0.0,0.0,0.0,0.0,0.0,0.0,0.0,0.0,0.0,0.0,0.0,0.8464,0.8558,0.8778,0.9526,0.8493,0.7912,1.0052,0.0,0.0,0.0,0.0,0.0,0.0,0.0,0.0,0.0,0.0,0.0,0.0,0.0,0.0,0.0,0.0,0.0,0.0,0.0,0.0,0.0,0.0,0.0,0.0,0.0,0.0,0.0,0.0,0.0,0.0,0.0,0.0,0.0,1.3403,1.3403,1.3403,1.3403,1.3403,1.3403,1.3403,1.3403,1.3403,1.3403,1.3403,1.3403,1.3403,1.3403,1.3403,1.3403,1.3403,1.3403,1.3403,1.3403,1.3403,1.3403,1.3403,1.3403,1.3403,1.3403,1.3403,1.3403,1.3403,1.3403,1.3403,1.3403,1.3403,1.3403,1.3403,1.3403,1.3403,1.3431,1.2605,0.9898,0.5694,0.2012,0.0336,0.0,0.0,0.0,0.0,0.0,0.0,0.0,0.0,0.0,0.0,0.0,0.0,0.0,0.0,0.0,0.0,0.0,0.0,0.0,0.0,0.0,0.0,0.0,0.0,0.0,0.0,0.0,0.0,0.0,0.93,0.8228,0.751,0.96,1.0243,1.0426,1.0704,1.0636,1.0521,1.0534,0.0,0.0,0.0,0.0,0.0,0.0,0.0,0.0,0.0,0.0,0.0,0.0,0.0,0.0,0.0,0.0,0.0,0.0,0.0,0.0,0.0,0.0,0.0,0.0,0.0,0.0,0.0,0.0,0.0,0.0,0.0,1.3403,1.3403,1.3403,1.3403,1.3403,1.3403,1.3403,1.3403,1.3403,1.3403,1.3403,1.3403,1.3403,1.3403,1.3403,1.3403,1.3403,1.3403,1.3403,1.3403,1.3403,1.3403,1.3403,1.3403,1.341,1.3424,1.3424,1.3431,1.3444,1.3444,1.3444,1.3444,1.3444,1.3431,1.3424,1.3437,1.3464,1.3492,1.3492,1.0095,0.605,0.185,0.1188,0.1197,0.0685,0.0691,0.0695,0.0695,0.0695,0.0695,0.0696,0.0174,0.0,0.0,0.0,0.0,0.0,0.0,0.0,0.0,0.0,0.0,0.0,0.0,0.0,0.0,0.0,0.0,0.0,0.0,0.0,0.9293,0.9196,0.9201,1.031,1.0534,1.0649,1.0717,1.0704,1.0717,1.0611,0.0,0.0,0.0,0.0,0.0,0.0,0.0,0.0,0.0,0.0,0.0,0.0,0.0,0.0,0.0,0.0,0.0,0.0,0.0,0.0,0.0,0.0,0.0,0.0,0.0,0.0,0.0,0.0,0.0,0.0,1.3403,1.3403,1.3403,1.3403,1.3403,1.3403,1.3403,1.3403,1.3403,1.3403,1.3403,1.3403,1.3403,1.3403,1.3403,1.3403,1.3403,1.3403,1.3403,1.3403,1.3403,1.3403,1.3403,1.3403,1.3403,1.3485,1.358,1.358,1.3661,1.3743,1.3743,1.3743,1.3743,1.3743,1.3661,1.3607,1.3722,1.3749,1.3763,1.3619,1.2771,1.1578,1.0725,1.0929,0.9889,0.6215,0.5531,0.554,0.554,0.554,0.5559,0.5608,0.2281,0.0,0.0,0.0,0.0,0.0,0.0,0.0,0.0,0.0,0.0,0.0,0.0,0.0,0.0,0.0,0.0,0.0,0.0,0.0,0.9361,0.9659,0.993,1.0527,1.0561,1.0609,1.0609,1.067,1.0772,0.0,0.0,0.0,0.0,0.0,0.0,0.0,0.0,0.0,0.0,0.0,0.0,0.0,0.0,0.0,0.0,0.0,0.0,0.0,0.0,0.0,0.0,0.0,0.0,0.0,0.0,0.0,1.3281,1.3363,1.3403,1.3403,1.3403,1.3403,1.3403,1.3403,1.3403,1.3403,1.3403,1.3403,1.3403,1.3403,1.3403,1.3403,1.3403,1.3403,1.3403,1.3403,1.3403,1.3403,1.3403,1.3403,1.3403,1.3403,1.3403,1.3417,1.3492,1.3566,1.3641,1.3709,1.3783,1.3838,1.3838,1.3838,1.3858,1.3933,1.3838,1.3749,1.3824,1.3838,1.3851,1.3713,1.372,1.3561,1.3607,1.4034,1.3384,1.093,1.0575,1.0575,1.0575,1.0575,1.06,1.048,0.8349,0.4979,0.0358,0.0,0.0,0.0,0.0,0.0,0.0,0.0,0.0,0.0,0.0,0.0,0.0,0.0,0.0,0.0,0.0,0.0,0.9415,0.9842,1.0188,1.0466,1.0555,0.0,1.0568,1.069,1.0839,0.0,0.0,0.0,0.0,0.0,0.0,0.0,0.0,0.0,0.0,0.0,0.0,0.0,0.0,0.0,0.0,0.0,0.0,0.0,0.0,0.0,0.0,0.0,0.0,0.0,0.0,0.0,1.3397,1.3403,1.3403,1.3403,1.3403,1.3403,1.3403,1.3403,1.3403,1.3403,1.3403,1.3403,1.3403,1.3403,1.3403,1.3403,1.3403,1.3403,1.3403,1.3403,1.3403,1.3403,1.3403,1.3417,1.3437,1.3437,1.3458,1.3498,1.3627,1.3682,1.3729,1.3851,1.3899,1.3919,1.3919,1.3919,1.3953,1.4082,1.4014,1.3919,1.3919,1.3919,1.3926,1.378,1.3774,1.3946,1.3834,1.4122,1.4251,1.4367,1.4387,1.4387,1.4387,1.4387,1.4387,1.4387,1.4216,1.112,0.3217,0.0894,0.0,0.0,0.0,0.0,0.0,0.0,0.0,0.0,0.0,0.0,0.0,0.0,0.0,0.0,0.0,0.0,0.9286,0.991,1.0473,1.0643,1.0785,1.0887,0.0,0.0,0.0,0.0,0.0,0.0,0.0,0.0,0.0,0.0,0.0,0.0,0.0,0.0,0.0,0.0,0.0,0.0,0.0,0.0,0.0,0.0,0.0,0.0,0.0,0.0,0.0,0.0,0.0,0.0,1.3397,1.3403,1.3403,1.3403,1.3403,1.3403,1.3403,1.3403,1.3403,1.3403,1.3403,1.3403,1.3403,1.3403,1.3403,1.3403,1.3403,1.3403,1.3403,1.3403,1.3403,1.3403,1.3403,1.3485,1.36,1.36,1.3682,1.3783,1.3804,1.3905,1.4014,1.4034,1.4136,1.4238,1.4238,1.4238,1.4245,1.4265,1.4251,1.4238,1.4238,1.4238,1.4238,1.4245,1.4265,1.4285,1.4292,1.4312,1.4326,1.4312,1.4312,1.4312,1.4312,1.4312,1.4312,1.4312,1.434,1.3813,1.2538,0.4825,0.0,0.0,0.0,0.0,0.0,0.0,0.0,0.0,0.0,0.0,0.0,0.0,0.0,0.0,0.0,0.0,0.9435,1.0053,1.0548,1.0785,1.0833,1.0867,1.1029,0.0,0.0,0.0,0.0,0.0,0.0,0.0,0.0,0.0,0.0,0.0,0.0,0.0,0.0,0.0,0.0,0.0,0.0,0.0,0.0,0.0,0.0,0.0,0.0,1.2813,1.2956,1.3166,1.3254,0.0,1.3403,1.3403,1.3403,1.3403,1.3403,1.3403,1.3403,1.3403,1.3403,1.3403,1.3403,1.3403,1.3403,1.3403,1.3403,1.3403,1.3403,1.3403,1.341,1.3498,1.3532,1.3539,1.362,1.3688,1.3749,1.3749,1.379,1.3858,1.3946,1.4021,1.4089,1.4177,1.4245,1.4299,1.4299,1.4299,1.4299,1.4299,1.4299,1.4299,1.4299,1.4299,1.4299,1.4299,1.4326,1.4346,1.4326,1.4319,1.4319,1.4299,1.4299,1.4299,1.4299,1.4299,1.4299,1.4299,1.4312,1.4333,1.4346,1.0392,0.5725,0.0358,0.0,0.0,0.0,0.0,0.0,0.0,0.0,0.0,0.0,0.0,0.0,0.0,0.0,0.0,0.9557,1.0066,1.046,1.0806,1.086,1.0887,0.0,0.0,0.0,0.0,0.0,0.0,0.0,0.0,0.0,0.0,0.0,0.0,0.0,0.0,0.0,0.0,0.0,0.0,0.0,0.0,0.0,0.0,0.0,0.0,0.0,1.2935,1.3078,1.3227,1.3342,1.3403,1.3403,1.3403,1.3403,1.3403,1.3403,1.3403,1.3403,1.3403,1.3403,1.3403,1.3403,1.3403,1.3403,1.3403,1.3403,1.3403,1.3444,1.3458,1.3478,1.3627,1.3682,1.3695,1.3804,1.3865,1.3899,1.3899,1.3926,1.398,1.4095,1.4129,1.4156,1.4272,1.4299,1.4299,1.4299,1.4299,1.4299,1.4299,1.4299,1.4299,1.4299,1.4299,1.4299,1.4299,1.4319,1.4333,1.4306,1.4299,1.4299,1.4299,1.4299,1.4299,1.4299,1.4299,1.4299,1.4299,1.4299,1.4312,1.4333,1.4373,1.0758,0.2324,0.0717,0.0,0.0,0.0,0.0,0.0,0.0,0.0,0.0,0.0,0.0,0.0,0.0,0.0,0.949,0.9842,1.0181,1.0622,1.0934,1.1145,0.0,0.0,0.0,0.0,0.0,0.0,0.0,0.0,0.0,0.0,0.0,0.0,0.0,0.0,0.0,0.0,0.0,0.0,0.0,0.0,0.0,0.0,0.0,0.0,1.2942,1.3085,1.3234,1.3383,1.3397,1.3403,1.3403,1.3403,1.3403,1.3403,1.3403,1.3403,1.3403,1.3403,1.3403,1.3403,1.3403,1.3403,1.3403,1.3403,1.3403,1.3417,1.3559,1.3614,1.3634,1.3777,1.3831,1.3831,1.3838,1.3939,1.4061,1.4061,1.4156,1.4278,1.4285,1.4285,1.4292,1.4299,1.4299,1.4299,1.4299,1.4299,1.4299,1.4299,1.4299,1.4299,1.4299,1.4299,1.4299,1.4299,1.4299,1.4299,1.4299,1.4299,1.4299,1.4299,1.4299,1.4299,1.4299,1.4299,1.4299,1.4299,1.4299,1.4299,1.4299,1.4333,1.2177,0.6968,0.2503,0.0,0.0,0.0,0.0,0.0,0.0,0.0,0.0,0.0,0.0,0.0,0.0,0.0,0.951,0.9822,1.0134,1.0487,1.0799,1.105,1.1138,0.0,0.0,0.0,0.0,0.0,0.0,0.0,0.0,0.0,0.0,0.0,0.0,0.0,0.0,0.0,0.0,0.0,0.0,0.0,0.0,0.0,0.0,0.0,1.3085,1.3146,1.3241,1.3397,1.3403,1.3403,1.3403,1.3403,1.3403,1.3403,1.3498,1.3546,1.3553,1.3641,1.3682,1.3682,1.3682,1.3634,1.3553,1.3648,1.3682,1.3688,1.3743,1.3763,1.3783,1.3933,1.3987,1.4,1.4102,1.417,1.4217,1.4217,1.4258,1.4299,1.4299,1.4299,1.4299,1.4299,1.4299,1.4299,1.4299,1.4299,1.4299,1.4299,1.4299,1.4299,1.4299,1.4299,1.4299,1.4299,1.4299,1.4299,1.4299,1.4299,1.4299,1.4299,1.4299,1.4299,1.4299,1.4299,1.4299,1.4299,1.4299,1.4299,1.4299,1.4353,1.3477,1.1844,0.4297,0.0,0.0,0.0,0.0,0.0,0.0,0.0,0.0,0.0,0.0,0.0,0.0,0.0,0.9462,0.0,0.0,0.0,1.0683,1.0873,1.1172,0.0,0.0,0.0,0.0,0.0,0.0,0.0,0.0,0.0,0.0,0.0,0.0,0.0,0.0,0.0,0.0,0.0,0.0,0.0,0.0,0.0,0.0,0.0,1.3159,1.322,1.3295,1.3397,1.3403,1.3403,1.3403,1.3451,1.3478,1.3478,1.3627,1.3702,1.3702,1.3797,1.3838,1.3844,1.3899,1.3838,1.3709,1.3804,1.3838,1.3844,1.3899,1.3919,1.3939,1.4089,1.415,1.4163,1.4265,1.4299,1.4299,1.4299,1.4299,1.4299,1.4299,1.4299,1.4299,1.4299,1.4299,1.4299,1.4299,1.4299,1.4299,1.4299,1.4299,1.4299,1.4299,1.4299,1.4299,1.4299,1.4299,1.4299,1.4299,1.4299,1.4299,1.4299,1.4299,1.4299,1.4299,1.4299,1.4299,1.4299,1.4299,1.4306,1.4312,1.436,1.4216,1.4242,0.8262,0.3411,0.018,0.0,0.0,0.0,0.0,0.0,0.0,0.0,0.0,0.0,0.0,0.0,0.0,0.0,0.0,0.0,0.0,0.0,0.0,0.0,0.0,0.0,0.0,0.0,0.0,0.0,0.0,0.0,0.0,0.0,0.0,0.0,0.0,0.0,0.0,0.0,0.0,0.0,0.0,0.0,0.0,0.0,1.3173,1.3322,1.3403,1.3403,1.3403,1.3403,1.341,1.3553,1.3634,1.3641,1.3777,1.3844,1.3844,1.3851,1.3851,1.3865,1.4014,1.3994,1.3851,1.3851,1.3851,1.3871,1.4021,1.4082,1.4095,1.4245,1.4299,1.4299,1.4299,1.4299,1.4299,1.4299,1.4299,1.4299,1.4299,1.4299,1.4299,1.4299,1.4299,1.4299,1.4299,1.4299,1.4299,1.4299,1.4299,1.4299,1.4299,1.4299,1.4299,1.4299,1.4299,1.4299,1.4299,1.4299,1.4299,1.4299,1.4299,1.4299,1.4299,1.4299,1.4299,1.4299,1.4299,1.4312,1.4346,1.4169,1.4018,1.4084,1.3905,0.972,0.0359,0.0,0.0,0.0,0.0,0.0,0.0,0.0,0.0,0.0,0.0,0.0,0.9367,0.0,0.0,0.0,0.0,0.0,0.0,0.0,0.0,0.0,0.0,0.0,0.0,0.0,0.0,0.0,0.0,0.0,0.0,0.0,0.0,0.0,0.0,0.0,0.0,0.0,0.0,0.0,0.0,1.318,1.3329,1.3376,1.3403,1.3403,1.3403,1.3451,1.3566,1.3607,1.3682,1.3783,1.3933,1.4007,1.4014,1.4122,1.417,1.4177,1.4217,1.4211,1.417,1.417,1.417,1.4177,1.4217,1.4238,1.4245,1.4285,1.4299,1.4299,1.4299,1.4299,1.4299,1.4299,1.4299,1.4299,1.4299,1.4299,1.4299,1.4299,1.4299,1.4299,1.4299,1.4299,1.4299,1.4299,1.4299,1.4299,1.4299,1.4299,1.4299,1.4299,1.4299,1.4299,1.4299,1.4299,1.4299,1.4299,1.4299,1.4299,1.4299,1.4299,1.4299,1.4299,1.4299,1.4306,1.4312,1.1083,0.9121,0.9134,0.5918,0.2702,0.0182,0.0,0.0,0.0,0.0,0.0,0.0,0.0,0.0,0.0,0.0,0.0,0.0,0.0,0.0,0.0,0.0,0.0,0.0,0.0,0.0,0.0,0.0,0.0,0.0,0.0,0.0,0.0,0.0,0.0,0.0,0.0,0.0,0.0,0.0,0.0,0.0,0.0,0.0,0.0,1.3125,1.3241,1.339,1.3403,1.3403,1.3403,1.3464,1.3539,1.3627,1.3749,1.3858,1.3939,1.4095,1.4163,1.417,1.4258,1.4299,1.4299,1.4299,1.4299,1.4299,1.4299,1.4299,1.4299,1.4299,1.4299,1.4299,1.4299,1.4299,1.4299,1.4299,1.4299,1.4299,1.4299,1.4299,1.4299,1.4299,1.4299,1.4299,1.4299,1.4299,1.4299,1.4299,1.4299,1.4299,1.4299,1.4299,1.4299,1.4299,1.4299,1.4299,1.4299,1.4299,1.4299,1.4299,1.4299,1.4299,1.4299,1.4299,1.4299,1.4299,1.4299,1.4299,1.4299,1.4299,1.4333,1.4407,1.1715,0.8481,0.4344,0.1453,0.0,0.0,0.0,0.0,0.0,0.0,0.0,0.0,0.0,0.0,0.0,0.0,0.0,0.0,0.0,0.0,0.0,0.0,0.0,0.0,0.0,0.0,0.0,0.0,0.0,0.0,0.0,0.0,0.0,0.0,0.0,0.0,0.0,0.0,0.0,0.0,0.0,0.0,0.0,0.0,1.3152,1.3186,1.3254,1.3397,1.3403,1.341,1.3424,1.3559,1.3648,1.3682,1.3939,1.4082,1.4095,1.4238,1.4299,1.4299,1.4299,1.4299,1.4299,1.4299,1.4299,1.4299,1.4299,1.4299,1.4299,1.4299,1.4299,1.4299,1.4299,1.4299,1.4299,1.4299,1.4299,1.4299,1.4299,1.4299,1.4299,1.4299,1.4299,1.4299,1.4299,1.4299,1.4299,1.4299,1.4299,1.4299,1.4299,1.4299,1.4299,1.4299,1.4299,1.4299,1.4299,1.4299,1.4299,1.4299,1.4299,1.4299,1.4299,1.4299,1.4299,1.4299,1.4326,1.434,1.4326,1.434,1.4414,1.457,1.4443,1.0441,0.129,0.037,0.0,0.0,0.0,0.0,0.0,0.0,0.0,0.0,0.0,0.0,0.0,0.0,0.0,0.0,0.0,0.0,0.0,0.0,0.0,0.0,0.0,0.0,0.0,0.0,0.0,0.0,0.0,0.0,0.0,0.0,0.0,0.0,0.0,0.0,0.0,0.0,0.0,0.0,0.0,0.0,1.3159,1.3288,1.337,1.3397,1.3403,1.3458,1.358,1.3614,1.3743,1.398,1.4041,1.4136,1.4258,1.4285,1.4299,1.4299,1.4299,1.4299,1.4299,1.4299,1.4299,1.4299,1.4299,1.4299,1.4299,1.4299,1.4299,1.4299,1.4299,1.4299,1.4299,1.4299,1.4299,1.4299,1.4299,1.4299,1.4299,1.4299,1.4299,1.4299,1.4299,1.4299,1.4299,1.4299,1.4299,1.4299,1.4299,1.4299,1.4299,1.4299,1.4299,1.4299,1.4299,1.4299,1.4299,1.4299,1.4299,1.4299,1.4299,1.4299,1.4299,1.4299,1.4509,1.4604,1.4482,1.4577,1.4665,1.4706,1.474,1.2163,0.6075,0.2028,0.0,0.0,0.0,0.0,0.0,0.0,0.0,0.0,0.0,0.0,0.0,0.0,0.0,0.0,0.0,0.0,0.9822,0.0,0.0,0.0,0.0,0.0,0.0,0.0,0.0,0.0,0.0,0.0,0.0,0.0,0.0,0.0,0.0,0.0,0.0,0.0,0.0,0.0,0.0,1.3125,1.3275,1.3356,1.3403,1.3403,1.3471,1.3553,1.3627,1.377,1.3919,1.4068,1.415,1.4224,1.4299,1.4299,1.4299,1.4299,1.4299,1.4299,1.4299,1.4299,1.4299,1.4299,1.4299,1.4299,1.4299,1.4299,1.4299,1.4299,1.4299,1.4299,1.4299,1.4299,1.4299,1.4299,1.4299,1.4299,1.4299,1.4299,1.4299,1.4312,1.4387,1.4407,1.4407,1.4407,1.4462,1.4523,1.4523,1.4523,1.4523,1.4523,1.4523,1.4523,1.4523,1.4523,1.4475,1.4326,1.4299,1.4299,1.4299,1.4299,1.4333,1.4428,1.4618,1.4713,1.4631,1.4692,1.4774,1.4848,1.4889,1.3808,1.1232,0.4114,0.0,0.0,0.0,0.0,0.0,0.0,0.0,0.0,0.0,0.0,0.0,0.0,0.0,0.0,0.0,0.0,0.0,0.0,0.9958,0.0,0.0,0.0,0.0,0.0,0.0,0.0,0.0,0.0,0.0,0.0,0.0,0.0,0.0,0.0,0.0,0.0,0.0,0.0,0.0,0.0,1.339,1.3349,1.3342,1.3397,1.3546,1.3641,1.3668,1.3933,1.4089,1.4116,1.4238,1.4299,1.4299,1.4299,1.4299,1.4299,1.4299,1.4299,1.4299,1.4299,1.4299,1.4299,1.4299,1.4299,1.4299,1.4299,1.4299,1.4299,1.4299,1.4299,1.4299,1.4299,1.4299,1.4299,1.4299,1.4319,1.4346,1.4373,1.4387,1.4407,1.4523,1.4557,1.4557,1.4557,1.4645,1.474,1.474,1.474,1.474,1.474,1.474,1.474,1.474,1.474,1.4665,1.4428,1.4387,1.438,1.436,1.4326,1.4373,1.4584,1.474,1.4808,1.4774,1.4801,1.4875,1.4997,1.5038,1.5106,1.5242,0.7403,0.2088,0.0,0.0,0.0,0.0,0.0,0.0,0.0,0.0,0.0,0.0,0.0,0.0,0.0,0.0,0.0,0.0,1.0127,0.0,0.0,0.0,0.0,0.0,0.0,0.0,0.0,0.0,0.0,0.0,0.0,0.0,0.0,0.0,0.0,0.0,0.0,0.0,0.0,0.0,0.0,0.0,1.3159,1.3125,1.339,1.3546,1.3688,1.381,1.398,1.4136,1.4272,1.4292,1.4299,1.4299,1.4299,1.4299,1.4299,1.4299,1.4299,1.4299,1.4299,1.4299,1.4299,1.4299,1.4299,1.4299,1.4299,1.4299,1.4299,1.4299,1.4299,1.4299,1.4299,1.4299,1.4299,1.4299,1.4387,1.4516,1.4652,1.4692,1.4692,1.4713,1.4713,1.4713,1.4713,1.4726,1.474,1.474,1.474,1.474,1.474,1.474,1.474,1.474,1.474,1.4726,1.4699,1.4692,1.4658,1.4563,1.4407,1.4401,1.4685,1.4964,1.5065,1.4889,1.5025,1.514,1.516,1.516,1.5187,1.5248,1.4096,0.9496,0.038,0.0,0.0,0.0,0.0,0.0,0.0,0.0,0.0,0.0,0.0,0.0,0.0,0.0,0.0,0.0,0.0,0.0,0.0,0.0,0.9924,0.0,0.0,0.0,0.0,0.0,0.0,0.0,0.0,0.0,0.0,0.0,0.0,0.0,0.0,0.0,0.0,0.0,0.0,0.0,0.0,1.3125,1.3512,1.3675,1.3817,1.3973,1.4122,1.4238,1.4299,1.4299,1.4299,1.4299,1.4299,1.4299,1.4299,1.4299,1.4299,1.4299,1.4299,1.4299,1.4299,1.4299,1.4346,1.4421,1.4421,1.4373,1.4299,1.4299,1.4299,1.4312,1.4394,1.4421,1.4434,1.4529,1.4597,1.4672,1.4828,1.4808,1.476,1.4848,1.4875,1.4875,1.4875,1.4936,1.4997,1.4997,1.4997,1.4997,1.4997,1.4997,1.4997,1.4997,1.4997,1.4997,1.4997,1.4855,1.4726,1.4679,1.4652,1.4692,1.4855,1.5052,1.5153,1.5065,1.5133,1.5181,1.5181,1.5181,1.5194,1.5208,1.5255,1.0659,0.038,0.0,0.0,0.0,0.0,0.0,0.0,0.0,0.0,0.0,0.0,0.0,1.0399,0.0,0.0,0.0,0.0,0.0,0.0,0.0,0.0,0.0,0.0,0.0,0.0,0.0,0.0,0.0,0.0,0.0,0.0,0.0,0.0,0.0,0.0,0.0,0.0,0.0,0.0,0.0,0.0,0.0,1.36,1.3763,1.3912,1.4068,1.4224,1.4299,1.4299,1.4299,1.4299,1.4299,1.4299,1.4299,1.4299,1.4299,1.4299,1.4299,1.434,1.436,1.436,1.436,1.4441,1.457,1.4529,1.4475,1.4421,1.4421,1.4421,1.4434,1.4536,1.4577,1.4597,1.4753,1.4801,1.4835,1.4984,1.495,1.4882,1.4997,1.5031,1.5031,1.5031,1.5106,1.5181,1.5181,1.5181,1.5181,1.5181,1.5181,1.5181,1.5181,1.5181,1.5181,1.5181,1.5004,1.4862,1.4862,1.4923,1.4977,1.5025,1.512,1.5181,1.5181,1.5181,1.5181,1.5181,1.5181,1.5181,1.5181,1.5248,1.1237,0.2468,0.0762,0.0,0.0,0.0,0.0,0.0,0.0,0.0,0.0,0.0,0.0,0.0,0.0,0.0,1.0419,0.0,0.0,0.0,0.0,1.0222,0.0,0.0,0.0,0.0,0.0,0.0,0.0,0.0,0.0,0.0,0.0,0.0,0.0,0.0,0.0,0.0,0.0,0.0,0.0,0.0,0.0,1.3587,1.3763,1.3912,1.4068,1.4224,1.4299,1.4299,1.4299,1.4299,1.4299,1.4299,1.4299,1.4299,1.4299,1.4299,1.4306,1.4441,1.4502,1.4502,1.4502,1.459,1.4719,1.457,1.4597,1.4726,1.4726,1.4726,1.4726,1.4733,1.4733,1.476,1.4909,1.4964,1.4991,1.5133,1.5174,1.5167,1.5174,1.5174,1.5174,1.5174,1.5181,1.5181,1.5181,1.5181,1.5181,1.5181,1.5181,1.5181,1.5181,1.5181,1.5181,1.5181,1.5174,1.5167,1.5167,1.5167,1.5174,1.5174,1.5181,1.5181,1.5181,1.5181,1.5181,1.5181,1.5181,1.5181,1.5181,1.5228,1.275,0.7595,0.2658,0.0,0.0,0.0,0.0,0.0,0.0,0.0,0.0,0.0,0.0,0.0,0.0,1.1592,1.0894,0.0,0.0,0.0,0.0,0.0,0.0,0.0,0.0,0.0,0.0,0.0,0.0,0.0,0.0,0.0,0.0,0.0,0.0,0.0,0.0,0.0,0.0,0.0,0.0,0.0,0.0,0.0,1.3817,1.396,1.4211,1.4272,1.4299,1.4299,1.4299,1.4299,1.4299,1.4299,1.4245,1.415,1.4251,1.4245,1.4156,1.4306,1.4373,1.4373,1.4373,1.4455,1.459,1.4645,1.4753,1.4882,1.478,1.474,1.4753,1.4855,1.4957,1.5038,1.5092,1.5113,1.5106,1.5059,1.5045,1.5045,1.5045,1.5045,1.5065,1.516,1.5181,1.5181,1.5181,1.5181,1.5181,1.5181,1.5181,1.5181,1.5181,1.5181,1.5181,1.5181,1.5181,1.5181,1.5181,1.5181,1.5181,1.5181,1.5181,1.5181,1.5181,1.5181,1.5181,1.5181,1.5181,1.5181,1.5181,1.5228,1.448,1.275,0.4555,0.0,0.0,0.0,0.0,0.0,0.0,0.0,0.0,0.0,0.0,1.166,1.1843,0.0,0.0,1.1179,0.0,1.0432,0.0,0.0,0.0,0.0,0.0,0.0,0.0,0.0,0.0,0.0,0.0,0.0,1.0853,0.0,0.0,0.0,0.0,0.0,0.0,0.0,0.0,0.0,0.0,0.0,0.0,1.398,1.4292,1.4299,1.4299,1.4299,1.4299,1.4299,1.4299,1.4353,1.4299,1.4156,1.4306,1.4292,1.4163,1.4312,1.4373,1.4373,1.4373,1.4462,1.4597,1.4638,1.4787,1.4964,1.4916,1.4896,1.4909,1.5011,1.5106,1.5174,1.5126,1.5106,1.5079,1.4936,1.4889,1.4889,1.4889,1.493,1.4991,1.5086,1.5147,1.5181,1.5181,1.5181,1.5181,1.5181,1.5181,1.5181,1.5181,1.5181,1.5181,1.5181,1.5181,1.5181,1.5181,1.5181,1.5181,1.5181,1.5181,1.5181,1.5181,1.5181,1.5181,1.5181,1.5181,1.5181,1.5181,1.5208,1.5235,1.5248,0.8932,0.3793,0.0,0.0,0.0,0.0,0.0,0.0,0.0,0.0,0.0]}]]